[[{"header":{"parameterUnit":"m.s-1","parameterCategory":1,"la1":30.6,"la2":28.766,"lo1":-90.7593,"lo2":-88.6598,"dy":0.0162,"dx":0.0183,"nx":116,"ny":114,"refTime":"2024-04-15T12:00:00:Z","depth":0,"parameterNumber":2,"parameterNumberName":"U-component_of_WINDS"},"data":[0.0,0.0,0.0,0.0,0.0,0.0,0.0,0.0,0.0,0.0,0.0,0.0,0.0,0.0,0.0,0.0,0.0,0.0,0.0,0.0,0.0,0.0,0.0,0.0,0.0,0.0,0.0,0.0,0.0,0.0,0.0,0.0,0.0,0.0,0.0,0.0,0.0,0.0,0.0,0.0,0.0,0.0,0.0,0.0,0.0,0.0,0.0,0.0,0.0,0.0,0.0,0.0,0.0,0.0,0.0,0.0,0.0,0.0,0.0,0.0,0.0,0.0,0.0,0.0,0.0,0.0,0.0,0.0,0.0,0.0,0.0,0.0,0.0,0.0,0.0,0.0,0.0,0.0,0.0,0.0,0.0,0.0,0.0,0.0,0.0,0.0,0.0,0.0,0.0,0.0,0.0,0.0,0.0,0.0,0.0,0.0,0.0,0.0,0.0,0.0,0.0,0.0,0.0,0.0,0.0,0.0,0.0,0.0,0.0,0.0,0.0,0.0,0.0,0.0,0.0,0.0,0.0,0.0,0.0,0.0,0.0,0.0,0.0,0.0,0.0,0.0,0.0,0.0,0.0,0.0,0.0,0.0,0.0,0.0,0.0,0.0,0.0,0.0,0.0,0.0,0.0,0.0,0.0,0.0,0.0,0.0,0.0,0.0,0.0,0.0,0.0,0.0,0.0,0.0,0.0,0.0,0.0,0.0,0.0,0.0,0.0,0.0,0.0,0.0,0.0,0.0,0.0,0.0,0.0,0.0,0.0,0.0,0.0,0.0,0.0,0.0,0.0,0.0,0.0,0.0,0.0,0.0,0.0,0.0,0.0,0.0,0.0,0.0,0.0,0.0,0.0,0.0,0.0,0.0,0.0,0.0,0.0,0.0,0.0,0.0,0.0,0.0,0.0,0.0,0.0,0.0,0.0,0.0,0.0,0.0,0.0,0.0,0.0,0.0,0.0,0.0,0.0,0.0,0.0,0.0,0.0,0.0,0.0,0.0,0.0,0.0,0.0,0.0,0.0,0.0,0.0,0.0,0.0,0.0,0.0,0.0,0.0,0.0,0.0,0.0,0.0,0.0,0.0,0.0,0.0,0.0,0.0,0.0,0.0,0.0,0.0,0.0,0.0,0.0,0.0,0.0,0.0,0.0,0.0,0.0,0.0,0.0,0.0,0.0,0.0,0.0,0.0,0.0,0.0,0.0,0.0,0.0,0.0,0.0,0.0,0.0,0.0,0.0,0.0,0.0,0.0,0.0,0.0,0.0,0.0,0.0,0.0,0.0,0.0,0.0,0.0,0.0,0.0,0.0,0.0,0.0,0.0,0.0,0.0,0.0,0.0,0.0,0.0,0.0,0.0,0.0,0.0,0.0,0.0,0.0,0.0,0.0,0.0,0.0,0.0,0.0,0.0,0.0,0.0,0.0,0.0,0.0,0.0,0.0,0.0,0.0,0.0,0.0,0.0,0.0,0.0,0.0,0.0,0.0,0.0,0.0,0.0,0.0,0.0,0.0,0.0,0.0,0.0,0.0,0.0,0.0,0.0,0.0,0.0,0.0,0.0,0.0,0.0,0.0,0.0,0.0,0.0,0.0,0.0,0.0,0.0,0.0,0.0,0.0,0.0,0.0,0.0,0.0,0.0,0.0,0.0,0.0,0.0,0.0,0.0,0.0,0.0,0.0,0.0,0.0,0.0,0.0,0.0,0.0,0.0,0.0,0.0,0.0,0.0,0.0,0.0,0.0,0.0,0.0,0.0,0.0,0.0,0.0,0.0,0.0,0.0,0.0,0.0,0.0,0.0,0.0,0.0,0.0,0.0,0.0,0.0,0.0,0.0,0.0,0.0,0.0,0.0,0.0,0.0,0.0,0.0,0.0,0.0,0.0,0.0,0.0,0.0,0.0,0.0,0.0,0.0,0.0,0.0,0.0,0.0,0.0,0.0,0.0,0.0,0.0,0.0,0.0,0.0,0.0,0.0,0.0,0.0,0.0,0.0,0.0,0.0,0.0,0.0,0.0,0.0,0.0,0.0,0.0,0.0,0.0,0.0,0.0,0.0,0.0,0.0,0.0,0.0,0.0,0.0,0.0,0.0,0.0,0.0,0.0,0.0,0.0,0.0,0.0,0.0,0.0,0.0,0.0,0.0,0.0,0.0,0.0,0.0,0.0,0.0,0.0,0.0,0.0,0.0,0.0,0.0,0.0,0.0,0.0,0.0,0.0,0.0,0.0,0.0,0.0,0.0,0.0,0.0,0.0,0.0,0.0,0.0,0.0,0.0,0.0,0.0,0.0,0.0,0.0,0.0,0.0,0.0,0.0,0.0,0.0,0.0,0.0,0.0,0.0,0.0,0.0,0.0,0.0,0.0,0.0,0.0,0.0,0.0,0.0,0.0,0.0,0.0,0.0,0.0,0.0,0.0,0.0,0.0,0.0,0.0,0.0,0.0,0.0,0.0,0.0,0.0,0.0,0.0,0.0,0.0,0.0,0.0,0.0,0.0,0.0,0.0,0.0,0.0,0.0,0.0,0.0,0.0,0.0,0.0,0.0,0.0,0.0,0.0,0.0,0.0,0.0,0.0,0.0,0.0,0.0,0.0,0.0,0.0,0.0,0.0,0.0,0.0,0.0,0.0,0.0,0.0,0.0,0.0,0.0,0.0,0.0,0.0,0.0,0.0,0.0,0.0,0.0,0.0,0.0,0.0,0.0,0.0,0.0,0.0,0.0,0.0,0.0,0.0,0.0,0.0,0.0,0.0,0.0,0.0,0.0,0.0,0.0,0.0,0.0,0.0,0.0,0.0,0.0,0.0,0.0,0.0,0.0,0.0,0.0,0.0,0.0,0.0,0.0,0.0,0.0,0.0,0.0,0.0,0.0,0.0,0.0,0.0,0.0,0.0,0.0,0.0,0.0,0.0,0.0,0.0,0.0,0.0,0.0,0.0,0.0,0.0,0.0,0.0,0.0,0.0,0.0,0.0,0.0,0.0,0.0,0.0,0.0,0.0,0.0,0.0,0.0,0.0,0.0,0.0,0.0,0.0,0.0,0.0,0.0,0.0,0.0,0.0,0.0,0.0,0.0,0.0,0.0,0.0,0.0,0.0,0.0,0.0,0.0,0.0,0.0,0.0,0.0,0.0,0.0,0.0,0.0,0.0,0.0,0.0,0.0,0.0,0.0,0.0,0.0,0.0,0.0,0.0,0.0,0.0,0.0,0.0,0.0,0.0,0.0,0.0,0.0,0.0,0.0,0.0,0.0,0.0,0.0,0.0,0.0,0.0,0.0,0.0,0.0,0.0,0.0,0.0,0.0,0.0,0.0,0.0,0.0,0.0,0.0,0.0,0.0,0.0,0.0,0.0,0.0,0.0,0.0,0.0,0.0,0.0,0.0,0.0,0.0,0.0,0.0,0.0,0.0,0.0,0.0,0.0,0.0,0.0,0.0,0.0,0.0,0.0,0.0,0.0,0.0,0.0,0.0,0.0,0.0,0.0,0.0,0.0,0.0,0.0,0.0,0.0,0.0,0.0,0.0,0.0,0.0,0.0,0.0,0.0,0.0,0.0,0.0,0.0,0.0,0.0,0.0,0.0,0.0,0.0,0.0,0.0,0.0,0.0,0.0,0.0,0.0,0.0,0.0,0.0,0.0,0.0,0.0,0.0,0.0,0.0,0.0,0.0,0.0,0.0,0.0,0.0,0.0,0.0,0.0,0.0,0.0,0.0,0.0,0.0,0.0,0.0,0.0,0.0,0.0,0.0,0.0,0.0,0.0,0.0,0.0,0.0,0.0,0.0,0.0,0.0,0.0,0.0,0.0,0.0,0.0,0.0,0.0,0.0,0.0,0.0,0.0,0.0,0.0,0.0,0.0,0.0,0.0,0.0,0.0,0.0,0.0,0.0,0.0,0.0,0.0,0.0,0.0,0.0,0.0,0.0,0.0,0.0,0.0,0.0,0.0,0.0,0.0,0.0,0.0,0.0,0.0,0.0,0.0,0.0,0.0,0.0,0.0,0.0,0.0,0.0,0.0,0.0,0.0,0.0,0.0,0.0,0.0,0.0,0.0,0.0,0.0,0.0,0.0,0.0,0.0,0.0,0.0,0.0,0.0,0.0,0.0,0.0,0.0,0.0,0.0,0.0,0.0,0.0,0.0,0.0,0.0,0.0,0.0,0.0,0.0,0.0,0.0,0.0,0.0,0.0,0.0,0.0,0.0,0.0,0.0,0.0,0.0,0.0,0.0,0.0,0.0,0.0,0.0,0.0,0.0,0.0,0.0,0.0,0.0,0.0,0.0,0.0,0.0,0.0,0.0,0.0,0.0,0.0,0.0,0.0,0.0,0.0,0.0,0.0,0.0,0.0,0.0,0.0,0.0,0.0,0.0,0.0,0.0,0.0,0.0,0.0,0.0,0.0,0.0,0.0,0.0,0.0,0.0,0.0,0.0,0.0,0.0,0.0,0.0,0.0,0.0,0.0,0.0,0.0,0.0,0.0,0.0,0.0,0.0,0.0,0.0,0.0,0.0,0.0,0.0,0.0,0.0,0.0,0.0,0.0,0.0,0.0,0.0,0.0,0.0,0.0,0.0,0.0,0.0,0.0,0.0,0.0,0.0,0.0,0.0,0.0,0.0,0.0,0.0,0.0,0.0,0.0,0.0,0.0,0.0,0.0,0.0,0.0,0.0,0.0,0.0,0.0,0.0,0.0,0.0,0.0,0.0,0.0,0.0,0.0,0.0,0.0,0.0,0.0,0.0,0.0,0.0,0.0,0.0,0.0,0.0,0.0,0.0,0.0,0.0,0.0,0.0,0.0,0.0,0.0,0.0,0.0,0.0,0.0,0.0,0.0,0.0,0.0,0.0,0.0,0.0,0.0,0.0,0.0,0.0,0.0,0.0,0.0,0.0,0.0,0.0,0.0,0.0,0.0,0.0,0.0,0.0,0.0,0.0,0.0,0.0,0.0,0.0,0.0,0.0,0.0,0.0,0.0,0.0,0.0,0.0,0.0,0.0,0.0,0.0,0.0,0.0,0.0,0.0,0.0,0.0,0.0,0.0,0.0,0.0,0.0,0.0,0.0,0.0,0.0,0.0,0.0,0.0,0.0,0.0,0.0,0.0,0.0,0.0,0.0,0.0,0.0,0.0,0.0,0.0,0.0,0.0,0.0,0.0,0.0,0.0,0.0,0.0,0.0,0.0,0.0,0.0,0.0,0.0,0.0,0.0,0.0,0.0,0.0,0.0,0.0,0.0,0.0,0.0,0.0,0.0,0.0,0.0,0.0,0.0,0.0,0.0,0.0,0.0,0.0,0.0,0.0,0.0,0.0,0.0,0.0,0.0,0.0,0.0,0.0,0.0,0.0,0.0,0.0,0.0,0.0,0.0,0.0,0.0,0.0,0.0,0.0,0.0,0.0,0.0,0.0,0.0,0.0,0.0,0.0,0.0,0.0,0.0,0.0,0.0,0.0,0.0,0.0,0.0,0.0,0.0,0.0,0.0,0.0,0.0,0.0,0.0,0.0,0.0,0.0,0.0,0.0,0.0,0.0,0.0,0.0,0.0,0.0,0.0,0.0,0.0,0.0,0.0,0.0,0.0,0.0,0.0,0.0,0.0,0.0,0.0,0.0,0.0,0.0,0.0,0.0,0.0,0.0,0.0,0.0,0.0,0.0,0.0,0.0,0.0,0.0,0.0,0.0,0.0,0.0,0.0,0.0,0.0,0.0,0.0,0.0,0.0,0.0,0.0,0.0,0.0,0.0,0.0,0.0,0.0,0.0,0.0,0.0,0.0,0.0,0.0,0.0,0.0,0.0,0.0,0.0,0.0,0.0,0.0,0.0,0.0,0.0,0.0,0.0,0.0,0.0,0.0,0.0,0.0,0.0,0.0,0.0,0.0,0.0,0.0,0.0,0.0,0.0,0.0,0.0,0.0,0.0,0.0,0.0,0.0,0.0,0.0,0.0,0.0,0.0,0.0,0.0,0.0,0.0,0.0,0.0,0.0,0.0,0.0,0.0,0.0,0.0,0.0,0.0,0.0,0.0,0.0,0.0,0.0,0.0,0.0,0.0,0.0,0.0,0.0,0.0,0.0,0.0,0.0,0.0,0.0,0.0,0.0,-4.668,-4.6308,0.0,0.0,0.0,0.0,0.0,0.0,0.0,0.0,0.0,0.0,0.0,0.0,0.0,0.0,0.0,0.0,0.0,0.0,0.0,0.0,0.0,0.0,0.0,-4.128,-4.108,-4.0595,-4.0571,-4.0598,-4.0598,0.0,0.0,0.0,0.0,0.0,-4.0458,-4.0458,-4.0458,-4.0458,-4.0458,-4.0466,-4.05,-4.0394,-4.0294,-4.0186,0.0,0.0,0.0,0.0,0.0,0.0,0.0,0.0,0.0,0.0,0.0,0.0,0.0,0.0,0.0,0.0,0.0,0.0,0.0,0.0,0.0,0.0,0.0,0.0,0.0,0.0,0.0,0.0,0.0,0.0,0.0,0.0,0.0,0.0,0.0,0.0,0.0,0.0,0.0,0.0,0.0,0.0,0.0,0.0,0.0,0.0,0.0,0.0,0.0,0.0,0.0,0.0,0.0,0.0,0.0,0.0,0.0,0.0,0.0,0.0,0.0,0.0,0.0,0.0,0.0,0.0,0.0,0.0,0.0,0.0,-4.6504,-4.6308,0.0,0.0,0.0,0.0,0.0,0.0,0.0,0.0,0.0,0.0,0.0,0.0,0.0,0.0,0.0,0.0,0.0,0.0,0.0,0.0,0.0,-4.0605,-4.058,-4.058,-4.0565,-4.0496,-4.0539,-4.058,-4.058,-4.058,-4.0576,-4.0574,-4.0554,-4.0465,-4.0334,-4.03,-4.03,-4.0334,-4.0334,-4.037,-4.0414,-4.0278,-4.0261,-4.0316,-4.0059,0.0,0.0,0.0,0.0,0.0,0.0,0.0,0.0,0.0,0.0,0.0,0.0,0.0,0.0,0.0,0.0,0.0,0.0,0.0,0.0,0.0,0.0,0.0,0.0,0.0,0.0,0.0,0.0,0.0,0.0,0.0,0.0,0.0,0.0,0.0,0.0,0.0,0.0,0.0,0.0,0.0,0.0,0.0,0.0,0.0,0.0,0.0,0.0,0.0,0.0,0.0,0.0,0.0,0.0,0.0,0.0,0.0,0.0,0.0,0.0,0.0,0.0,0.0,-4.6305,-4.6306,-4.6306,-4.6308,-4.6308,-4.6308,-4.6308,-4.6308,-4.6308,-4.6308,0.0,0.0,0.0,0.0,0.0,0.0,0.0,0.0,0.0,0.0,0.0,0.0,0.0,0.0,0.0,0.0,0.0,0.0,0.0,-4.058,-4.0523,-4.0504,-4.0504,-4.0496,-4.0516,-4.0504,-4.0504,-4.0504,-4.0504,-4.0512,-4.0339,-4.0321,-4.0473,-4.0313,-4.0304,-4.0481,-4.0481,-4.0481,-4.0481,-4.0411,-4.0388,-4.0368,-4.0224,-4.007,-3.9903,0.0,0.0,0.0,0.0,0.0,0.0,0.0,0.0,0.0,0.0,0.0,0.0,0.0,0.0,0.0,0.0,0.0,0.0,0.0,0.0,0.0,0.0,0.0,0.0,0.0,0.0,0.0,0.0,0.0,0.0,0.0,0.0,0.0,0.0,0.0,0.0,0.0,0.0,0.0,0.0,0.0,-4.5594,-4.5594,0.0,0.0,0.0,0.0,0.0,0.0,0.0,0.0,0.0,0.0,0.0,0.0,0.0,-4.6021,-4.6033,-4.6218,-4.6301,-4.6301,-4.6302,-4.6302,-4.6302,-4.6306,-4.6307,-4.6307,-4.6308,0.0,-4.6308,-4.6308,0.0,0.0,0.0,0.0,0.0,0.0,0.0,0.0,0.0,0.0,0.0,0.0,0.0,0.0,0.0,0.0,0.0,0.0,0.0,0.0,0.0,-4.0496,-4.0508,-4.0495,-4.0495,-4.0479,-4.0455,-4.0304,-4.0295,-4.0447,-4.0223,-4.012,-4.0232,-4.0129,-4.012,-4.0212,-4.0419,-4.0479,-4.0436,-4.0413,-4.0325,-4.0167,-4.011,-4.003,-3.9892,-3.9739,0.0,0.0,0.0,0.0,0.0,0.0,0.0,0.0,0.0,0.0,0.0,0.0,0.0,0.0,0.0,0.0,0.0,0.0,0.0,0.0,0.0,0.0,0.0,0.0,0.0,0.0,0.0,0.0,0.0,0.0,0.0,0.0,0.0,0.0,0.0,0.0,0.0,0.0,0.0,-4.5594,-4.5594,-4.5594,-4.5594,-4.5594,0.0,0.0,0.0,0.0,0.0,0.0,0.0,0.0,0.0,-4.6418,-4.6601,-4.6951,-4.7509,-4.7593,-4.7674,-4.7717,-4.7701,-4.7702,-4.7702,-4.7747,-4.775,-4.7732,-4.7245,-4.7031,-4.6992,-4.6504,-4.6308,-4.6308,0.0,0.0,0.0,0.0,-4.6308,-4.6308,0.0,0.0,0.0,0.0,0.0,0.0,0.0,0.0,0.0,0.0,0.0,0.0,-4.0571,-4.0531,-4.0503,-4.051,-4.0474,-4.0449,-4.0407,-4.0205,-4.0186,-4.0379,-4.0139,-4.0032,-4.0101,-4.011,-4.011,-4.011,-4.0342,-4.0441,-4.0407,-4.0325,-4.0186,-3.9983,-3.987,-3.9791,-3.9739,-3.952,-3.9414,-3.935,0.0,0.0,0.0,0.0,0.0,0.0,0.0,0.0,0.0,0.0,0.0,0.0,0.0,0.0,0.0,0.0,0.0,0.0,0.0,0.0,0.0,0.0,0.0,0.0,0.0,0.0,0.0,0.0,0.0,0.0,0.0,0.0,0.0,0.0,0.0,0.0,0.0,-4.5586,-4.5594,-4.5594,-4.5594,-4.5594,0.0,0.0,0.0,0.0,0.0,0.0,-4.622,-4.6328,-4.6661,-4.7252,-4.7417,-4.7942,-4.892,-4.8943,-4.9001,-4.9072,-4.9079,-4.8974,-4.8808,-4.8854,-4.8879,-4.8843,-4.8219,-4.7928,-4.7851,-4.6758,-4.6308,-4.6308,-4.6308,-4.6308,-4.6308,-4.6308,-4.6308,-4.6308,0.0,0.0,0.0,0.0,0.0,0.0,0.0,0.0,0.0,0.0,0.0,-4.0694,-4.0687,-4.0588,-4.0502,-4.0502,-4.0441,-4.0407,-4.0407,-4.0398,-4.0398,-4.0407,-4.0139,-4.012,-4.037,-4.037,-4.037,-4.037,-4.0407,-4.0407,-4.0388,-4.0129,-4.0003,-3.9973,-3.9537,-3.9318,-3.9337,-3.9324,-3.9151,-3.8921,-3.8921,0.0,0.0,0.0,0.0,0.0,0.0,0.0,0.0,0.0,0.0,0.0,0.0,0.0,0.0,0.0,0.0,0.0,0.0,0.0,0.0,0.0,0.0,0.0,0.0,0.0,0.0,0.0,0.0,0.0,0.0,0.0,0.0,0.0,0.0,0.0,0.0,0.0,0.0,-4.5594,-4.5594,0.0,0.0,0.0,0.0,-4.6778,-4.6827,-4.7182,-4.7932,-4.798,-4.7999,-4.8038,-4.8171,-4.8662,-4.956,-4.9608,-4.9711,-4.9831,-4.9831,-4.9484,-4.88,-4.8808,-4.8811,-4.8813,-4.8838,-4.8823,-4.8709,-4.6992,-4.6308,-4.6308,-4.6308,-4.6308,-4.6308,-4.6308,-4.6308,-4.6308,0.0,0.0,0.0,0.0,0.0,-4.1111,-4.1062,-4.1054,-4.1031,-4.0977,-4.0844,-4.0738,-4.0649,-4.0554,-4.0458,-4.0379,-4.0362,-4.0335,-4.0337,-4.0167,-4.0148,-4.0328,-4.007,-4.0059,-4.0328,-4.0335,-4.0335,-4.0337,-4.0335,-4.0335,-4.0328,-4.0059,-3.9843,-3.9656,-3.9318,-3.9073,-3.8921,-3.9007,-3.8993,-3.891,-3.891,-3.891,0.0,0.0,0.0,0.0,0.0,0.0,0.0,0.0,0.0,0.0,0.0,0.0,0.0,0.0,0.0,0.0,0.0,0.0,0.0,0.0,0.0,0.0,0.0,0.0,0.0,0.0,0.0,0.0,0.0,0.0,0.0,0.0,0.0,0.0,0.0,0.0,0.0,-4.6301,-4.6367,0.0,-4.7144,-4.7201,-4.7336,-4.7663,-4.8182,-4.8625,-4.8913,-4.9471,-5.001,-5.0519,-5.0586,-5.1082,-5.2031,-5.2067,-5.2195,-5.2403,-5.2403,-5.2311,-5.2136,-5.1574,-5.1306,-5.1252,-5.0142,-4.9678,-4.9585,-4.8433,-4.7635,-4.707,-4.6523,-4.6308,-4.6308,-4.6308,-4.6308,-4.6308,0.0,0.0,0.0,0.0,0.0,-4.1091,-4.1108,-4.1102,-4.109,-4.103,-4.094,-4.0825,-4.0686,-4.0559,-4.0444,-4.0316,-4.0289,-4.03,-4.031,-4.0128,-4.0108,-4.0301,-4.0118,-4.0118,-4.0301,-4.03,-4.0434,-4.0711,-4.0701,-4.0854,-4.1141,-4.0864,-4.0443,-3.9896,-3.961,-3.9223,-3.8707,-3.8777,-3.8822,-3.8822,-3.8822,-3.8822,-3.8822,0.0,0.0,0.0,0.0,0.0,0.0,0.0,0.0,0.0,0.0,0.0,0.0,0.0,0.0,0.0,0.0,0.0,0.0,0.0,0.0,0.0,0.0,0.0,0.0,0.0,0.0,0.0,0.0,0.0,0.0,0.0,0.0,0.0,0.0,-4.564,-4.6062,-4.6685,-4.7271,-4.7847,-4.8452,-4.8769,-4.9067,-4.9365,-4.9913,-5.0375,-5.0664,-5.1221,-5.1798,-5.2308,-5.2327,-5.2801,-5.3761,-5.3761,-5.3875,-5.4072,-5.4072,-5.4013,-5.3905,-5.3027,-5.2652,-5.2614,-5.1169,-5.0549,-5.0477,-4.9657,-4.8979,-4.8359,-4.7187,-4.6562,-4.6308,-4.6308,-4.6308,-4.6308,0.0,0.0,0.0,0.0,0.0,-4.1091,-4.1108,-4.1102,-4.1097,-4.109,-4.1039,-4.0941,-4.0811,-4.063,-4.0442,-4.0314,-4.03,-4.0301,-4.0301,-4.0301,-4.0301,-4.0301,-4.0301,-4.0301,-4.0301,-4.032,-4.0731,-4.1495,-4.1533,-4.1972,-4.2784,-4.2536,-4.1815,-4.0735,-4.0439,-3.9719,-3.8759,-3.8707,-3.8692,-3.8692,-3.8707,-3.8707,-3.8707,0.0,0.0,0.0,0.0,0.0,0.0,0.0,0.0,0.0,0.0,0.0,0.0,0.0,0.0,0.0,0.0,0.0,0.0,0.0,0.0,0.0,0.0,0.0,0.0,0.0,0.0,0.0,0.0,0.0,0.0,0.0,0.0,0.0,-4.5376,-4.6166,-4.6713,-4.6809,-4.8247,-4.9283,-4.9392,-5.017,-5.1027,-5.1865,-5.1962,-5.2346,-5.3203,-5.326,-5.328,-5.328,-5.328,-5.3683,-5.453,-5.453,-5.4574,-5.4641,-5.4641,-5.4373,-5.3849,-5.2987,-5.2646,-5.2685,-5.1824,-5.1439,-5.1331,-5.049,-5.0166,-5.0018,-4.8279,-4.7089,-4.6348,-4.6308,-4.6308,-4.6308,0.0,0.0,0.0,-4.1115,-4.1113,-4.1108,-4.1108,-4.11,-4.1091,-4.1109,-4.1039,-4.0976,-4.0874,-4.0648,-4.05,-4.0449,-4.0363,-4.0301,-4.0301,-4.0301,-4.0301,-4.0301,-4.0301,-4.0301,-4.0301,-4.0864,-4.1285,-4.1495,-4.2125,-4.2565,-4.2784,-4.2536,-4.2219,-4.1872,-4.0795,-4.0145,-3.9789,-3.8937,-3.8559,-3.8559,-3.8658,-3.8707,-3.8707,0.0,0.0,0.0,0.0,0.0,0.0,0.0,0.0,0.0,0.0,0.0,0.0,0.0,0.0,0.0,0.0,0.0,0.0,0.0,0.0,0.0,0.0,0.0,0.0,0.0,0.0,0.0,0.0,0.0,0.0,0.0,-4.4651,-4.5341,-4.6091,-4.6398,-4.7261,-4.916,-4.9792,-5.0572,-5.1853,-5.2209,-5.2461,-5.2745,-5.3371,-5.3853,-5.4126,-5.4703,-5.5011,-5.5011,-5.5011,-5.5126,-5.5376,-5.5376,-5.5431,-5.5539,-5.5539,-5.5564,-5.5587,-5.4764,-5.4109,-5.358,-5.2722,-5.1982,-5.1379,-5.1144,-5.0683,-4.995,-4.8258,-4.7441,-4.7168,-4.6523,-4.6308,-4.6308,0.0,0.0,0.0,-4.1081,-4.1093,-4.1107,-4.1107,-4.1099,-4.1109,-4.1109,-4.1079,-4.1013,-4.0902,-4.0707,-4.0561,-4.0504,-4.0381,-4.0301,-4.0301,-4.0263,-4.0253,-4.0253,-4.0559,-4.0711,-4.0711,-4.1541,-4.2132,-4.2456,-4.2971,-4.341,-4.3753,-4.3604,-4.3281,-4.2834,-4.2006,-4.1311,-4.0652,-3.9614,-3.9082,-3.8937,-3.8674,-3.8593,-3.8609,-3.8578,-3.8593,-3.8609,-3.8578,-3.8562,-3.8578,-3.8609,0.0,0.0,0.0,0.0,0.0,0.0,0.0,0.0,0.0,0.0,0.0,0.0,0.0,0.0,0.0,0.0,0.0,0.0,0.0,0.0,0.0,0.0,0.0,0.0,-4.5267,-4.6289,-4.7503,-4.7794,-4.845,-4.9966,-5.1207,-5.236,-5.3407,-5.3821,-5.4035,-5.4145,-5.4617,-5.4927,-5.4991,-5.5453,-5.5703,-5.5703,-5.5703,-5.5703,-5.5703,-5.5703,-5.5728,-5.5808,-5.5808,-5.593,-5.6109,-5.5306,-5.4538,-5.3798,-5.2968,-5.2122,-5.1325,-5.1386,-5.1107,0.0,0.0,0.0,0.0,0.0,-4.6308,-4.6308,0.0,0.0,0.0,-4.1074,-4.1092,-4.109,-4.1108,-4.1099,-4.1109,-4.1109,-4.1101,-4.1052,-4.094,-4.0806,-4.0681,-4.0523,-4.0396,-4.0329,-4.0301,-4.0244,-4.0244,-4.0329,-4.0966,-4.1343,-4.1438,-4.2294,-4.3093,-4.3789,-4.3904,-4.4341,-4.5103,-4.5103,-4.458,-4.3674,-4.3555,-4.2779,-4.1489,-4.0644,-4.0025,-3.9581,-3.885,-3.8554,-3.8494,-3.8415,-3.843,-3.8478,-3.8415,-3.8399,-3.8415,-3.8478,0.0,0.0,0.0,0.0,0.0,0.0,0.0,0.0,0.0,0.0,0.0,0.0,0.0,0.0,0.0,0.0,0.0,0.0,0.0,0.0,0.0,0.0,0.0,0.0,-4.6243,-4.7513,-4.904,-4.9776,-5.0179,-5.022,-5.252,-5.4167,-5.4324,-5.4974,-5.5444,-5.5573,-5.5585,-5.5618,-5.5703,0.0,0.0,0.0,0.0,-5.5703,-5.5703,-5.5703,-5.5703,-5.5703,-5.5703,-5.5759,-5.5868,-5.5172,-5.4436,-5.3695,-5.2957,-5.2137,-5.1327,-5.1364,-5.1396,-5.131,-5.0453,-4.9074,-4.7518,-4.6738,-4.6387,-4.6308,0.0,0.0,0.0,-4.0997,-4.1012,-4.1035,-4.109,-4.1099,-4.1109,-4.1109,-4.1101,-4.1085,-4.1061,-4.0945,-4.081,-4.0675,-4.0542,-4.0422,-4.031,-4.0291,-4.0559,-4.1149,-4.1301,-4.1681,-4.2332,-4.3161,-4.3637,-4.3789,-4.4494,-4.4931,-4.5103,-4.5103,-4.4985,-4.4748,-4.3894,-4.3328,-4.3004,-4.1876,-4.0815,-3.9902,-3.9696,-3.9127,-3.8415,-3.8399,-3.8399,-3.8415,-3.8399,-3.8399,-3.8399,-3.8415,-3.8415,-3.8399,-3.8415,-3.8415,0.0,0.0,0.0,0.0,0.0,0.0,0.0,0.0,0.0,0.0,0.0,0.0,0.0,0.0,0.0,0.0,0.0,0.0,0.0,-4.5661,-4.704,-4.8235,-4.89,-5.0986,-5.2532,-5.2754,-5.3573,-5.4371,-5.5091,-5.5301,-5.544,-5.5516,-5.5516,-5.5573,-5.5684,-5.5703,-5.5703,-5.5703,-5.5703,-5.5703,-5.5703,-5.5703,-5.5703,-5.5703,0.0,0.0,-5.5887,-5.5733,-5.53,-5.4595,-5.3751,-5.2889,-5.2033,-5.1464,-5.13,-5.1322,-5.05,-4.9119,-4.7577,-4.7402,-4.6894,-4.6308,0.0,0.0,0.0,-4.0925,-4.0986,-4.1012,-4.1035,-4.1086,-4.1109,-4.1109,-4.1104,-4.1095,-4.1096,-4.0974,-4.0849,-4.0712,-4.0531,-4.0372,-4.0291,-4.0263,-4.0578,-4.1378,-4.1736,-4.2341,-4.3194,-4.3958,-4.4345,-4.4345,-4.4782,-4.4991,-4.4991,-4.4991,-4.4991,-4.4991,-4.4435,-4.4121,-4.3885,-4.2883,-4.2015,-4.1274,-4.0283,-3.9591,-3.904,-3.8498,-3.8322,-3.8354,-3.8322,-3.8305,-3.8305,-3.8354,-3.8338,-3.8305,-3.8354,-3.8338,-3.8305,0.0,0.0,0.0,0.0,0.0,0.0,0.0,0.0,0.0,0.0,0.0,0.0,0.0,0.0,-4.4213,-4.4635,0.0,-4.6159,-4.6966,-4.8141,-4.936,-5.0544,-5.2085,-5.322,-5.3507,-5.4259,-5.4925,-5.5365,-5.5403,-5.5403,-5.5444,-5.548,-5.5539,-5.564,-5.5673,-5.5703,-5.5703,-5.5703,-5.5703,-5.5703,-5.5703,-5.5703,-5.5703,-5.5703,-5.5747,-5.5808,-5.5808,-5.5392,-5.4658,-5.3855,-5.3013,-5.2154,-5.1473,-5.1245,-5.1263,-5.0939,-4.9994,-4.8746,-4.7909,-4.7324,-4.6894,0.0,0.0,0.0,-4.0898,-4.0939,-4.0984,-4.1009,-4.1052,-4.1091,-4.1109,-4.1109,-4.1103,-4.11,-4.0997,-4.0861,-4.0718,-4.0444,-4.0301,-4.0301,-4.0253,-4.0644,-4.1607,-4.2208,-4.2989,-4.4003,-4.4609,-4.4895,-4.4895,-4.4895,-4.4895,-4.4895,-4.4895,-4.4895,-4.4895,-4.4895,-4.4764,-4.446,-4.3802,-4.3245,-4.2646,-4.0977,-4.0142,-3.9774,-3.8757,-3.8322,-3.8274,-3.8225,-3.8209,-3.8209,-3.8257,-3.8241,-3.8209,-3.8257,-3.8241,-3.8209,-3.8257,-3.8274,0.0,0.0,0.0,0.0,0.0,0.0,0.0,0.0,-4.3286,-4.3466,-4.3682,-4.425,-4.4801,-4.5095,-4.6415,-4.7703,-4.8531,-4.9506,-5.0767,-5.2472,-5.307,-5.3481,-5.3893,-5.4814,-5.5403,-5.5403,-5.5403,-5.5409,-5.5395,-5.5456,-5.5516,-5.5596,-5.5629,-5.5682,-5.5692,-5.5692,-5.5692,-5.5692,-5.5684,-5.5703,-5.5703,-5.5703,-5.5703,-5.5703,-5.5703,-5.5338,-5.4675,-5.3753,-5.2799,-5.1831,-5.1347,-5.1141,-5.1167,-5.1283,-5.0906,-5.0101,-4.8453,-4.7753,-4.748,0.0,0.0,0.0,0.0,0.0,-4.0931,-4.0987,-4.1053,-4.1095,-4.1109,-4.1109,-4.1104,-4.1094,-4.1096,-4.0983,-4.0724,-4.0444,-4.0301,-4.0301,-4.0301,-4.096,-4.2503,-4.2582,-4.3308,-4.482,-4.4893,-4.4895,-4.4895,-4.4895,-4.4895,-4.4895,-4.4895,-4.4895,-4.4895,-4.4895,-4.4883,-4.4827,-4.4751,-4.4102,-4.3061,-4.2133,-4.1147,-4.015,-3.9258,-3.8612,-3.8209,-3.8209,-3.8209,-3.8209,-3.8209,-3.8209,-3.8209,-3.8209,-3.8209,-3.8209,-3.8209,-3.8209,-3.8354,-3.9078,-4.0347,-4.1542,-4.1833,-4.2432,-4.3032,0.0,-4.3286,-4.3631,-4.4416,-4.4654,-4.5131,-4.6562,-4.7848,-4.8966,-4.9764,-5.1176,-5.2489,-5.335,-5.3857,-5.4412,-5.5126,-5.532,-5.5403,-5.5403,-5.5403,-5.5409,-5.5395,-5.5408,-5.5468,-5.5596,-5.5551,-5.5551,-5.5607,-5.5607,-5.5607,-5.5607,-5.5662,-5.5703,-5.5703,-5.5703,-5.5703,-5.5703,-5.5703,-5.5645,-5.5472,-5.3896,-5.2395,-5.103,-5.0952,-5.0966,-5.1025,-5.1042,-5.1068,-5.0887,-4.9325,-4.826,-4.7479,0.0,0.0,0.0,0.0,0.0,-4.0911,-4.0935,-4.1035,-4.1098,-4.1095,-4.1091,-4.1106,-4.1095,-4.1028,-4.0917,-4.0717,-4.0595,-4.046,-4.032,-4.0381,-4.0898,-4.1962,-4.2417,-4.3194,-4.4322,-4.4756,-4.4955,-4.4955,-4.4919,-4.4895,-4.4895,-4.4895,-4.4895,-4.4895,-4.4895,-4.4895,-4.4876,-4.4402,-4.3925,-4.336,-4.1845,-4.0965,-4.0422,-3.9393,-3.8857,-3.8673,-3.8673,-3.8569,0.0,-3.8612,-3.8569,-3.8433,-3.8433,-3.8433,-3.8401,-3.8241,-3.8209,-3.8464,-3.9713,-4.0836,-4.1832,-4.2358,-4.2795,-4.3123,-4.3178,-4.367,-4.4199,-4.4618,-4.5602,-4.6589,-4.7273,-4.858,-4.9888,-5.0931,-5.1714,-5.2698,-5.4095,-5.4285,-5.4578,-5.5319,-5.5403,-5.5403,-5.5403,-5.5403,-5.5396,-5.5403,-5.5402,-5.5432,-5.548,-5.5492,-5.5516,-5.5539,-5.5539,-5.5562,-5.5596,-5.5618,-5.5651,-5.5703,-5.5703,-5.5703,-5.5703,-5.5703,-5.5164,-5.4203,-5.351,-5.2271,-5.0784,-5.0874,-5.0913,-5.0958,-5.0978,-5.1084,-5.1069,-4.9955,-4.9048,-4.8221,0.0,0.0,0.0,0.0,0.0,-4.0893,-4.0897,-4.1008,-4.1089,-4.11,-4.1095,-4.1108,-4.1095,-4.0984,-4.0867,-4.0759,-4.0717,-4.0628,-4.0422,-4.0496,-4.087,-4.1583,-4.2153,-4.2833,-4.3647,-4.4154,-4.4372,-4.4379,-4.4524,-4.4597,-4.4573,-4.48,-4.4781,-4.4573,-4.4573,-4.444,-4.4175,-4.3587,-4.3341,-4.3197,-4.1505,-4.0847,-4.0728,-3.9651,-3.9255,-3.9229,-3.9063,-3.8872,-3.873,-3.8924,-3.8814,-3.8615,-3.8688,-3.8658,-3.8569,-3.8446,-3.8743,-3.9362,-4.046,-4.1536,-4.2466,-4.3049,-4.3378,-4.3579,-4.3668,-4.4327,-4.5041,-4.5421,-4.6623,-4.7696,-4.8019,-4.9463,-5.0921,-5.1801,-5.2411,-5.329,-5.4764,-5.4654,-5.4673,-5.5319,-5.5403,-5.5403,-5.5403,-5.5403,-5.5403,-5.5403,-5.5403,-5.5402,-5.5408,-5.5451,-5.5476,-5.5468,-5.5468,-5.5504,-5.5573,-5.5585,-5.5629,-5.5703,-5.5703,-5.5703,-5.5684,-5.5472,-5.4587,-5.3203,-5.2953,-5.2029,-5.0702,-5.081,-5.0841,-5.0858,-5.0889,-5.0997,-5.1055,-5.0454,-4.9672,-4.8787,0.0,0.0,0.0,0.0,0.0,-4.0894,-4.0908,-4.0963,-4.1032,-4.1084,-4.1098,-4.1093,-4.1095,-4.0974,-4.0906,-4.0885,-4.0787,-4.0694,-4.0687,-4.0687,-4.1049,-4.1847,-4.1845,-4.223,-4.3118,-4.2968,-4.2824,-4.2766,-4.3477,-4.3798,-4.3758,-4.4535,-4.4478,-4.3739,-4.3739,-4.3265,-4.2458,-4.2439,-4.2439,-4.2363,-4.1529,-4.1177,-4.1082,-4.02,-3.9878,-3.9804,-3.9216,-3.8994,-3.898,-3.8994,-3.8814,-3.8661,-3.8915,-3.8818,-3.8643,-3.89,-4.0131,-4.1412,-4.1468,-4.2622,-4.3859,-4.3937,-4.4348,-4.4774,-4.4924,-4.5366,-4.6104,-4.7282,-4.757,-4.7947,-4.9034,-5.0877,-5.2234,-5.2286,-5.3659,-5.488,-5.5319,-5.5038,-5.4947,-5.5345,-5.5403,-5.5403,0.0,-5.5403,-5.5403,-5.5403,-5.5403,-5.539,-5.5395,-5.5403,-5.539,-5.5408,-5.5408,-5.5444,-5.5504,-5.5562,-5.5629,-5.5703,-5.5703,-5.5703,-5.5665,-5.4895,-5.4049,-5.3145,-5.2308,-5.1471,-5.0712,-5.0693,-5.0721,-5.0721,-5.0702,-5.0793,-5.0917,-5.0886,-5.004,-4.8782,0.0,0.0,0.0,0.0,0.0,0.0,-4.0894,-4.0955,-4.103,-4.1091,-4.1103,0.0,0.0,0.0,0.0,0.0,-4.0933,-4.0881,-4.0717,-4.0784,-4.092,-4.11,-4.1596,-4.1995,-4.2305,-4.2753,-4.2975,-4.29,-4.3099,-4.3159,-4.3108,-4.3375,-4.3356,-4.3108,-4.3003,-4.2808,-4.2493,-4.187,-4.1586,-4.1529,-4.0677,-4.0336,-4.0317,-4.0014,-3.99,-3.9878,0.0,-3.9477,-3.9364,-3.9544,-3.9414,-3.9208,-3.93,-3.9261,-3.9168,-3.9054,-4.0197,-4.1497,-4.1497,-4.2698,-4.3971,-4.3982,-4.4603,-4.5201,-4.5264,-4.6264,-4.7326,-4.7762,-4.8471,-4.9118,-4.9561,-5.061,-5.1702,-5.2507,-5.319,-5.403,-5.5242,-5.5052,-5.4947,-5.5345,-5.5403,0.0,0.0,0.0,0.0,-5.5403,-5.5403,-5.5403,-5.539,-5.5396,-5.5403,-5.539,-5.539,-5.5409,-5.5432,-5.5504,-5.5562,-5.5629,-5.5692,-5.5703,-5.5665,-5.4876,-5.403,-5.3145,-5.2269,-5.1433,-5.0712,-5.0712,-5.0712,-5.0712,-5.0712,-5.0775,-5.0894,-5.0905,-4.9978,-4.8678,0.0,0.0,0.0,0.0,0.0,0.0,0.0,0.0,0.0,0.0,0.0,0.0,0.0,0.0,0.0,0.0,0.0,-4.1039,-4.0844,-4.091,-4.0929,-4.0845,-4.1339,-4.162,-4.1609,-4.2065,-4.2273,-4.2212,-4.2391,-4.2456,-4.2417,-4.2679,-4.2641,-4.2373,-4.2288,-4.2077,-4.1733,-4.1138,-4.0847,-4.0756,-4.0205,-3.9935,-3.99,-3.99,-3.9911,0.0,-3.9911,-3.9804,-3.9693,-3.9856,-3.9724,-3.9526,-3.9611,-3.9635,-3.9668,-3.9758,-4.0755,-4.1897,-4.2197,-4.3273,-4.4402,-4.4731,-4.5396,-4.5985,-4.6015,-4.7008,-4.7891,-4.7755,-4.856,-4.9346,-4.9518,-5.0449,-5.1471,-5.2264,-5.2948,-5.3745,-5.4797,-5.4977,-5.5113,-5.5377,-5.5403,-5.5403,0.0,0.0,0.0,-5.5403,-5.5403,-5.5403,-5.5403,-5.5403,-5.5403,-5.5403,-5.5403,-5.539,-5.5408,-5.5468,-5.5551,-5.5649,-5.5692,-5.5703,-5.5665,-5.453,-5.3722,-5.3145,-5.1972,-5.1183,-5.0712,-5.0712,-5.0712,-5.0712,-5.0712,-5.0749,-5.0825,-5.0833,-5.0032,-4.8929,0.0,0.0,0.0,0.0,0.0,0.0,0.0,0.0,0.0,0.0,0.0,0.0,0.0,0.0,0.0,0.0,0.0,0.0,-4.1093,-4.1093,-4.1108,-4.1098,-4.1095,-4.1109,-4.1091,-4.098,-4.0883,-4.0801,-4.1383,-4.1659,-4.1678,-4.2386,-4.2303,-4.1564,-4.1555,-4.1085,-4.0307,-4.0307,-4.0239,-4.011,-4.011,-4.003,-3.9911,-3.9911,-3.9943,-3.9996,-3.9933,-3.9943,-3.9986,-3.9922,-3.9735,-3.9563,-3.9815,-3.9938,-4.0127,-4.0961,-4.1795,-4.2659,-4.3531,-4.4345,-4.5204,-4.6137,-4.6705,-4.7043,-4.7113,-4.7559,-4.7841,-4.7319,-4.7931,-4.8663,-4.8968,-5.0378,-5.1486,-5.1544,-5.2938,-5.4046,-5.4085,-5.4849,-5.5403,-5.5403,-5.5403,0.0,0.0,0.0,0.0,-5.5403,0.0,-5.5403,-5.5403,-5.5403,-5.5403,-5.5403,-5.5403,-5.5409,-5.5395,-5.5468,-5.5562,-5.5703,-5.5703,-5.5684,-5.5568,-5.3953,-5.3183,-5.3049,-5.1414,-5.0712,-5.0712,-5.0712,-5.0712,-5.0712,-5.0712,-5.0712,-5.0693,-5.0702,-5.0207,-4.9433,0.0,0.0,0.0,0.0,0.0,0.0,0.0,0.0,0.0,0.0,0.0,0.0,0.0,0.0,0.0,0.0,0.0,0.0,-4.1109,-4.1109,-4.1103,-4.1111,-4.11,-4.1095,-4.1109,-4.1078,-4.1027,-4.0952,-4.1106,-4.1159,-4.1111,-4.1302,-4.1277,-4.1064,-4.0971,-4.0823,-4.0584,-4.0489,-4.0369,-4.0248,-4.0248,-4.0177,-4.0046,-4.0046,-4.0057,-4.0067,-4.0057,-4.0057,-4.0057,-3.9933,-3.9837,-3.9804,-3.9878,-4.0355,-4.0904,-4.1132,-4.2242,-4.3549,-4.4364,-4.5254,-4.6125,-4.6985,-4.7277,-4.7378,-4.739,-4.7522,-4.7598,-4.7523,-4.7731,-4.7967,-4.8102,-4.9003,-4.992,-5.0531,-5.204,0.0,-5.4008,-5.4849,0.0,-5.5403,-5.5403,-5.5403,-5.5403,-5.5403,0.0,0.0,-5.5403,-5.5403,-5.5403,-5.5403,-5.5403,-5.5403,-5.5403,-5.5403,-5.5409,-5.5463,-5.5562,-5.5703,-5.5703,-5.5395,-5.4761,-5.3683,-5.2856,-5.2173,-5.1144,-5.0712,-5.0712,-5.0712,-5.0712,-5.0712,-5.0712,-5.0712,-5.0693,-5.0702,-4.9776,-4.8533,0.0,0.0,0.0,0.0,0.0,0.0,0.0,0.0,0.0,0.0,0.0,0.0,0.0,0.0,0.0,0.0,0.0,0.0,0.0,-4.1101,-4.1095,-4.1103,-4.1096,-4.1108,-4.1095,-4.1106,-4.1088,-4.1041,-4.1003,-4.0984,-4.0939,-4.0917,-4.0907,-4.0907,-4.0819,-4.0798,-4.0773,-4.0709,-4.0597,0.0,0.0,-4.0359,-4.0196,-4.0196,-4.0167,-4.0147,-4.0117,-4.0106,-4.0096,-4.0015,-3.9994,-3.9994,-3.9994,-4.0593,-4.1353,-4.1713,-4.2735,-4.4014,-4.5226,-4.5922,-4.6491,-4.7308,-4.7498,-4.739,-4.7024,-4.6954,-4.6877,-4.6575,-4.6862,-4.7186,-4.722,-4.793,-4.8781,0.0,0.0,0.0,-5.3359,-5.4276,-5.4982,0.0,-5.5403,0.0,-5.5403,-5.5403,-5.5403,0.0,-5.5403,-5.5403,-5.5403,-5.5403,-5.5403,-5.5403,-5.5403,-5.5396,-5.5403,-5.5476,-5.5551,-5.5671,-5.5692,-5.528,-5.4472,-5.3606,-5.2712,-5.1865,-5.1048,-5.0712,-5.0712,-5.0712,-5.0712,-5.0712,-5.0712,-5.0712,-5.0712,-5.0712,-4.9894,-4.8717,0.0,0.0,0.0,0.0,0.0,0.0,0.0,0.0,0.0,0.0,-4.111,-4.1105,0.0,0.0,0.0,0.0,0.0,0.0,0.0,0.0,0.0,-4.1095,-4.1094,-4.1103,-4.1098,-4.1098,-4.1109,-4.1094,-4.1041,-4.1007,-4.1011,-4.0952,-4.0935,-4.0935,-4.0935,-4.0935,-4.0935,-4.0935,-4.0849,-4.0726,-4.0726,-4.0584,-4.0356,0.0,0.0,-4.0225,-4.0138,-4.0127,-4.0127,-4.0127,-4.0117,-4.0106,-4.0106,-4.0764,-4.1707,-4.2411,-4.3319,-4.4501,-4.6119,-4.6609,-4.6807,-4.751,-4.7605,-4.7289,-4.6411,-4.6182,-4.5969,-4.5255,-4.578,-4.6347,-4.6347,-4.7048,-4.788,-4.8705,0.0,-5.0882,-5.2556,-5.355,-5.4428,-5.5307,-5.5403,-5.5403,-5.5403,-5.5403,-5.5403,-5.5403,-5.5403,-5.5403,-5.5403,-5.5403,-5.5403,-5.5403,-5.5403,-5.539,-5.5408,-5.5468,-5.5539,-5.5596,-5.5682,-5.5222,-5.4299,-5.3549,-5.2683,-5.1692,-5.0991,-5.0712,-5.0712,-5.0712,-5.0712,-5.0712,-5.0712,-5.0712,-5.0712,-5.0712,-5.0115,-4.9209,0.0,0.0,0.0,0.0,0.0,0.0,0.0,0.0,0.0,0.0,-4.113,-4.1107,0.0,0.0,0.0,0.0,0.0,0.0,0.0,0.0,0.0,0.0,-4.1099,-4.1107,-4.1091,-4.11,-4.1095,-4.1092,-4.1087,-4.1089,-4.1081,-4.1075,-4.1073,-4.1073,-4.1073,-4.1073,-4.1073,-4.1073,-4.0997,-4.087,-4.087,-4.0762,-4.0615,0.0,0.0,0.0,-4.0318,-4.0273,-4.0273,-4.0273,-4.0176,-4.0106,-4.0106,-4.1144,-4.243,-4.2563,-4.4189,-4.6157,-4.7139,-4.7907,-4.8478,-4.8618,-4.8116,-4.7362,-4.6544,-4.5868,-4.536,-4.5219,-4.5358,-4.5515,-4.5515,-4.6189,-4.7007,-4.7872,-4.9262,-5.0815,-5.2556,-5.355,-5.4428,0.0,-5.5403,-5.5403,-5.5403,-5.5403,0.0,0.0,-5.5403,-5.5403,-5.5403,-5.5403,-5.5403,-5.5403,-5.5403,-5.539,-5.5408,-5.5468,-5.5539,-5.5596,-5.5682,-5.4895,-5.3414,-5.328,-5.2356,-5.0894,-5.077,0.0,-5.0712,-5.0712,-5.0712,-5.0712,-5.0712,-5.0712,-5.0712,-5.0712,-4.9692,-4.8335,0.0,0.0,0.0,0.0,0.0,0.0,0.0,-4.1121,-4.1169,-4.1191,-4.1132,-4.1109,-4.1108,-4.1098,-4.1109,0.0,0.0,0.0,0.0,0.0,0.0,0.0,0.0,0.0,0.0,-4.11,-4.1093,-4.1106,0.0,-4.1108,-4.1093,-4.1093,-4.1093,-4.1093,-4.1093,-4.1093,-4.1093,-4.1093,-4.1059,-4.0994,-4.0994,-4.091,0.0,0.0,0.0,0.0,0.0,-4.0327,-4.0309,-4.0309,-4.0253,-4.0291,-4.0692,-4.1683,-4.2799,-4.3209,-4.4484,-4.5959,-4.6801,-4.7323,-4.7643,-4.7643,-4.7338,-4.6793,-4.5913,-4.5411,-4.5159,-4.5192,-4.5233,-4.5254,-4.5254,-4.5579,-4.6151,-4.6991,-4.8155,-4.9541,-5.1257,-5.2614,-5.3741,-5.4619,-5.5116,-5.5403,-5.5403,-5.5403,-5.5403,-5.5403,-5.5403,-5.5403,-5.5403,-5.5403,-5.5403,-5.5403,-5.5403,-5.5396,-5.5403,-5.5439,-5.548,-5.5551,-5.5185,-5.4383,-5.3183,-5.2731,-5.1856,-5.0712,-5.0712,-5.0712,-5.0712,-5.0712,-5.0712,-5.0712,-5.0712,-5.0712,-5.0712,-5.0712,-4.9606,-4.8105,0.0,0.0,0.0,0.0,0.0,0.0,-4.1112,-4.1169,-4.1191,-4.1191,-4.1132,-4.1091,-4.1108,-4.1099,-4.1091,0.0,0.0,0.0,0.0,0.0,0.0,0.0,0.0,0.0,0.0,0.0,0.0,-4.1098,-4.1098,0.0,0.0,0.0,0.0,0.0,-4.1103,-4.1103,-4.1103,-4.1103,-4.1103,0.0,0.0,-4.1039,0.0,0.0,0.0,0.0,0.0,-4.0392,-4.0339,-4.0306,-4.0299,-4.0472,-4.1466,-4.224,-4.2966,-4.3758,-4.4711,-4.5625,-4.6317,-4.6639,-4.674,-4.6549,-4.6511,-4.6271,-4.5349,-4.5148,-4.5159,-4.5203,-4.5213,-4.5213,-4.5213,-4.5246,-4.5562,-4.6358,-4.7067,-4.8159,-5.0034,-5.1429,-5.2709,-5.3951,-5.4696,0.0,-5.5384,-5.5403,0.0,-5.5403,-5.5403,-5.5403,-5.5403,-5.5403,-5.5403,-5.5403,-5.5403,-5.5403,-5.5403,-5.5409,-5.5432,-5.5485,-5.4756,-5.3966,-5.3164,-5.2288,-5.1471,-5.0712,-5.0712,-5.0712,-5.0712,-5.0712,-5.0712,-5.0712,-5.0712,-5.0712,-5.0712,-5.0712,-4.9606,-4.8105,0.0,0.0,0.0,0.0,0.0,0.0,-4.117,-4.1191,-4.1191,-4.1191,-4.1132,-4.1091,-4.1108,-4.1102,-4.1095,0.0,0.0,0.0,0.0,0.0,0.0,0.0,0.0,0.0,0.0,0.0,0.0,-4.1092,-4.1092,0.0,0.0,0.0,0.0,0.0,0.0,-4.1106,-4.1106,-4.1106,0.0,0.0,0.0,0.0,0.0,0.0,0.0,0.0,0.0,-4.0489,-4.046,-4.0339,-4.0307,-4.0576,-4.2173,-4.2737,-4.2966,-4.3758,-4.5133,-4.6394,-4.6481,-4.7081,-4.7502,-4.6699,-4.6508,-4.6298,-4.5477,-4.5286,-4.5286,-4.5297,-4.5297,-4.5297,-4.5297,-4.5254,-4.5481,-4.6364,-4.656,-4.7495,-4.9946,-5.0436,-5.1429,-5.3817,0.0,0.0,-5.5326,-5.5403,-5.5403,-5.5403,-5.5403,-5.5403,-5.5403,-5.5403,-5.5403,-5.5403,-5.5403,-5.5403,-5.5403,-5.5409,-5.5432,-5.5485,-5.4756,-5.3966,-5.3164,-5.2288,-5.1471,-5.0712,-5.0712,-5.0712,0.0,-5.0712,-5.0712,-5.0712,-5.0712,-5.0712,-5.0712,-5.0712,-4.9606,-4.8105,0.0,0.0,0.0,0.0,0.0,0.0,-4.2674,-4.2266,-4.1914,-4.1914,-4.1484,-4.1132,-4.1108,-4.1105,-4.1101,-4.109,0.0,0.0,0.0,0.0,0.0,0.0,0.0,0.0,0.0,0.0,-4.1103,-4.1103,-4.1103,0.0,0.0,0.0,0.0,0.0,0.0,-4.1109,-4.1109,-4.1109,0.0,0.0,0.0,0.0,0.0,0.0,0.0,0.0,0.0,0.0,-4.1143,-4.0592,-4.0388,-4.064,-4.2279,-4.2805,-4.3063,-4.439,-4.5258,-4.5774,-4.5774,-4.6023,-4.6214,-4.5851,-4.5774,-4.5679,-4.5373,-4.5307,-4.5307,-4.5307,-4.5307,-4.5307,-4.5307,-4.5286,-4.5371,-4.5717,0.0,0.0,-4.8571,-4.9671,-5.1047,-5.3072,-5.3779,0.0,0.0,0.0,-5.5403,-5.5403,-5.5403,-5.5403,-5.5403,-5.5403,-5.5403,-5.5403,-5.5403,-5.5403,-5.5403,-5.5409,-5.5185,-5.4764,-5.3955,-5.3146,-5.2385,-5.1568,-5.0991,-5.0712,-5.0712,-5.0712,0.0,-5.0712,-5.0712,-5.0712,-5.0712,-5.0712,-5.0635,-5.0106,-4.9144,-4.8029,0.0,0.0,0.0,0.0,0.0,-4.3551,-4.3671,-4.3183,-4.2773,-4.2773,-4.2285,-4.1913,-4.1869,-4.1867,-4.1863,-4.187,-4.1402,0.0,0.0,0.0,0.0,0.0,0.0,0.0,0.0,0.0,-4.1617,-4.187,-4.187,-4.187,0.0,0.0,-4.1734,-4.1479,0.0,0.0,0.0,0.0,0.0,0.0,0.0,0.0,0.0,0.0,0.0,0.0,0.0,0.0,0.0,0.0,0.0,-4.0673,-4.2029,-4.2604,-4.313,-4.4801,-4.5307,-4.5307,-4.5307,-4.5307,-4.5307,-4.5307,-4.5307,-4.5307,-4.5307,-4.5307,-4.5307,-4.5307,-4.5307,-4.5307,-4.5307,-4.5307,-4.5307,0.0,0.0,-4.6443,-4.7302,-4.8648,-5.0187,-5.1849,0.0,-5.4065,-5.4925,-5.525,-5.5403,-5.5403,-5.5403,-5.5403,-5.5403,-5.5403,-5.5403,-5.5403,-5.5403,-5.5345,-5.5214,-5.5214,-5.4802,-5.3989,-5.313,-5.2332,-5.1636,-5.0888,-5.0554,-5.0554,-5.0663,-5.0712,0.0,-5.0712,-5.0712,-5.0712,-5.0712,-5.0712,-5.0596,-4.9721,-4.8856,-4.799,0.0,0.0,0.0,0.0,0.0,-4.3551,-4.3671,-4.3691,-4.3691,-4.3691,-4.3671,-4.3669,-4.3665,-4.3679,-4.3672,-4.3666,-4.2105,0.0,0.0,0.0,0.0,0.0,0.0,0.0,0.0,0.0,-4.2806,-4.3666,-4.3666,-4.3666,-4.3666,-4.3666,-4.3216,-4.2396,0.0,0.0,0.0,0.0,0.0,0.0,0.0,0.0,0.0,0.0,0.0,0.0,0.0,0.0,0.0,0.0,0.0,0.0,0.0,-4.2163,-4.313,-4.4801,-4.5307,-4.5307,-4.5307,-4.5307,-4.5307,-4.5307,-4.5307,-4.5307,-4.5307,-4.5307,-4.5307,-4.5307,-4.5307,-4.5307,-4.5307,-4.5307,-4.5307,-4.5307,-4.5307,0.0,-4.6405,-4.7272,-4.8437,0.0,0.0,-5.3148,-5.4027,-5.4887,-5.5403,-5.5403,-5.5403,0.0,-5.5403,-5.5403,-5.5403,-5.5403,-5.5403,-5.52,-5.4806,-5.4806,-5.4296,-5.3308,-5.2428,-5.1687,-5.109,-5.048,-5.0206,-5.0218,-5.0554,-5.0712,0.0,-5.0712,-5.0712,-5.0712,-5.0712,-5.0712,-5.0596,-4.9721,-4.8856,-4.799,0.0,0.0,0.0,0.0,0.0,0.0,-4.5468,-4.4961,-4.459,-4.459,-4.4062,-4.3708,-4.3704,-4.3698,-4.3692,-4.3705,-4.3198,0.0,0.0,0.0,0.0,0.0,0.0,0.0,0.0,-4.3294,-4.3411,-4.3705,-4.3705,-4.3705,-4.3705,-4.3705,-4.3548,-4.3294,-4.3294,-4.3138,0.0,0.0,0.0,0.0,0.0,0.0,0.0,0.0,0.0,0.0,0.0,0.0,0.0,0.0,0.0,0.0,0.0,0.0,0.0,-4.3931,-4.4838,-4.5307,-4.5307,-4.5307,-4.5307,-4.5307,-4.5307,-4.5307,-4.5307,-4.5307,-4.5307,-4.5307,-4.5307,-4.5307,-4.5307,-4.5307,-4.5307,-4.5307,-4.5307,0.0,0.0,0.0,0.0,-5.0111,-5.2308,-5.4027,0.0,0.0,-5.5403,-5.5403,-5.5403,-5.5403,-5.5403,-5.5403,-5.5403,-5.5403,-5.5403,-5.4947,-5.4002,-5.3983,-5.3145,-5.1518,-5.1239,-5.0719,-5.0005,-4.9805,-4.9866,-5.0147,-5.0249,-5.0462,-5.0712,-5.0712,-5.0712,-5.0712,-5.0712,-5.0346,-4.9702,-4.8836,-4.799,-4.7163,0.0,0.0,0.0,0.0,0.0,0.0,-4.6289,-4.584,-4.5488,-4.5488,-4.5018,-4.4685,-4.4681,-4.4676,-4.4689,-4.4686,-4.4683,0.0,0.0,0.0,0.0,0.0,0.0,0.0,-4.4172,-4.4192,-4.4348,-4.468,-4.468,-4.468,-4.468,-4.468,-4.4504,-4.4192,-4.4192,-4.4016,0.0,0.0,0.0,0.0,0.0,0.0,-4.5411,0.0,0.0,0.0,0.0,0.0,0.0,0.0,0.0,0.0,0.0,0.0,0.0,0.0,-4.415,-4.4876,-4.5201,-4.5307,-4.5307,-4.5307,-4.5307,-4.5307,-4.5307,-4.5307,-4.5307,-4.5307,-4.5307,-4.5307,-4.5307,-4.5307,-4.5307,-4.5307,-4.5307,0.0,0.0,0.0,0.0,-5.055,0.0,0.0,0.0,-5.5212,-5.5403,-5.5403,-5.5403,-5.5403,-5.5403,-5.5097,-5.4906,-5.4906,-5.4796,-5.4301,-5.3407,-5.2963,-5.1925,-5.0318,-5.0318,-4.9919,-4.9158,-4.9283,-4.9551,-4.9917,-5.0056,-5.0336,0.0,-5.0712,-5.0712,-5.0673,-5.0346,-4.9875,-4.926,-4.8086,-4.7336,-4.6778,0.0,0.0,0.0,0.0,0.0,0.0,0.0,-4.6308,-4.6308,-4.6307,-4.6307,-4.6306,-4.6302,-4.6296,-4.6293,-4.6293,-4.6305,0.0,0.0,0.0,0.0,0.0,0.0,0.0,-4.5068,-4.5088,-4.55,-4.63,-4.63,-4.63,-4.63,-4.63,-4.587,-4.5088,-4.5088,-4.4641,0.0,0.0,0.0,0.0,-4.5968,-4.6216,0.0,0.0,0.0,0.0,0.0,0.0,0.0,0.0,0.0,0.0,0.0,0.0,0.0,0.0,0.0,0.0,0.0,-4.5239,-4.5307,-4.5307,-4.5307,-4.5307,-4.5307,-4.5297,0.0,-4.5297,-4.5297,-4.5286,-4.5286,-4.5286,-4.5286,-4.5286,-4.5286,0.0,0.0,-4.6748,0.0,0.0,-5.2308,0.0,-5.4008,-5.4887,-5.5403,-5.5403,-5.5403,-5.5365,-5.5307,-5.4543,-5.4065,-5.4008,-5.3626,-5.3282,-5.2954,-5.1815,-5.0713,-4.9656,-4.9599,-4.9232,-4.8587,-4.8903,-4.924,0.0,-4.9905,-5.0283,-5.0663,-5.0683,-5.0654,-5.0539,-4.9721,-4.9336,-4.9029,-4.7471,-4.6846,-4.6701,0.0,0.0,0.0,0.0,0.0,0.0,0.0,0.0,0.0,0.0,-4.6308,-4.6306,-4.6302,-4.6296,-4.6291,0.0,0.0,0.0,0.0,0.0,0.0,0.0,0.0,0.0,-4.5987,-4.5987,-4.6085,-4.63,-4.63,-4.63,-4.63,-4.63,-4.6183,-4.5987,-4.5987,-4.587,0.0,0.0,0.0,0.0,-4.6222,-4.6216,0.0,0.0,0.0,0.0,-4.5684,-4.4955,0.0,0.0,0.0,0.0,0.0,0.0,0.0,0.0,-4.2412,-4.3271,-4.4083,0.0,-4.5307,-4.5307,-4.5307,-4.5307,0.0,-4.5265,-4.5213,-4.5213,-4.5181,-4.5148,-4.5148,-4.5148,-4.5148,-4.5148,-4.5148,-4.517,-4.5213,-4.6716,0.0,-5.1223,-5.2283,-5.3117,-5.3945,-5.4861,-5.5403,-5.5403,-5.5403,-5.5116,-5.4448,-5.4218,-5.3798,-5.3129,-5.2186,-5.1646,-5.1561,-5.1033,-5.017,-4.9008,-4.8734,-4.8528,-4.8382,-4.8458,-4.8746,-4.9224,-4.9522,-4.9911,-5.0347,-5.0585,-5.0308,-4.9683,-4.9471,-4.8625,-4.7451,-4.7038,-4.649,-4.5883,0.0,0.0,0.0,0.0,0.0,0.0,0.0,0.0,0.0,0.0,-4.6307,-4.6306,-4.6302,-4.6296,-4.6291,0.0,0.0,0.0,0.0,0.0,0.0,0.0,0.0,-4.63,-4.63,-4.63,-4.63,-4.63,-4.63,-4.63,-4.63,-4.63,-4.63,-4.63,-4.63,-4.63,0.0,0.0,0.0,-4.63,-4.63,0.0,0.0,0.0,0.0,0.0,-4.5167,-4.4451,0.0,-4.2753,-4.1857,-4.102,0.0,0.0,0.0,0.0,-4.182,-4.2393,-4.3233,-4.436,-4.5307,-4.5307,-4.5307,-4.5297,-4.5265,-4.5243,-4.5192,-4.5159,-4.5125,-4.5103,-4.5103,-4.5103,-4.5103,-4.5103,-4.5103,0.0,0.0,0.0,-4.8491,-5.0645,-5.1674,-5.2386,0.0,-5.3677,-5.4218,-5.4218,-5.4218,-5.4008,-5.3531,-5.3148,-5.2747,-5.227,-5.1256,-5.0776,-5.0868,-5.0137,-4.9364,-4.8587,-4.8383,-4.8306,-4.8306,-4.8306,-4.8587,-4.9102,-4.9375,-4.9773,-5.018,-5.0132,-4.9817,-4.9317,-4.8548,-4.7702,-4.6846,-4.6451,-4.599,-4.5594,0.0,0.0,0.0,0.0,0.0,0.0,0.0,0.0,0.0,0.0,0.0,0.0,0.0,0.0,0.0,0.0,0.0,0.0,0.0,0.0,0.0,0.0,-4.63,-4.63,-4.63,-4.63,-4.63,-4.63,-4.63,-4.63,-4.63,-4.63,-4.63,-4.63,-4.63,-4.63,-4.63,-4.63,-4.63,-4.63,-4.63,0.0,0.0,0.0,0.0,0.0,0.0,0.0,0.0,-4.2016,-4.1121,-4.0379,-4.0316,0.0,0.0,0.0,0.0,0.0,-4.2393,-4.373,-4.4923,-4.5057,-4.5191,-4.5246,-4.5192,-4.5181,-4.5159,-4.5103,-4.508,-4.508,-4.508,-4.508,-4.508,-4.508,0.0,0.0,-4.7355,-4.7584,-4.8248,-4.9985,-5.0969,0.0,-5.1577,-5.2327,-5.2805,-5.2805,-5.2805,-5.2747,-5.2614,-5.1964,-5.1532,-5.1398,-5.0684,-5.0355,-5.0481,-4.9403,-4.8729,-4.8439,-4.8345,-4.8306,-4.8306,-4.8306,-4.8569,-4.9055,0.0,0.0,-4.9911,-4.9546,-4.924,-4.8875,-4.7451,-4.6817,-4.6605,-4.5874,-4.5594,-4.5594,0.0,0.0,0.0,0.0,0.0,0.0,0.0,0.0,0.0,0.0,0.0,0.0,0.0,0.0,0.0,0.0,0.0,0.0,0.0,0.0,0.0,-4.63,-4.63,-4.63,-4.63,-4.63,-4.63,-4.63,-4.63,-4.63,-4.63,-4.63,-4.63,-4.63,-4.63,-4.63,-4.63,-4.63,-4.63,-4.63,-4.63,0.0,0.0,0.0,0.0,0.0,0.0,0.0,0.0,-4.2016,-4.1121,-4.0379,-4.0316,0.0,0.0,0.0,0.0,0.0,-4.1648,-4.2382,-4.3268,-4.3944,-4.4625,-4.5125,-4.5125,-4.5061,-4.5033,-4.5033,-4.4967,-4.4919,-4.4919,-4.4919,-4.4919,-4.4919,0.0,-4.5592,0.0,0.0,-4.8224,-4.9911,0.0,-5.1497,-5.1497,-5.2303,-5.2805,-5.2805,-5.2805,-5.2499,-5.183,-5.1677,-5.1257,-5.0531,-5.0378,-5.0177,-4.9938,-4.945,-4.9209,-4.9145,-4.8568,-4.8306,-4.8306,-4.8306,-4.8439,-4.8713,0.0,-4.9225,-4.8783,-4.9224,-4.8567,-4.7259,-4.7,-4.6451,-4.5787,-4.5652,-4.5594,-4.5594,0.0,0.0,0.0,0.0,0.0,0.0,0.0,0.0,0.0,0.0,0.0,0.0,0.0,0.0,0.0,0.0,0.0,0.0,0.0,0.0,-4.63,-4.63,-4.63,-4.63,-4.63,-4.63,-4.63,-4.63,-4.63,-4.63,-4.63,-4.63,-4.63,-4.63,-4.63,-4.63,-4.63,-4.63,-4.6269,-4.6184,0.0,0.0,0.0,0.0,0.0,0.0,0.0,0.0,0.0,0.0,-4.0731,-4.0398,-4.0327,0.0,0.0,0.0,0.0,0.0,-4.0817,-4.1359,-4.2146,-4.2952,-4.3808,-4.457,-4.4973,-4.5014,-4.4979,-4.4943,-4.4919,-4.4895,-4.4895,-4.4895,-4.4895,-4.4895,0.0,-4.5532,-4.722,-4.7473,-4.8125,0.0,0.0,-5.071,-5.0736,-5.1134,-5.14,-5.14,-5.1436,-5.1295,-5.0932,-5.0913,-5.0722,-5.0302,-5.0302,-5.0224,-5.0063,-4.9556,-4.9224,-4.9015,-4.8532,-4.8306,-4.8306,-4.8306,-4.8143,-4.7941,0.0,-4.8414,-4.7806,-4.7977,-4.7605,-4.6846,-4.6374,-4.5951,-4.5594,-4.5594,-4.5594,-4.5594,0.0,0.0,0.0,0.0,0.0,0.0,0.0,0.0,0.0,0.0,0.0,0.0,0.0,0.0,0.0,0.0,0.0,0.0,0.0,-4.63,-4.63,-4.63,-4.63,-4.63,-4.63,-4.63,-4.63,-4.63,-4.63,-4.63,-4.63,-4.63,-4.63,-4.63,-4.63,-4.63,-4.63,-4.6271,-4.6184,-4.6098,0.0,0.0,0.0,0.0,0.0,0.0,0.0,0.0,0.0,0.0,0.0,0.0,0.0,0.0,0.0,-4.0301,-4.0291,-4.0263,-4.0206,-4.0585,-4.1178,-4.2001,-4.3038,-4.4049,-4.4789,-4.4986,-4.4955,-4.4907,-4.4895,-4.4895,-4.4895,-4.4895,0.0,-4.4895,-4.4895,-4.5483,-4.715,-4.7397,-4.8048,-4.9796,-5.0005,-5.0031,-5.0095,-5.0158,-5.0182,-5.0182,-5.0243,-5.0278,-5.0278,-5.029,-5.0206,-5.0015,-5.0015,-4.992,-4.9729,-4.9134,-4.8846,-4.8917,-4.8495,-4.8214,-4.8012,-4.8012,-4.7647,-4.7039,-4.7653,-4.7531,-4.6896,-4.6903,-4.6751,-4.6436,-4.5773,-4.5504,-4.5513,-4.5577,-4.5594,-4.5575,0.0,0.0,0.0,0.0,0.0,0.0,0.0,0.0,0.0,0.0,0.0,0.0,0.0,0.0,0.0,0.0,0.0,0.0,0.0,-4.63,-4.63,-4.63,-4.63,-4.63,-4.63,-4.63,-4.63,-4.63,-4.63,-4.63,-4.63,-4.63,-4.63,-4.63,-4.63,-4.63,-4.6298,-4.6173,-4.6105,-4.6095,-4.5954,0.0,0.0,0.0,0.0,0.0,0.0,0.0,0.0,0.0,0.0,0.0,0.0,0.0,-4.0301,-4.0301,-4.0253,-4.0206,-4.0196,-4.0146,-4.03,-4.1174,-4.2553,-4.3921,-4.4718,-4.4907,-4.4914,-4.4895,-4.4895,-4.4895,0.0,-4.4895,-4.4895,-4.4895,-4.4895,-4.5483,-4.715,0.0,-4.8048,-4.9796,-5.0005,-5.0031,-5.0095,-5.0108,-5.0108,-5.0108,-5.0182,-5.02,-5.02,-5.0267,-4.9958,-4.9224,-4.9186,-4.8793,-4.7979,-4.7631,-4.806,-4.9271,-4.8623,-4.7901,-4.7186,-4.7186,-4.682,-4.6209,-4.6825,-4.6663,-4.6051,-4.6654,-4.6283,-4.5317,-4.5241,-4.5232,-4.5253,-4.5504,-4.5594,-4.5479,0.0,0.0,0.0,0.0,0.0,0.0,0.0,0.0,0.0,0.0,0.0,0.0,0.0,0.0,0.0,0.0,0.0,0.0,0.0,-4.63,-4.63,-4.63,-4.63,-4.63,-4.63,-4.63,-4.63,-4.63,-4.63,-4.63,-4.63,-4.63,-4.63,-4.63,-4.6211,-4.6178,-4.6173,-4.6041,-4.5944,-4.5914,-4.5866,-4.5761,0.0,0.0,0.0,0.0,0.0,0.0,0.0,0.0,-4.0316,-4.0298,-4.0301,-4.0301,-4.0301,-4.0301,-4.0253,-4.0186,-4.0157,-4.0067,-4.0195,-4.1035,-4.1704,-4.2507,-4.3853,-4.4535,-4.4895,-4.4895,-4.4895,-4.4895,0.0,0.0,-4.4895,-4.4895,-4.4895,-4.5312,-4.6487,-4.7074,-4.7845,-4.9047,-4.9629,-4.9743,-4.9276,-4.9258,-4.9074,-4.8523,-4.8559,-4.8588,-4.8643,-4.8666,-4.8556,-4.8296,-4.8296,-4.8143,-4.7788,-4.7472,-4.7464,-4.78,-4.7347,-4.6854,-4.6361,-4.6361,-4.5938,-4.5257,-4.5777,-4.5674,-4.5129,-4.5636,-4.5579,-4.5201,-4.5201,-4.5302,-4.539,-4.4944,-4.4778,-4.4662,0.0,0.0,0.0,0.0,0.0,0.0,0.0,0.0,0.0,0.0,0.0,0.0,0.0,0.0,0.0,0.0,0.0,0.0,-4.63,-4.63,-4.63,-4.63,-4.63,-4.63,-4.63,-4.63,-4.63,-4.63,-4.63,-4.63,-4.63,-4.63,-4.6275,-4.624,-4.6141,-4.6087,-4.6037,-4.5919,-4.5835,-4.58,-4.5749,-4.5684,0.0,0.0,0.0,0.0,0.0,0.0,0.0,0.0,-4.0298,-4.0299,-4.0301,-4.0301,-4.0301,-4.0301,-4.0244,-4.0157,-4.0117,-4.0036,-4.0106,-4.065,-4.0999,-4.1503,-4.2659,-4.3758,-4.4516,-4.4516,-4.4516,-4.4592,-4.4857,0.0,0.0,0.0,-4.4895,-4.5198,-4.607,-4.6657,-4.734,-4.8187,-4.8793,-4.8888,-4.8338,-4.8339,-4.8118,-4.7511,-4.7535,-4.7608,-4.7655,-4.7697,-4.7598,-4.7406,-4.7301,-4.7186,-4.7016,-4.6581,-4.6288,-4.6125,-4.5783,-4.5608,-4.5516,-4.5516,-4.5076,-4.4358,-4.4817,-4.4795,-4.4506,-4.4908,-4.5011,-4.4954,-4.5041,-4.5019,-4.4892,-4.4465,-4.4143,-4.3797,0.0,0.0,0.0,0.0,0.0,0.0,0.0,0.0,-4.6306,-4.6302,-4.6296,0.0,0.0,0.0,0.0,0.0,0.0,0.0,-4.63,-4.63,-4.63,-4.63,-4.63,-4.63,-4.63,-4.63,-4.63,-4.63,-4.63,-4.63,-4.63,-4.63,-4.6238,-4.6098,-4.6098,-4.6013,-4.5894,-4.5822,-4.58,-4.5793,-4.5643,-4.5594,-4.5594,0.0,0.0,0.0,0.0,0.0,0.0,0.0,-4.029,-4.0301,-4.0301,-4.0301,-4.0301,-4.0301,-4.0186,-4.0106,-4.0106,-4.0005,-3.99,-3.99,-4.0544,-4.1188,-4.1188,-4.2488,-4.3682,-4.3701,-4.3701,-4.3947,-4.4743,-4.4895,0.0,-4.4895,-4.4895,-4.5198,-4.607,-4.6184,-4.6487,-4.7283,-4.7397,-4.7397,-4.7378,-4.7378,-4.7378,-4.7378,-4.7441,-4.7504,-4.7565,-4.7636,-4.7312,-4.6508,-4.6235,-4.5824,-4.5297,-4.4695,-4.4402,-4.4383,-4.4121,-4.4239,-4.4691,-4.4691,-4.425,-4.3513,-4.398,-4.4192,-4.4236,-4.4624,-4.4637,-4.4425,-4.467,-4.4258,-4.3566,-4.4077,-4.3778,-4.297,0.0,0.0,0.0,0.0,0.0,0.0,0.0,0.0,-4.6302,-4.6296,-4.6309,0.0,0.0,0.0,0.0,0.0,0.0,0.0,-4.63,-4.63,-4.63,-4.63,-4.63,-4.63,-4.63,-4.63,-4.63,-4.63,-4.63,-4.6247,-4.617,-4.617,-4.6095,-4.5964,-4.5906,-4.5866,-4.5822,-4.5704,-4.5651,-4.5643,-4.5558,-4.5522,-4.5522,0.0,0.0,0.0,0.0,0.0,0.0,0.0,0.0,0.0,-4.0301,-4.0166,-4.0067,-4.0244,-4.0098,-3.9922,-4.0057,-3.99,-3.9724,-3.9867,-3.9947,-4.0217,-4.1022,-4.2033,-4.2962,-4.3568,-4.4156,-4.463,-4.4857,-4.4895,0.0,-4.4895,-4.4895,-4.499,-4.5255,-4.5805,-4.6278,-4.6525,-4.7055,-4.7169,-4.6601,-4.6563,-4.6297,-4.5691,-4.5659,-4.5695,-4.5775,-4.5833,-4.5707,-4.5323,-4.5229,-4.5016,-4.4669,-4.4498,-4.4303,-4.4121,-4.4033,-4.396,-4.3864,-4.3864,-4.3718,-4.3515,-4.3697,-4.3936,-4.4221,-4.4443,-4.422,-4.3775,-4.3849,-4.351,-4.2905,-4.2646,-4.2393,-4.2066,0.0,0.0,0.0,0.0,0.0,0.0,0.0,0.0,-4.622,-4.6214,-4.6167,-4.6141,0.0,0.0,0.0,0.0,0.0,0.0,-4.63,-4.63,-4.63,-4.63,-4.63,-4.63,-4.63,-4.63,-4.6273,-4.6216,-4.6216,-4.6178,-4.6098,-4.6049,-4.5959,-4.5865,-4.5822,-4.5771,-4.5704,-4.5601,-4.5568,-4.554,-4.5495,-4.5448,-4.5467,0.0,0.0,0.0,0.0,0.0,0.0,0.0,0.0,0.0,-4.0176,-4.0027,-3.9924,-4.0098,-3.9881,-3.9647,-3.987,-3.967,-3.9389,-3.9501,-3.9414,-3.9482,-4.0171,-4.1402,0.0,0.0,-4.4099,-4.4516,-4.4838,-4.4895,0.0,-4.4895,-4.4895,-4.4895,-4.4895,-4.535,-4.5672,-4.5672,-4.6108,-4.6222,-4.5729,-4.5672,-4.5464,-4.4933,-4.4895,-4.4919,-4.501,-4.4912,-4.4833,-4.4796,-4.4538,-4.4392,-4.4397,-4.4173,-4.4026,-4.4005,-4.3878,-4.3699,-4.3515,-4.3515,-4.3515,-4.3515,-4.3634,-4.3647,-4.358,-4.371,-4.3353,-4.2726,-4.2857,-4.2564,-4.2025,-4.1667,-4.1377,-4.1091,0.0,0.0,-4.6308,-4.6289,0.0,0.0,0.0,0.0,-4.6076,-4.6076,-4.5977,-4.5899,0.0,0.0,0.0,0.0,0.0,-4.6271,-4.6275,-4.6275,-4.6296,-4.63,-4.6296,-4.6275,-4.6275,-4.6273,-4.6209,-4.6091,-4.6098,-4.6091,-4.6076,-4.5954,-4.584,-4.5786,-4.5786,-4.5704,-4.5586,-4.5541,-4.5495,-4.5485,-4.5419,-4.54,-4.54,-4.539,0.0,0.0,0.0,0.0,0.0,0.0,0.0,0.0,-3.9986,-3.987,-3.9848,-3.9935,-3.9644,-3.9337,-3.9674,-3.9376,-3.898,-3.8994,-3.8994,-3.8994,-3.8994,-4.0672,-4.2449,-4.3268,0.0,-4.3867,-4.4554,-4.47,-4.4738,-4.4687,-4.4631,-4.4625,-4.4726,-4.4745,-4.4763,-4.4839,-4.4782,-4.4745,-4.4745,-4.4656,-4.4587,-4.4587,-4.4587,-4.4612,-4.4673,-4.4404,-4.4312,-4.4479,-4.3949,-4.3847,-4.4205,-4.374,-4.3649,-4.3958,-4.3649,-4.346,-4.3404,-4.3478,-4.346,-4.3404,-4.3592,-4.3215,-4.2456,-4.261,-4.2161,-4.1408,-4.1747,-4.1506,-4.0957,-4.0972,-4.0648,-4.0213,0.0,0.0,-4.6288,-4.6237,0.0,0.0,0.0,0.0,0.0,0.0,0.0,0.0,0.0,0.0,0.0,0.0,-4.5978,-4.6037,-4.6138,-4.6141,-4.6184,-4.63,-4.6206,-4.6141,-4.6141,-4.6045,-4.5978,-4.5935,-4.6049,-4.6011,-4.5854,-4.5848,-4.5752,-4.5635,-4.5635,-4.5612,-4.5513,-4.5504,-4.5476,-4.5419,-4.5409,-4.5399,-4.5399,-4.5339,-4.4286,0.0,0.0,0.0,0.0,0.0,0.0,0.0,-3.9914,-3.9623,-3.9442,-4.0272,-3.9791,-3.9171,-4.0072,-3.957,-3.8799,-3.8952,-3.8994,-3.8994,-3.8994,-3.9918,-4.0865,-4.1255,-4.2385,-4.324,-4.2984,-4.3278,-4.3428,-4.3002,-4.2547,-4.2539,-4.3437,-4.357,-4.3796,-4.4423,-4.3947,-4.357,-4.357,-4.2762,-4.2226,-4.2226,-4.2226,-4.224,-4.2254,-4.2235,-4.2155,-4.1976,-4.2542,-4.2815,-4.2675,-4.3218,-4.3549,-4.3599,-4.3531,-4.3167,-4.258,-4.3221,-4.3149,-4.2561,-4.266,-4.22,-4.1434,-4.1672,-4.1233,-4.0444,-4.0828,-4.0516,-3.9856,-4.0015,-4.0134,-4.0205,0.0,0.0,0.0,0.0,0.0,0.0,0.0,0.0,0.0,0.0,0.0,0.0,0.0,0.0,0.0,0.0,-4.5892,-4.5925,-4.5996,-4.6,-4.6041,-4.6102,-4.6045,-4.6,-4.6,-4.593,-4.5872,-4.5853,-4.5917,-4.5908,-4.5807,-4.5727,-4.566,-4.5594,-4.5594,-4.5568,-4.5495,-4.5476,-4.5438,-4.54,-4.5369,-4.5348,-4.5348,-4.5317,-4.4265,-4.2794,-4.2794,0.0,0.0,0.0,0.0,0.0,0.0,0.0,-3.9277,-4.0234,-3.9653,-3.8925,-3.9973,-3.9401,-3.8523,-3.8597,-3.8612,-3.8612,-3.8612,-3.8958,-3.9378,-3.9649,-4.1129,-4.2309,-4.2012,-4.22,-4.229,-4.2012,-4.1703,-4.1711,-4.2301,-4.2385,-4.2534,-4.2964,-4.2628,-4.2399,-4.2399,-4.1847,-4.15,-4.15,-4.15,-4.15,-4.15,-4.1379,-4.128,-4.1199,-4.1523,-4.1664,-4.1637,-4.209,-4.2326,-4.2359,-4.2359,-4.2139,-4.1754,-4.2158,-4.2121,-4.1735,-4.1797,-4.134,-4.054,-4.0791,-4.0337,-3.9549,-3.9825,-3.9763,-3.9514,-3.9458,-3.9625,-3.9886,0.0,0.0,0.0,0.0,0.0,0.0,0.0,0.0,0.0,0.0,0.0,0.0,0.0,0.0,-4.5764,0.0,0.0,0.0,-4.5872,-4.5889,-4.5899,-4.5899,-4.5883,-4.5872,-4.5872,-4.585,-4.5828,-4.5764,-4.5764,-4.5764,-4.5764,-4.5643,-4.5594,-4.5594,-4.5594,-4.5559,-4.5485,-4.5419,-4.539,-4.5388,-4.5317,-4.5307,-4.5307,-4.5307,-4.4341,-4.2975,-4.2792,-4.1741,-4.0377,-3.997,0.0,0.0,0.0,0.0,-3.9198,-3.9981,-3.9411,-3.8721,-3.9694,-3.9145,-3.829,-3.8225,-3.8209,-3.8209,-3.8209,-3.8209,-3.8257,-3.8478,-3.997,-4.1185,-4.108,-4.1144,-4.1185,-4.108,-4.0989,-4.1,-4.1174,-4.1226,-4.1263,-4.1393,-4.1301,-4.1226,-4.1226,-4.1052,-4.093,-4.093,-4.093,-4.093,-4.093,-4.0672,-4.0581,-4.0682,-4.0568,-4.0574,-4.0745,-4.0906,-4.1031,-4.1079,-4.0948,-4.0875,-4.0875,-4.0747,-4.0747,-4.091,-4.0937,-4.0478,-3.9696,-3.9874,-3.9545,-3.8906,-3.9031,-3.9237,-3.9395,-3.9178,-3.9272,-3.9532,0.0,0.0,0.0,0.0,0.0,0.0,0.0,0.0,0.0,0.0,-4.5612,-4.5594,0.0,-4.5612,-4.5629,-4.5629,-4.5635,-4.5688,-4.5808,0.0,0.0,-4.5899,-4.5841,-4.5815,-4.5815,-4.5704,-4.5635,-4.5629,-4.5629,-4.5629,-4.5629,-4.5603,-4.5594,-4.5594,-4.5594,-4.5522,-4.5419,-4.541,-4.537,-4.5317,-4.5307,-4.5307,-4.5307,-4.5307,-4.4685,-4.3718,-4.2794,-4.1824,-4.0843,-3.9873,-3.9401,0.0,0.0,0.0,-3.8915,-3.9721,-3.9261,-3.8693,-3.9585,-3.909,-3.829,-3.8225,-3.8209,-3.8209,0.0,0.0,-3.8209,0.0,-3.9244,-3.9958,-3.943,-3.9753,-3.9939,-3.9412,-3.894,-3.8966,-3.9895,-4.0086,-4.036,-4.0985,-4.0507,-4.0102,-4.0102,-3.9228,-3.8631,-3.8631,-3.8631,-3.8631,-3.8631,-3.8599,-3.8583,-3.8601,-3.9288,-3.9667,-3.9703,-4.0565,-4.0996,-4.1013,-4.0364,-4.0065,-4.0029,-3.935,-3.9405,-4.0047,-4.0063,-3.9622,-3.8872,-3.8958,-3.8958,-3.891,-3.8979,-3.9059,-3.9156,-3.9115,-3.9272,-3.9532,0.0,0.0,0.0,0.0,0.0,0.0,0.0,0.0,0.0,0.0,0.0,-4.5594,0.0,-4.5594,-4.5594,-4.5594,-4.5594,-4.5629,-4.5684,-4.5723,-4.574,-4.574,-4.5692,-4.5692,-4.5692,-4.5637,-4.5594,-4.5594,-4.5594,-4.5594,-4.5594,-4.5594,-4.5594,-4.5594,-4.5594,-4.5541,-4.54,-4.54,-4.5361,-4.5307,-4.5307,-4.5307,-4.5307,-4.5307,-4.4762,-4.3918,-4.3301,-4.2234,-4.0984,-4.0214,-3.9564,-3.9073,-3.8921,0.0,0.0,0.0,-3.9297,-3.8682,-3.9001,-3.8692,-3.829,-3.8257,-3.8242,-3.8209,-3.8209,-3.8209,-3.8209,-3.8209,-3.8596,-3.8871,-3.8611,-3.8755,-3.8853,-3.8593,-3.8352,-3.8368,-3.8826,-3.8931,-3.9075,-3.9385,-3.9148,-3.8948,-3.8948,-3.849,-3.8209,-3.8209,-3.8209,-3.8209,-3.8209,-3.8209,-3.8209,-3.8209,-3.8569,-3.88,-3.8816,-3.9294,-3.9591,-3.9724,-3.9389,-3.9239,-3.9221,-3.8854,-3.8891,-3.9239,-3.9239,-3.9038,-3.8707,-3.8762,-3.8851,-3.891,-3.8964,-3.905,-3.9101,-3.9101,-3.9165,-3.9337,0.0,0.0,0.0,0.0,0.0,0.0,0.0,0.0,0.0,0.0,0.0,0.0,0.0,0.0,0.0,0.0,-4.5594,-4.5594,-4.5594,-4.5594,-4.5594,-4.5594,-4.5594,-4.5594,-4.5594,-4.5594,-4.5594,-4.5594,-4.5594,-4.5594,-4.5594,-4.5594,-4.5594,-4.5594,-4.5594,-4.5541,-4.54,-4.54,-4.5361,-4.5297,-4.5213,-4.5216,-4.5267,-4.5129,-4.4717,-4.4138,-4.356,-4.258,-4.1368,-4.0491,-3.9804,-3.9223,-3.8839,-3.8707,0.0,0.0,0.0,-3.838,-3.8232,-3.7977,-3.7774,-3.7944,-3.7949,-3.7972,0.0,0.0,-3.8209,0.0,-3.8209,-3.8209,-3.8209,-3.8209,-3.8209,-3.8209,-3.8209,-3.8209,-3.8209,-3.8209,-3.8209,-3.8209,-3.8209,-3.8209,-3.8209,-3.8209,-3.8209,-3.8209,-3.8209,-3.8209,-3.8209,-3.8209,-3.8209,-3.8209,-3.8209,-3.8207,-3.8274,-3.8352,-3.8481,-3.8658,-3.8673,-3.8707,-3.8707,-3.8707,-3.8707,-3.8707,-3.8707,-3.8707,-3.8707,-3.8747,-3.8822,-3.8892,-3.8968,-3.9036,-3.9101,-3.9101,-3.9101,-3.9151,0.0,0.0,0.0,0.0,0.0,0.0,0.0,0.0,0.0,0.0,0.0,0.0,-4.5594,-4.5594,-4.5594,-4.5594,-4.5594,-4.5594,-4.5594,-4.5594,-4.5594,-4.5594,-4.5594,0.0,-4.5594,-4.5594,-4.5594,-4.5594,-4.5594,-4.5594,-4.5594,-4.5594,-4.5594,-4.5594,-4.5594,-4.5541,-4.54,-4.54,-4.5361,-4.5267,-4.4957,-4.5023,-4.5235,-4.4656,-4.458,-4.4581,-4.3226,-4.2687,-4.2329,-4.0517,-3.9895,-3.973,-3.8927,-3.8707,-3.8707,0.0,0.0,0.0,-3.7409,-3.6793,-3.6379,-3.701,-3.7162,-3.7346,0.0,0.0,-3.8209,-3.8209,-3.8209,-3.8209,-3.8209,-3.8209,-3.8209,-3.8209,-3.8209,-3.8209,-3.8209,-3.8209,-3.8209,-3.8209,-3.8209,-3.8209,-3.8209,-3.8209,-3.8209,-3.8209,-3.8209,-3.8209,-3.8209,-3.8209,-3.8209,-3.8209,-3.8209,-3.8209,-3.8209,-3.832,-3.843,-3.851,-3.8643,-3.8707,-3.8707,-3.8707,-3.8707,-3.8707,-3.8707,-3.8707,-3.8707,-3.8707,-3.878,-3.891,-3.8892,-3.8993,-3.9101,-3.9101,-3.9101,-3.9142,0.0,0.0,0.0,0.0,0.0,0.0,0.0,0.0,0.0,0.0,0.0,0.0,0.0,-4.5594,-4.5594,-4.5594,-4.5594,-4.5594,-4.5594,-4.5594,-4.5594,-4.5594,-4.5594,-4.5594,-4.5594,-4.5594,-4.5594,-4.5594,-4.5594,-4.5594,-4.5594,-4.5594,-4.5594,-4.5594,-4.5594,-4.5541,-4.54,-4.54,-4.5241,-4.4969,-4.4856,-4.477,-4.4695,-4.4465,-4.4452,-4.4455,-4.3782,-4.3166,-4.2489,-4.113,-4.0322,-3.9753,-3.8946,-3.8707,-3.8707,-3.8707,-3.8505,-3.8157,-3.7576,-3.7149,-3.6796,-3.6532,-3.6404,-3.6529,-3.733,-3.7462,-3.7575,-3.81,-3.8209,-3.8209,-3.8209,-3.8209,-3.8209,-3.8209,-3.8209,-3.8209,-3.8209,-3.8209,-3.8209,-3.8209,-3.8209,-3.8209,-3.8209,-3.8209,-3.8209,-3.8209,-3.8209,-3.8209,-3.8209,-3.8209,-3.8209,-3.8209,-3.8209,-3.8225,-3.8257,-3.8305,-3.8385,-3.851,-3.8559,-3.8624,-3.8707,-3.8707,-3.8707,-3.8707,-3.8707,-3.8707,-3.8707,-3.8707,-3.878,-3.8892,-3.8902,-3.897,-3.9101,-3.9101,-3.9101,-3.9142,0.0,0.0,0.0,0.0,0.0,-4.5594,-4.5594,-4.5594,-4.5594,-4.5594,0.0,0.0,0.0,0.0,-4.5594,-4.5594,-4.5325,-4.5287,-4.5575,-4.5325,-4.5287,-4.5594,-4.5594,-4.5594,-4.5594,-4.5306,-4.5306,-4.5594,-4.5306,-4.5306,-4.5594,-4.5594,-4.5594,-4.5605,-4.5504,-4.54,-4.5282,-4.5282,-4.5041,-4.4663,-4.4578,-4.4484,-4.4388,-4.4188,-4.4173,-4.4236,-4.3939,-4.3458,-4.2815,-4.1836,-4.0983,-4.0157,-3.9368,-3.8927,-3.8707,-3.8707,-3.8505,-3.812,-3.7327,-3.6809,-3.6384,-3.5839,-3.5641,-3.5754,-3.6508,-3.666,-3.6775,-3.7303,-3.7395,-3.7395,-3.7395,-3.7629,-3.7901,-3.8172,-3.8209,-3.8209,-3.8209,-3.8209,-3.8209,-3.8209,-3.8209,-3.814,-3.7967,-3.7967,-3.7915,-3.7774,-3.7757,0.0,-3.7757,-3.7757,-3.7757,-3.7757,-3.7757,-3.7845,-3.8038,-3.8071,-3.8206,-3.8419,-3.8481,-3.8559,-3.8624,-3.8673,-3.8707,-3.8707,-3.8707,-3.8707,-3.8707,-3.8707,-3.878,-3.8896,-3.8902,-3.897,-3.9101,-3.9101,-3.9101,-3.9129,0.0,0.0,-4.5594,-4.5594,-4.5594,-4.5594,-4.5594,-4.5594,-4.5594,-4.5594,0.0,0.0,0.0,0.0,0.0,-4.5556,-4.4778,-4.4643,-4.5479,-4.4759,-4.4682,-4.5518,-4.5594,-4.5594,-4.5594,-4.4759,-4.4739,-4.5594,-4.4739,-4.4778,-4.5586,-4.5586,-4.5577,-4.5568,-4.5312,-4.5107,-4.4985,-4.4977,-4.4763,-4.4374,-4.4091,-4.4151,-4.4299,-4.3712,-4.3699,-4.3942,-4.3615,-4.3515,-4.3386,-4.2561,-4.1772,-4.0948,-4.012,-3.9331,-3.8707,-3.8707,-3.8138,-3.7364,0.0,0.0,0.0,-3.4924,-3.4873,-3.5049,-3.5705,-3.5875,-3.5844,-3.5802,-3.5804,-3.5804,-3.5804,-3.6435,-3.7196,-3.7975,-3.8156,-3.8175,-3.8157,-3.8157,-3.8157,-3.8157,-3.8157,-3.7967,-3.7523,-3.7487,-3.7321,-3.6919,-3.69,-3.69,-3.69,-3.69,-3.69,-3.69,-3.69,-3.7091,-3.7464,-3.7613,-3.7881,-3.8245,-3.8403,-3.846,-3.8476,-3.8609,-3.8658,-3.8692,-3.8692,-3.8692,-3.8707,-3.8707,-3.8768,-3.8907,-3.8896,-3.8993,-3.9101,-3.9101,-3.9101,-3.9101,0.0,-4.5603,-4.5594,-4.5594,-4.5594,-4.5594,-4.5594,-4.5594,-4.5594,0.0,0.0,0.0,-4.5594,-4.5594,-4.5344,-4.4701,-4.4432,-4.4162,-4.3816,-4.4105,-4.4412,-4.4643,-4.5267,-4.5594,-4.5594,-4.5364,-4.5364,-4.5594,-4.5364,-4.5273,-4.5312,-4.5312,-4.5211,-4.5019,-4.4931,-4.4726,-4.4425,-4.4624,-4.4484,-4.4091,-4.4017,-4.3892,-4.3728,-4.3565,-4.3548,-4.3632,-4.3531,-4.3515,-4.3386,-4.2561,-4.1772,-4.0857,-3.9478,-3.8891,-3.8707,-3.8707,-3.8542,-3.8193,-3.7401,0.0,0.0,0.0,0.0,0.0,-3.4943,-3.5066,-3.5187,-3.5693,-3.5804,-3.5804,-3.5804,-3.5753,-3.5767,-3.5999,-3.6968,-3.7596,-3.7301,-3.7264,-3.7264,-3.7264,-3.7264,-3.7207,-3.7075,-3.7075,-3.7017,0.0,-3.69,-3.69,-3.69,-3.69,-3.69,-3.69,-3.69,-3.6946,-3.7052,-3.7099,-3.72,-3.7351,-3.7488,-3.7595,-3.7637,-3.777,-3.7982,-3.8269,-3.8259,-3.8441,-3.8707,-3.8707,-3.8741,-3.8839,-3.8877,-3.896,-3.9036,-3.9073,-3.9101,-3.9101,-4.5594,-4.5594,-4.5568,-4.5448,-4.5429,-4.54,-4.5273,-4.5282,-4.5282,0.0,0.0,0.0,-4.5282,-4.5282,-4.4968,-4.4202,-4.3827,-4.348,-4.3115,-4.3201,-4.3412,-4.3778,-4.4605,-4.5056,-4.5056,-4.4957,-4.5064,-4.5429,-4.4958,-4.4828,-4.503,-4.503,-4.4962,-4.4788,-4.465,-4.4457,-4.4192,-4.4188,-4.4026,-4.3798,-4.3798,-4.3666,-4.3515,-4.3515,-4.3515,-4.3515,-4.3515,-4.3515,-4.3441,-4.2947,-4.2047,-4.082,-3.9221,-3.8707,-3.8707,-3.8707,-3.8707,-3.8524,-3.7731,-3.7162,-3.6505,-3.5298,0.0,0.0,-3.4294,-3.4273,-3.436,-3.4712,-3.4806,-3.4806,-3.4806,-3.4884,-3.4837,-3.4498,-3.5474,-3.6216,-3.601,-3.6252,-3.6426,-3.6426,-3.6707,-3.6821,-3.6658,-3.6658,-3.6577,-3.6354,-3.6354,-3.6354,-3.6354,-3.6354,-3.6354,-3.6354,-3.6354,-3.6454,-3.6638,-3.6664,-3.6733,-3.6951,-3.7068,-3.7167,-3.7254,-3.7379,-3.7578,-3.7861,-3.8021,-3.8219,-3.8456,-3.8618,-3.8744,-3.8811,-3.8881,-3.8931,-3.9007,-3.9073,-3.9101,-3.9101,0.0,-4.5559,-4.5476,-4.5201,-4.5169,-4.5074,-4.4837,-4.4788,-4.4788,0.0,-4.4788,-4.4788,-4.4788,-4.4807,-4.4561,-4.3906,-4.3191,-4.2804,-4.2883,-4.223,-4.2153,-4.2853,-4.3669,-4.4091,-4.4091,-4.3866,-4.4109,-4.4883,-4.387,-4.376,-4.4486,-4.4581,-4.4606,-4.4569,-4.435,-4.4221,-4.4136,-4.3763,-4.3548,-4.3515,-4.3515,-4.3515,-4.3515,-4.3515,-4.3515,-4.3515,-4.3515,-4.3515,-4.3478,-4.3277,-4.2286,-4.082,-3.9221,-3.8707,-3.8707,-3.8707,-3.8707,-3.8542,-3.7841,-3.7566,-3.7144,-3.5646,-3.5151,0.0,-3.3925,-3.366,-3.3549,-3.336,-3.3316,-3.3334,-3.3271,-3.3836,-3.4031,-3.3336,-3.3789,-3.4296,-3.4527,-3.512,-3.5521,-3.5521,-3.6116,-3.6377,-3.6021,-3.5979,-3.5788,-3.5391,-3.543,-3.5481,-3.5481,-3.5549,-3.56,-3.56,-3.56,-3.5797,-3.6214,-3.6221,-3.6401,-3.6757,-3.6818,-3.6931,-3.7051,-3.7148,-3.7267,-3.7433,-3.7811,-3.8012,-3.8117,-3.8493,-3.8689,-3.8811,-3.887,-3.8939,-3.8993,-3.9073,-3.9101,-3.9101,-4.5322,-4.5292,-4.5201,-4.4919,-4.4891,-4.4849,-4.48,-4.4788,-4.4776,-4.4733,-4.4714,-4.4714,-4.4714,-4.4763,-4.4471,-4.3646,-4.3437,-4.2815,-4.1578,-4.1928,-4.1996,-4.1523,-4.2313,-4.2781,-4.2781,-4.2726,-4.278,-4.2951,-4.2724,-4.2588,-4.2567,-4.3213,-4.3398,-4.32,-4.3754,-4.3945,-4.3867,-4.3684,-4.3548,-4.3515,-4.3515,-4.3515,-4.3515,-4.3515,-4.3515,-4.3515,-4.3515,-4.3515,-4.3313,-4.2011,-4.1352,-4.082,-3.9221,-3.8707,-3.8707,-3.8707,-3.8707,-3.867,-3.8505,-3.7991,-3.7419,-3.7088,-3.6009,0.0,-3.4633,-3.4057,-3.3473,-3.3001,-3.2908,-3.2829,-3.2569,-3.2388,-3.2211,-3.2067,-3.1943,-3.2278,-3.3472,-3.3779,-3.3881,-3.3881,-3.4,-3.4044,-3.3977,-3.3956,-3.3914,-3.3846,-3.4387,-3.4709,-3.4709,-3.5284,-3.56,-3.56,-3.56,-3.5656,-3.5746,-3.5734,-3.5768,-3.5853,-3.5987,-3.6051,-3.6084,-3.6301,-3.6583,-3.6872,-3.7044,-3.7503,-3.8099,-3.8187,-3.842,-3.8723,-3.8851,-3.891,-3.8921,-3.9045,-3.9101,-3.9101,-4.4931,-4.4908,-4.4825,-4.4546,-4.4511,-4.4457,-4.4322,-4.4294,-4.4294,-4.4269,-4.4236,-4.4236,-4.4236,-4.4308,-4.405,-4.332,-4.3315,-4.2881,-4.1772,-4.1688,-4.151,-4.1124,-4.1514,-4.1753,-4.1753,-4.2054,-4.2202,-4.2202,-4.2065,-4.1927,-4.181,-4.2207,-4.2537,-4.2773,-4.3069,-4.3379,-4.3684,-4.36,-4.3513,-4.3515,-4.3515,-4.3515,-4.3515,-4.3515,-4.3515,-4.3515,-4.3515,-4.3239,-4.2653,-4.1038,-4.0506,-4.0286,-3.9093,-3.8707,-3.8707,-3.8707,-3.8707,-3.8707,-3.8707,-3.8414,-3.7991,-3.7603,-3.656,0.0,0.0,-3.4185,-3.3459,-3.2923,-3.2795,-3.2699,-3.2351,-3.2144,-3.1932,-3.1732,-3.1562,-3.1645,-3.2209,-3.2611,-3.2848,-3.2848,-3.3186,-3.3406,-3.3406,-3.3406,-3.3406,-3.3406,-3.3744,-3.3947,-3.3947,-3.4658,-3.5064,-3.5064,-3.5397,-3.56,-3.56,-3.56,-3.56,-3.56,-3.5673,-3.574,-3.5805,-3.5997,-3.622,-3.646,-3.678,-3.713,-3.7522,-3.7718,-3.7929,-3.8152,-3.868,-3.8755,-3.86,-3.8956,-3.9073,-3.9045,-4.4444,-4.4533,-4.4438,-4.4181,-4.4121,-4.4048,-4.3818,-4.3804,-4.3788,-4.3753,-4.3753,-4.3753,-4.3753,-4.3835,-4.3664,-4.32,-4.3249,-4.3052,-4.2379,-4.1738,-4.1271,-4.0932,-4.0936,-4.0884,-4.0714,-4.1199,-4.1453,-4.1453,-4.1232,-4.1126,-4.1126,-4.126,-4.1642,-4.2214,-4.2398,-4.2818,-4.3378,-4.3458,-4.3515,-4.3515,-4.3515,-4.3515,-4.3515,-4.3515,-4.3515,-4.3478,-4.3331,-4.2837,-4.2047,-4.0432,-3.99,-3.9753,-3.8946,-3.8707,-3.8707,-3.8707,-3.8707,-3.8707,-3.8707,-3.8707,-3.8542,-3.7896,-3.7125,-3.6274,0.0,0.0,0.0,-3.2862,0.0,0.0,0.0,0.0,0.0,-3.1657,0.0,0.0,0.0,-3.1718,0.0,-3.209,-3.2632,-3.2987,-3.2983,-3.2983,-3.2983,-3.2983,-3.3018,-3.3102,-3.3186,-3.3816,-3.4182,-3.4286,-3.5013,-3.538,-3.538,-3.5515,-3.56,-3.56,-3.56,-3.5667,-3.5761,-3.591,-3.6019,-3.6161,-3.6581,-3.6803,-3.6882,-3.7233,-3.7388,-3.7469,-3.841,-3.852,-3.8261,-3.8851,-3.905,-3.9007,-4.3911,-4.425,-4.4166,-4.3881,-4.3853,-4.3853,-4.3804,-4.3804,-4.3771,-4.3651,-4.3615,-4.3615,-4.3615,-4.3736,-4.3765,-4.3721,-4.3721,-4.3368,-4.2529,-4.2495,-4.1854,-4.0368,-4.0416,-4.0123,-3.9341,-3.9393,-3.9435,-3.9435,-3.9407,-3.938,-3.9398,-4.0036,-4.0396,-4.0548,-4.1836,-4.2472,-4.2584,-4.3237,-4.3515,-4.3515,-4.3515,-4.3515,-4.3515,-4.3515,-4.3515,-4.3423,-4.269,-4.2378,-4.2047,-4.0432,-3.99,-3.9753,-3.8946,-3.8707,-3.8707,-3.8707,-3.8707,-3.8707,-3.8707,-3.8707,-3.8689,-3.8597,-3.7955,-3.7114,-3.6183,0.0,-3.3878,-3.2694,0.0,0.0,0.0,0.0,0.0,0.0,0.0,0.0,-3.121,-3.1258,-3.1309,-3.1309,-3.1438,-3.1509,-3.1464,-3.1444,-3.1444,-3.1444,-3.1671,-3.1997,-3.2408,-3.273,-3.3105,-3.3503,-3.4235,-3.4624,-3.4624,-3.5261,-3.56,-3.56,-3.56,-3.5622,-3.5622,-3.5773,-3.5822,-3.5871,-3.6156,-3.6443,-3.674,-3.6911,-3.6983,-3.7075,-3.7946,-3.8263,-3.8279,-3.8815,-3.9007,-3.9007,-4.2839,-4.3109,-4.3208,-4.356,-4.3635,-4.3635,-4.3635,-4.3635,-4.3618,-4.3566,-4.3531,-4.3531,-4.3531,-4.3634,-4.3684,-4.3684,-4.3771,-4.3656,0.0,-4.2823,-4.2266,-4.1564,-4.1147,-4.0533,-3.9696,-3.9678,-3.9456,-3.8993,-3.8993,-3.8993,-3.8993,-3.9301,-3.9664,-4.0136,-4.1217,-4.1792,-4.201,-4.3061,-4.3357,-4.3142,-4.3142,-4.3142,-4.3178,-4.341,-4.3221,-4.269,-4.1901,-4.1144,-4.0389,-3.9243,-3.886,-3.8773,-3.8175,-3.8318,-3.8643,-3.8417,-3.8515,-3.8707,-3.8707,-3.8707,-3.8643,-3.8401,-3.7749,-3.6916,-3.6023,-3.4891,-3.3727,-3.2713,0.0,0.0,0.0,0.0,0.0,0.0,-3.119,0.0,0.0,0.0,-3.1327,-3.121,0.0,0.0,-3.121,-3.119,-3.119,-3.119,-3.1301,-3.1348,-3.1253,-3.1786,-3.2164,-3.2352,-3.3076,-3.3794,-3.4489,-3.481,-3.5182,-3.56,-3.56,-3.56,-3.56,-3.5751,-3.5817,-3.5822,-3.6088,-3.6266,-3.6419,-3.6504,-3.6542,-3.6618,-3.721,-3.7451,-3.7542,-3.831,-3.8579,-3.8643,-4.1479,-4.1827,-4.2213,-4.302,-4.3167,-4.324,-4.3478,-4.3515,-4.3515,-4.3515,-4.3515,-4.3515,-4.3515,-4.3531,-4.3565,-4.3565,-4.3651,-4.3719,0.0,-4.3129,-4.2687,-4.2465,-4.1926,-4.1258,-4.0461,-4.0443,-4.0037,-3.9224,-3.9116,-3.8942,-3.8722,-3.86,-3.8962,-3.9705,-4.049,-4.1069,-4.152,-4.2668,-4.2976,-4.2711,-4.2711,-4.2711,-4.2731,-4.3032,-4.2668,-4.1866,-4.1028,-4.0054,-3.9012,-3.8218,-3.793,-3.7879,-3.7596,-3.7896,-3.8302,-3.8034,-3.8135,-3.8401,-3.8499,-3.8549,-3.8467,-3.8168,-3.7667,-3.6911,-3.5755,-3.4723,-3.3705,-3.27,-3.2091,0.0,0.0,0.0,0.0,0.0,0.0,-3.1252,0.0,-3.1406,0.0,0.0,0.0,0.0,0.0,-3.0788,-3.0836,-3.119,-3.0838,-3.0597,-3.0497,-3.0761,-3.097,-3.11,-3.1814,-3.2619,-3.35,-3.3902,-3.4365,-3.49,-3.5078,-3.5247,-3.5362,-3.547,-3.56,-3.5773,-3.6036,-3.6144,-3.6144,-3.6255,-3.6301,-3.6343,-3.6618,-3.6739,-3.686,-3.7892,-3.8275,-3.8373,-3.9808,-4.0598,-4.1389,-4.2194,-4.2341,-4.2598,-4.3386,-4.3515,-4.3515,-4.3515,-4.3515,-4.3515,-4.3515,-4.3496,-4.3496,-4.3496,0.0,-4.3515,-4.3515,0.0,-4.3212,-4.2439,-4.2447,-4.2089,-4.128,-4.1258,-4.0871,-4.0055,-3.9671,-3.909,-3.8326,-3.7859,-3.808,-3.8867,-3.9617,-4.0328,-4.1056,-4.1879,-4.2218,-4.2218,-4.2218,-4.2218,-4.2218,-4.2257,-4.1795,-4.1028,-4.0151,-3.9364,-3.8596,-3.7792,-3.7523,0.0,0.0,-3.7523,-3.7542,-3.7523,-3.7523,-3.7632,-3.7999,-3.8118,-3.8118,-3.8101,-3.8083,-3.7565,-3.5646,-3.4836,-3.4052,-3.2529,-3.1748,-3.1315,-3.1295,0.0,0.0,0.0,0.0,0.0,0.0,0.0,0.0,0.0,0.0,0.0,0.0,-2.9724,-2.9929,0.0,-2.9946,-2.9556,-3.0456,-2.9677,-2.938,-2.9826,-3.0573,-3.0969,-3.1024,-3.2382,-3.3056,-3.3088,-3.3745,-3.4333,-3.4833,-3.4816,-3.5131,-3.5622,-3.5888,-3.5997,-3.6019,-3.6216,-3.6301,-3.6301,-3.6322,-3.6322,-3.6454,-3.7737,-3.8245,-3.8373,-3.8062,-3.8331,-3.9157,-4.1159,-4.1499,-4.167,-4.2159,-4.2956,-4.3392,-4.3142,-4.3339,0.0,0.0,-4.3515,-4.3515,0.0,0.0,-4.3214,-4.3479,-4.3268,0.0,-4.2741,-4.3024,-4.2638,-4.152,-4.1502,-4.0863,-3.9566,-3.912,-3.8528,-3.7773,-3.7614,-3.7684,-3.8006,-3.9309,-3.9864,-3.992,-4.1522,-4.2011,-4.1735,-4.1735,-4.1578,-4.1343,-4.144,-4.0987,-4.0183,-3.9381,-3.8408,0.0,-3.7184,-3.7113,-3.7055,-3.6781,-3.7075,-3.745,-3.7189,-3.7284,-3.7523,0.0,0.0,-3.7632,-3.7377,-3.693,-3.6273,-3.5065,-3.4084,-3.3235,-3.2424,-3.1858,-3.1504,-3.1504,0.0,0.0,0.0,0.0,0.0,0.0,0.0,-3.0634,-3.012,-3.0,0.0,0.0,0.0,0.0,0.0,-2.9331,0.0,-2.9563,-2.928,-2.9166,-2.9325,-2.9571,-3.009,-3.0898,-3.1362,-3.2075,-3.2991,-3.3234,-3.3681,-3.4284,-3.4284,-3.429,-3.4357,-3.4622,-3.4638,-3.4493,-3.4737,-3.4835,-3.4835,-3.4835,-3.4835,-3.5039,-3.6724,-3.7396,-3.7524,-3.7209,-3.7209,-3.7806,-3.9804,-4.0599,-4.1053,-4.13,-4.2265,-4.2902,0.0,-4.2883,0.0,-4.305,0.0,-4.3105,0.0,-4.2902,-4.2883,-4.3462,-4.3124,0.0,-4.2901,-4.316,-4.2832,0.0,-4.1804,-4.1193,-3.9896,-3.9198,-3.8472,0.0,0.0,-3.7233,-3.7551,-3.8858,-3.9434,-3.9491,-4.1055,-4.1556,0.0,0.0,-4.1117,0.0,0.0,-4.0111,-3.937,0.0,-3.7797,-3.6698,-3.6698,-3.6698,-3.6638,-3.6367,-3.6658,-3.7036,-3.6761,-3.686,-3.7113,-3.7246,-3.7302,0.0,-3.6958,-3.6531,-3.588,-3.4692,-3.3836,-3.3082,-3.2228,-3.1803,-3.1579,-3.1504,0.0,0.0,0.0,0.0,0.0,0.0,-3.0432,-2.997,-2.9489,-2.9237,-2.9004,0.0,0.0,0.0,0.0,0.0,0.0,0.0,-2.8802,-2.885,-2.885,-2.885,-2.9218,-2.9995,-3.025,-3.0823,-3.1732,-3.1962,-3.2396,-3.3003,-3.3003,-3.304,-3.3096,-3.3427,-3.3515,-3.3464,-3.3782,-3.3997,-3.4113,-3.4113,-3.4113,-3.431,-3.5904,-3.6866,-3.7396,-3.7116,-3.7151,-3.7416,-3.8196,-3.9615,-4.0686,-4.0788,0.0,-4.2038,0.0,-4.2157,-4.2177,-4.2177,-4.2177,-4.2358,-4.2806,-4.2418,-4.2519,-4.3356,-4.305,0.0,0.0,-4.2844,-4.2653,-4.2177,0.0,0.0,0.0,0.0,0.0,0.0,0.0,0.0,0.0,-3.8237,0.0,-3.9646,-4.0498,-4.086,-4.0912,-4.0912,-4.0912,-4.0825,-4.0043,-3.9301,-3.8646,-3.856,-3.7577,-3.6301,-3.6301,-3.6301,-3.6301,-3.6301,-3.6301,-3.6301,-3.6301,-3.6301,-3.6367,-3.6779,-3.686,-3.686,-3.686,-3.6843,0.0,0.0,0.0,-3.3571,-3.1977,-3.1632,-3.1542,-3.1353,-3.1406,0.0,0.0,0.0,0.0,0.0,0.0,-2.9472,-2.9506,-2.844,-2.7772,-2.7963,-2.6915,0.0,0.0,0.0,0.0,0.0,-2.8272,-2.8411,-2.8411,-2.8411,-2.8411,-2.8411,-2.9018,-2.9381,-2.9402,-3.0048,-3.0649,-3.1176,-3.1176,-3.1421,-3.1936,-3.2337,-3.2647,-3.2911,-3.3317,-3.3659,-3.3973,-3.3973,-3.399,-3.417,-3.5343,-3.6611,-3.7806,-3.6011,-3.6495,-3.6975,-3.7185,-3.866,-3.9691,-3.9396,0.0,0.0,0.0,-4.17,-4.1895,-4.1895,-4.1895,-4.1955,-4.208,-4.1725,0.0,0.0,0.0,0.0,-4.1864,-4.2198,-4.2157,-4.1692,-4.167,-4.1321,-4.0546,0.0,0.0,-3.7633,0.0,0.0,0.0,0.0,-3.7892,-3.8151,-3.9457,-4.0336,-4.0912,-4.0912,-4.0912,-4.0877,0.0,-4.0048,-3.9147,-3.8141,-3.7129,-3.6301,-3.6301,-3.6301,-3.6301,-3.6301,-3.6301,-3.6301,-3.6301,-3.6301,-3.6322,-3.643,-3.6451,-3.6451,-3.6451,-3.5956,-3.5356,0.0,0.0,0.0,0.0,0.0,0.0,0.0,0.0,0.0,0.0,0.0,0.0,0.0,-2.9023,-2.8885,-2.9437,-2.8579,-2.7842,-2.7649,-2.6249,0.0,0.0,0.0,0.0,-2.7558,0.0,-2.8411,-2.8411,-2.8411,-2.8411,-2.8411,-2.8581,-2.8919,-2.9387,-2.9556,-2.9986,-3.0618,-3.0618,-3.061,-3.0609,-3.0967,-3.1067,-3.1007,-3.1377,-3.1735,-3.2027,-3.2027,-3.2505,-3.3388,-3.482,-3.5684,-3.6221,-3.6597,-3.6975,-3.728,-3.728,-3.8385,-3.921,-3.8997,-4.021,0.0,-4.0855,-4.1088,0.0,-4.123,-4.123,-4.1303,-4.1486,-4.1162,0.0,-4.1874,0.0,0.0,-4.1338,-4.1587,-4.1499,-4.1059,-4.1059,0.0,-4.0434,0.0,0.0,-3.7784,0.0,0.0,0.0,0.0,-3.732,-3.7423,-3.8986,-3.9904,-4.0335,-4.0679,-4.0793,0.0,-4.0728,-4.0216,-3.9322,-3.8208,-3.7342,-3.6681,-3.6294,-3.6212,-3.6255,-3.6191,-3.6212,-3.6233,-3.6191,-3.6212,-3.6233,-3.6174,-3.6174,-3.6174,-3.6174,-3.5801,-3.5347,-3.5039,-3.4257,-3.341,0.0,-3.2247,-3.1873,0.0,0.0,0.0,0.0,0.0,0.0,-2.8973,-2.8302,-2.8079,-2.875,-2.8114,-2.7587,-2.7498,-2.639,-2.5608,0.0,0.0,0.0,0.0,0.0,-2.8104,-2.8396,-2.8411,-2.8411,-2.8411,-2.8411,-2.8596,-2.8965,-2.8965,-2.9156,-2.9525,-2.9525,-2.9453,-2.9381,-2.9776,-2.9971,-3.0021,-3.0418,-3.0865,-3.1315,-3.1466,-3.1891,-3.261,-3.4145,-3.5045,-3.5625,-3.7882,-3.7942,-3.801,-3.801,-3.8625,-3.9165,0.0,-3.9855,0.0,-4.0419,0.0,-4.0461,-4.0461,-4.0461,-4.0597,-4.0932,-4.0652,-4.0795,-4.1552,-4.1236,-4.1024,-4.1024,-4.1024,-4.0873,-4.051,-4.051,-4.051,0.0,0.0,0.0,0.0,0.0,0.0,0.0,0.0,0.0,0.0,-3.8797,-3.9512,-3.9688,-4.0398,-4.0607,-4.051,-4.051,-4.0075,-3.9385,-3.8515,-3.7798,-3.7151,-3.6293,-3.6079,-3.6144,-3.6041,-3.6079,-3.6144,-3.6019,-3.6079,-3.6144,-3.6019,-3.5997,-3.5997,-3.5997,-3.5975,-3.5822,-3.5173,-3.4929,-3.4444,-3.3046,-3.2644,-3.2324,-3.152,0.0,0.0,0.0,0.0,-2.834,-2.8254,-2.769,-2.7452,-2.7945,-2.7514,0.0,-2.7328,-2.6768,-2.5979,-2.5032,-2.5268,0.0,0.0,0.0,-2.7796,-2.8381,-2.8411,-2.8411,-2.8411,-2.8411,-2.8411,-2.8411,-2.8411,-2.8411,-2.8411,-2.8411,-2.8411,-2.8436,-2.8905,-2.9266,-2.9518,-3.0038,-3.0642,-3.1276,-3.1598,-3.1815,-3.211,-3.3578,-3.4679,-3.5586,-3.7745,-3.8152,-3.8522,0.0,-3.9253,-3.9775,-3.991,-4.0053,-4.0121,-4.0171,-4.0171,-4.0171,-4.0171,-4.0171,-4.0196,-4.0279,-4.0296,0.0,0.0,0.0,0.0,-4.0597,-4.0597,-4.0566,-4.051,-4.051,-4.051,0.0,0.0,0.0,0.0,0.0,0.0,0.0,0.0,0.0,-3.8042,-3.8322,0.0,-4.0346,-4.0483,-4.0534,-4.051,-4.051,-4.0351,-3.9963,-3.8601,-3.77,-3.7023,-3.6254,-3.6019,-3.6019,-3.5997,-3.6019,-3.6019,-3.5997,-3.6019,-3.6019,-3.5997,-3.5997,-3.5997,-3.5997,-3.5927,-3.5805,-3.5669,-3.5094,-3.4486,-3.421,-3.3198,-3.2337,-3.2275,0.0,0.0,0.0,0.0,-2.9505,-2.857,-2.8332,-2.8171,-2.7949,-2.7833,-2.7398,-2.6499,-2.6056,-2.567,-2.5261,-2.5839,-2.6257,-2.6364,0.0,-2.8288,0.0,-2.8411,-2.8411,0.0,0.0,-2.8411,-2.8411,-2.8411,-2.8411,-2.8411,-2.8411,-2.8411,-2.8436,-2.8905,-2.9006,-2.8904,-2.9649,-3.0326,-3.0925,-3.1257,-3.1937,-3.2817,-3.3749,-3.4599,-3.5402,-3.8749,0.0,0.0,0.0,0.0,0.0,0.0,-4.0096,-4.0096,-4.0096,-4.0096,-4.0096,-4.0096,-4.0096,-4.0096,-4.0096,-4.0163,-4.0188,-4.0188,-4.0263,-4.0296,-4.0296,-4.0296,-4.0296,-4.0296,-4.0296,-4.0296,-4.0296,0.0,0.0,0.0,0.0,0.0,-3.58,0.0,-3.6435,0.0,0.0,0.0,-3.9859,-4.0234,-4.0362,-4.0296,-4.0296,-4.0025,-3.9476,-3.8391,-3.7539,-3.6837,-3.6055,-3.5844,-3.5866,-3.5822,-3.5844,-3.5866,-3.5822,-3.5844,-3.5866,-3.5822,-3.58,-3.58,-3.58,-3.5734,-3.5706,-3.5706,-3.5374,-3.4962,-3.4573,-3.3952,-3.3245,-3.2618,-3.1839,0.0,0.0,0.0,-2.9922,-2.9118,-2.8677,-2.8254,-2.7709,-2.7865,-2.7603,-2.6551,-2.6526,-2.6229,-2.5364,-2.5641,-2.6149,-2.6872,0.0,-2.8042,0.0,0.0,0.0,-2.8411,0.0,-2.8411,-2.8411,-2.8411,-2.8411,-2.8411,-2.8411,-2.8411,-2.842,-2.8748,-2.8803,-2.8756,-2.9605,-3.0177,-3.0617,-3.1526,-3.2193,-3.2811,-3.4154,-3.4907,-3.5341,-3.9668,-3.9625,0.0,0.0,-3.9824,-3.9875,-3.9995,-4.0037,-4.0087,-4.0113,-4.0096,-4.0096,-4.0096,-4.0096,-4.0096,-4.0096,-4.0096,-4.0096,-4.0096,-4.0096,-4.0096,-4.0096,-4.0096,-4.0096,-4.0096,-4.0096,-4.0096,0.0,0.0,0.0,0.0,0.0,0.0,0.0,0.0,0.0,0.0,0.0,-3.8734,-3.944,-4.0017,-4.0188,-4.0096,-4.0096,-3.9656,-3.8903,-3.8159,-3.7432,-3.6694,-3.5853,-3.5667,-3.5751,-3.5622,-3.5667,-3.5751,-3.5622,-3.5667,-3.5728,-3.5622,-3.56,-3.56,-3.56,-3.56,-3.56,-3.56,-3.56,-3.543,-3.4844,-3.4607,-3.4092,-3.2717,-3.1936,0.0,0.0,0.0,0.0,0.0,-2.8979,-2.8253,-2.7482,-2.7737,-2.7595,-2.671,-2.6948,-2.678,-2.5804,-2.5764,-2.6241,-2.7334,-2.7534,-2.781,-2.8259,0.0,-2.8226,-2.8113,0.0,-2.8162,-2.8275,-2.8275,-2.8339,-2.8411,-2.8411,-2.8411,-2.8396,-2.8605,-2.8849,-2.914,-2.9791,-3.0337,-3.0879,-3.1993,-3.2601,-3.3053,-3.4531,-3.5222,-3.5545,-3.9528,0.0,0.0,0.0,0.0,-3.959,-3.9703,-3.9833,-3.9961,-4.007,-4.0096,-4.0096,-4.0096,-4.0096,-4.0096,-4.0096,-4.0096,-4.0096,-4.0096,-4.0096,-4.0096,-4.0096,-4.0096,-4.0096,-4.0096,-4.0096,-4.0096,0.0,0.0,-3.8616,0.0,0.0,0.0,0.0,0.0,0.0,0.0,-3.8606,-3.9334,-4.0011,-4.0079,-4.0096,-4.0096,-4.0096,-3.9656,-3.8903,-3.8159,-3.7432,-3.6694,-3.5853,-3.56,-3.5622,-3.56,-3.56,-3.5622,-3.56,-3.56,-3.5622,-3.56,-3.56,-3.56,-3.56,-3.56,-3.56,-3.56,-3.56,-3.5583,-3.5498,-3.4979,-3.4053,-3.2601,-3.2263,-3.1972,0.0,0.0,0.0,0.0,-2.9345,-2.864,-2.7535,-2.7442,-2.7188,-2.6502,-2.6411,-2.6619,-2.7165,-2.7196,-2.7257,-2.738,-2.798,-2.8165,-2.7865,-2.7865,-2.765,-2.7225,-2.7225,-2.7433,-2.7865,-2.7865,-2.8054,-2.8411,-2.8411,-2.8411,-2.8396,-2.8605,-2.9368,-3.0408,-3.0251,-3.1024,-3.2313,-3.2446,-3.3267,-3.4423,-3.458,-3.5305,-3.6197,0.0,0.0,-3.9325,0.0,0.0,0.0,0.0,-3.9755,-3.9807,-3.9841,-3.9995,-4.0096,-4.0096,-4.0096,-4.0096,-4.0096,-4.0096,-4.0096,-4.0096,-4.0096,-4.0096,-4.0096,-4.0096,-4.0096,-4.0096,-4.0096,-4.0096,0.0,0.0,0.0,0.0,0.0,0.0,0.0,0.0,-3.7872,-3.8582,-3.887,-3.9436,-4.0096,-4.0096,-4.0096,-4.0096,-4.0096,-3.9385,-3.8311,-3.8024,-3.7127,-3.6045,-3.5701,-3.56,-3.56,-3.56,-3.56,-3.56,-3.56,-3.56,-3.56,-3.56,-3.56,-3.56,-3.56,-3.56,-3.56,-3.56,-3.56,-3.56,-3.56,-3.5013,-3.4303,-3.3732,-3.2903,-3.211,-3.152,0.0,0.0,0.0,0.0,-2.8833,-2.8098,-2.7996,-2.7734,-2.7057,-2.7349,-2.7534,-2.7411,-2.7396,-2.758,-2.798,-2.8039,-2.798,-2.7815,0.0,-2.7291,-2.7097,-2.7097,-2.7174,-2.7367,-2.7367,-2.7667,-2.8225,-2.8521,-2.9002,-2.9612,-2.9687,-3.0201,-3.0958,-3.0845,-3.1342,-3.2262,-3.2919,-3.3485,-3.408,-3.4718,-3.5406,-3.6002,-3.9299,0.0,-3.9325,0.0,-3.9448,-3.9458,-3.9573,-3.9616,-3.9625,-3.9625,-3.9833,-3.9969,-3.9969,-4.0037,-4.0037,-4.0037,-4.0087,-4.0096,-4.0096,-4.0096,-4.0096,-4.0096,-4.0096,0.0,-4.0096,-4.0096,-4.0096,-4.0096,-3.9588,0.0,0.0,0.0,0.0,0.0,-3.7939,-3.8236,-3.8723,-3.8773,-3.9107,-3.9575,-3.9575,-3.9575,-3.9575,-3.9575,-3.8672,-3.7418,-3.7582,-3.6561,-3.5155,-3.5316,-3.5362,-3.5402,-3.5538,-3.56,-3.56,-3.56,-3.56,-3.56,-3.56,-3.56,-3.56,-3.56,-3.56,-3.56,-3.56,-3.56,-3.56,-3.56,-3.5199,-3.4759,-3.4539,-3.352,-3.2471,-3.1717,0.0,0.0,0.0,-2.8974,0.0,-2.8444,-2.8411,-2.8211,-2.7734,-2.8119,-2.8211,-2.7734,-2.7688,-2.7904,-2.8381,-2.8029,-2.774,0.0,0.0,0.0,-2.6733,-2.6733,-2.6913,-2.7193,-2.7193,-2.7598,-2.8393,-2.8846,-2.9485,-3.0204,-3.035,-3.0778,-3.1382,-3.1498,-3.1923,-3.2579,-3.3411,-3.3822,-3.403,-3.4761,-3.5293,-3.5633,-3.9299,-3.9299,-3.9299,-3.9299,-3.9299,-3.9299,-3.9299,-3.9422,-3.9501,-3.9501,-3.9616,-3.9703,-3.9703,-3.9807,-3.9901,-3.9901,-4.0037,-4.0096,-4.0096,-4.0096,-4.0096,0.0,0.0,-4.0096,-4.0096,-4.0096,-4.0096,-4.0096,0.0,0.0,-3.8971,0.0,-3.7905,-3.7915,-3.8053,-3.8096,-3.8119,-3.8248,-3.8306,-3.8306,-3.8306,-3.8306,-3.8306,-3.8306,-3.7447,-3.6296,-3.6832,-3.5727,-3.4111,-3.4625,-3.4809,-3.4904,-3.5424,-3.56,-3.56,-3.56,-3.56,-3.56,-3.56,-3.56,-3.56,-3.56,-3.56,-3.56,-3.56,-3.56,-3.56,-3.56,-3.5583,-3.5346,-3.4624,-3.4041,-3.3226,-3.184,0.0,0.0,0.0,-2.87,0.0,-2.8411,-2.8411,-2.8411,-2.8396,-2.8411,-2.8411,0.0,0.0,0.0,0.0,0.0,0.0,-2.7122,-2.6721,0.0,-2.5921,-2.5921,-2.6408,-2.7404,-2.7404,-2.7971,-2.9,-2.9465,-2.9696,-2.9723,-3.0204,-3.0912,-3.1831,-3.2147,-3.2825,-3.3704,-3.3984,-3.4333,-3.4691,-3.4691,-3.4913,-3.527,-3.7982,-3.7982,-3.8141,-3.8535,-3.8618,-3.8772,-3.9245,-3.9342,-3.9202,-3.8728,-3.9131,-3.9239,-3.881,-3.9355,-3.9781,0.0,-3.9952,-3.9961,0.0,-4.0062,-4.0062,-3.9961,-4.0062,-4.0096,-4.0096,-4.0096,-4.0096,-4.0096,0.0,0.0,0.0,-3.952,-3.9177,-3.8778,-3.8837,-3.8628,-3.8248,-3.8265,-3.8306,-3.8306,-3.8306,-3.8306,-3.8306,-3.8306,-3.7711,-3.6837,-3.6554,-3.5688,-3.4651,-3.4357,-3.426,-3.4268,-3.4456,-3.4745,-3.4975,-3.4625,-3.4785,-3.5045,-3.5045,-3.5316,-3.56,-3.56,-3.56,-3.56,-3.56,-3.56,-3.56,-3.56,-3.56,-3.5515,-3.5301,-3.4695,-3.3718,-3.2128,-3.1177,0.0,-2.8818,0.0,-2.8411,-2.8411,-2.8411,-2.8411,-2.8411,-2.8411,-2.8411,0.0,0.0,0.0,0.0,0.0,0.0,0.0,-2.6431,0.0,-2.5893,-2.6315,-2.6666,-2.7003,-2.7442,-2.824,-2.9291,-2.9857,-3.0294,-3.0582,-3.0724,-3.1252,-3.2016,-3.2357,-3.2993,-3.3736,-3.4,-3.4176,-3.43,-3.43,-3.4529,-3.4866,-3.7399,-3.7399,-3.7517,-3.7908,-3.7966,-3.8096,-3.8523,-3.8595,-3.8439,-3.8039,-3.8507,-3.8772,-3.8351,-3.9044,0.0,-3.9746,-3.9798,-3.9807,-3.9807,-3.9935,-3.9884,-3.9582,-3.967,-3.967,-3.9428,-3.9653,0.0,-3.9428,-3.9428,-3.9549,-3.9747,-3.9523,-3.9216,-3.8849,-3.8618,-3.8294,-3.7953,-3.7738,-3.7605,-3.7605,-3.7605,-3.7605,-3.7605,-3.7605,-3.7192,-3.6524,-3.6318,-3.5448,-3.4361,-3.4142,-3.3915,-3.3665,-3.3459,-3.3767,-3.4169,-3.4045,-3.4382,-3.4793,-3.4793,-3.5201,-3.56,-3.56,-3.56,-3.56,-3.56,-3.56,-3.56,-3.56,-3.56,-3.56,-3.56,-3.506,-3.4096,-3.2518,-3.1549,-3.0472,-2.8872,-2.8517,-2.8411,-2.8411,-2.8411,-2.8411,-2.8411,-2.8411,-2.8411,0.0,0.0,0.0,0.0,0.0,-2.6864,-2.6864,-2.6258,-2.6006,-2.6245,-2.661,-2.7045,-2.7523,-2.8169,-2.8842,-2.9481,-3.0048,-3.0463,-3.0762,-3.0911,-3.1248,-3.1722,-3.2339,-3.2873,-3.334,-3.3882,-3.4101,-3.4101,-3.4101,-3.425,-3.4497,-3.728,-3.728,-3.728,-3.731,-3.734,-3.734,-3.7399,-3.7399,-3.7399,-3.734,-3.7851,-3.8222,-3.8165,-3.8761,-3.9218,-3.9352,0.0,0.0,-3.9609,-3.9755,-3.954,-3.892,-3.9028,-3.8849,-3.8278,-3.8821,-3.8849,-3.8306,-3.8306,-3.8601,-3.9125,-3.8574,-3.8278,-3.821,-3.765,-3.7387,-3.7298,-3.6723,-3.6492,-3.6492,-3.6492,-3.6492,-3.6492,-3.6492,-3.6107,-3.5628,-3.607,-3.5081,-3.3607,-3.4062,-3.3765,-3.3145,-3.2636,-3.278,-3.3251,-3.3742,-3.4284,-3.4697,-3.4697,-3.5115,-3.5538,-3.5538,-3.5577,-3.56,-3.56,-3.56,-3.56,-3.56,-3.56,-3.56,-3.56,-3.5201,-3.4392,-3.2945,-3.1884,-3.0774,-2.9319,-2.8708,-2.8411,-2.8411,-2.8411,0.0,-2.8411,-2.8411,-2.8411,0.0,0.0,0.0,0.0,0.0,-2.6625,-2.6568,-2.6167,-2.6245,-2.6877,-2.6919,-2.7551,-2.8759,-2.9336,-2.9602,-2.9602,-3.0052,-3.0266,-3.0296,-3.0703,-3.0911,-3.1029,-3.2061,-3.2532,-3.2695,-3.3636,-3.405,-3.4101,-3.4101,-3.4101,-3.4151,0.0,0.0,-3.6085,-3.6554,-3.6631,-3.6814,-3.731,-3.7399,-3.7221,-3.6692,-3.7221,-3.7429,-3.692,-3.7458,-3.7867,-3.7895,-3.8898,-3.9319,-3.8821,-3.8914,-3.8679,-3.7966,-3.8051,-3.8121,-3.806,-3.8201,-3.829,-3.8306,-3.8306,-3.8362,-3.8518,-3.8379,-3.8067,-3.7608,-3.746,-3.7148,-3.6693,-3.6554,-3.6492,-3.6492,-3.6492,-3.6492,-3.6492,-3.6492,-3.6384,-3.6215,-3.5842,-3.538,-3.4936,-3.4558,-3.3965,-3.3349,-3.3208,-3.2909,-3.2614,-3.2749,-3.3161,-3.3572,-3.3572,-3.4268,-3.4998,-3.4998,-3.5293,-3.56,-3.56,-3.56,-3.56,-3.56,-3.56,-3.56,-3.56,-3.5509,-3.4877,-3.3205,-3.2295,-3.1246,-2.9555,-2.8793,-2.8411,0.0,-2.8411,-2.8411,-2.8411,-2.8411,-2.8411,0.0,0.0,-2.8672,-2.857,-2.8213,-2.7776,-2.7217,-2.6805,-2.6905,-2.7566,-2.8015,-2.8633,-2.9392,-2.9532,-2.9602,-2.9602,-2.9727,-2.9758,-2.9789,-2.9867,-3.0144,-3.0493,-3.097,-3.1721,-3.2641,-3.3082,-3.3594,-3.4101,-3.4101,-3.4101,-3.4126,-3.5504,-3.5504,-3.5587,-3.5941,-3.599,-3.6116,-3.6461,-3.6523,-3.6414,-3.6022,-3.6554,-3.6799,-3.643,-3.7011,-3.7399,-3.7399,-3.8096,-3.8395,-3.8023,-3.8121,-3.7892,-3.7221,-3.7324,-3.7279,-3.71,-3.7352,-3.769,-3.808,-3.7501,-3.7383,-3.7648,-3.7442,-3.7177,-3.6876,-3.6952,-3.6816,-3.6492,-3.6492,-3.6492,-3.6492,-3.6492,-3.6492,-3.6492,-3.6492,-3.6492,-3.6445,-3.6076,-3.5753,-3.543,-3.509,-3.4505,-3.3891,-3.3891,-3.3413,-3.2859,-3.2859,-3.301,-3.3182,-3.3182,-3.3802,-3.4504,-3.4745,-3.5021,-3.5293,-3.5538,-3.56,-3.5515,-3.527,-3.5424,-3.5532,-3.527,-3.5224,-3.4812,-3.3536,-3.2619,-3.1628,-3.0348,-2.9685,-2.9294,-2.9294,-2.9294,-2.9294,-2.9294,-2.9294,-2.9294,-2.9294,-2.9455,0.0,-2.9264,-2.9166,-2.8742,-2.7935,-2.7471,-2.7551,-2.8227,-2.8802,-2.9279,-2.9602,-2.9602,-2.9602,-2.9602,-2.9602,-2.9602,-2.9602,-2.9602,-2.9775,-3.0115,-3.0629,-3.1448,-3.2419,-3.2906,-3.3517,-3.4101,-3.4101,-3.4101,-3.4101,-3.5504,-3.5504,-3.5504,-3.5504,-3.5504,-3.5504,-3.5504,-3.5504,-3.5504,-3.5504,-3.5941,-3.6258,-3.6258,-3.6784,-3.7101,-3.7101,-3.7101,-3.7161,-3.7251,-3.737,-3.7161,-3.6554,-3.6646,-3.6461,-3.5973,-3.6492,-3.7011,-3.7531,-3.6492,-3.6258,-3.6753,-3.6352,-3.6179,-3.6179,-3.6352,-3.6429,-3.646,-3.646,-3.646,-3.6492,-3.6492,-3.6492,-3.6492,-3.6492,-3.6492,-3.6492,-3.6492,-3.6122,-3.566,-3.566,-3.5213,-3.4659,-3.4659,-3.4166,-3.3537,-3.3429,-3.3329,-3.3192,-3.3124,-3.3459,-3.4011,-3.4553,-3.4673,-3.4793,-3.5247,-3.5356,-3.5224,-3.4769,-3.5045,-3.5224,-3.4745,-3.4673,-3.4451,-3.3738,-3.2812,-3.1946,-3.1247,0.0,-3.0402,-3.0402,-3.0402,-3.0402,-3.0402,-3.0402,-3.0402,-3.0402,-3.0494,-3.0409,-3.005,-3.006,-2.9767,-2.9013,-2.8382,-2.8301,-2.883,-2.935,-2.9602,-2.9602,-2.9602,-2.9602,-2.9602,-2.9602,-2.9602,-2.9602,-2.9602,-2.9651,-2.9808,-3.0539,-3.1246,-3.2,-3.2756,-3.3423,-3.3984,-3.4075,-3.4101,-3.4101,-3.5504,-3.5504,-3.5504,-3.5504,-3.5504,-3.5504,-3.5504,-3.5504,-3.5504,-3.5504,-3.5587,-3.5651,-3.5651,-3.5733,-3.5797,-3.5797,-3.5797,-3.6005,-3.6508,-3.6569,-3.6321,-3.5716,-3.5716,-3.5733,-3.5767,-3.6006,-3.6179,-3.6258,-3.6085,-3.6068,-3.6148,-3.6068,-3.6037,-3.6037,-3.6068,-3.6132,-3.6242,-3.6242,-3.6352,-3.6492,-3.6492,-3.6492,-3.6492,-3.6492,-3.6492,-3.6492,-3.6492,-3.643,-3.6338,-3.6338,-3.5891,-3.5322,-3.5322,-3.489,-3.4227,-3.3583,-3.3378,-3.3246,-3.2674,-3.2922,-3.3443,-3.3995,-3.4119,-3.4161,-3.4235,-3.426,-3.4219,-3.4136,-3.421,-3.4235,-3.4136,-3.4119,-3.3937,-3.3377,-3.2653,-3.2002,-3.144,0.0,-3.0402,-3.0402,-3.0402,-3.0402,-3.0402,-3.0402,-3.0402,-3.0402,-3.092,-3.1201,-3.1148,-3.1316,-3.1338,-3.1195,-2.9886,-2.9252,-2.9462,-2.956,-2.9602,-2.9602,-2.9602,-2.9602,-2.9602,-2.9602,-2.9602,-2.9602,-2.9602,-2.9602,-2.9665,-2.9901,-3.045,-3.1246,-3.1972,-3.273,-3.3407,-3.3908,-3.4101,-3.4101,-3.5504,-3.5504,-3.5504,-3.5504,-3.5504,-3.5504,-3.5504,-3.5504,-3.5504,-3.5504,-3.5504,-3.5504,-3.5504,-3.5504,-3.5504,-3.5504,-3.5504,-3.5619,-3.591,-3.591,-3.5797,-3.5504,-3.5504,-3.5522,-3.5604,-3.5668,-3.5748,-3.5748,-3.5748,-3.5748,-3.5733,-3.5814,-3.5831,-3.5831,-3.5941,-3.6037,-3.6085,-3.6085,-3.6195,-3.6352,-3.6352,-3.6383,-3.6492,-3.6492,-3.6492,-3.6492,-3.6492,-3.6492,-3.6492,-3.6492,-3.6276,-3.603,-3.603,-3.5598,-3.4982,-3.4614,-3.3737,-3.2798,-3.2475,-3.2574,-3.2895,-3.3433,-3.3563,-3.364,-3.3919,-3.4011,-3.3919,-3.364,-3.3793,-3.3894,-3.3614,-3.3563,-3.3485,-3.3235,-3.2682,-3.2217,-3.1975,-3.1674,-3.149,-3.149,-3.149,-3.149,-3.149,-3.149,-3.149,-3.149,-3.1751,-3.1921,-3.1921,-3.2035,-3.1951,-3.171,-3.0763,-3.0173,-2.9991,-2.9991,-2.9837,-2.9602,-2.9602,-2.9602,-2.9602,-2.9602,-2.9602,-2.9602,-2.9602,-2.9634,-2.9699,-2.9777,-3.0313,-3.1189,-3.1847,-3.2552,-3.3277,-3.3866,-3.4101,-3.4101,-3.5504,-3.5504,-3.5504,-3.5504,-3.5504,-3.5504,-3.5504,-3.5504,-3.5504,-3.5504,-3.5504,-3.5504,-3.5504,-3.5504,-3.5504,-3.5504,-3.5504,-3.5504,-3.5504,-3.5504,-3.5504,-3.5504,-3.5504,-3.5504,-3.5504,-3.5504,-3.5504,-3.5504,-3.5504,-3.5504,-3.5504,-3.5604,-3.5638,-3.5671,-3.5814,-3.591,-3.5941,-3.5941,-3.6022,-3.6148,-3.6148,-3.6258,-3.6398,-3.6429,-3.6414,-3.6445,-3.6492,-3.6492,-3.6492,-3.6492,-3.6492,-3.6492,-3.6492,-3.6138,-3.5722,-3.5568,-3.4245,-3.2844,-3.2675,-3.2505,-3.2492,-3.2922,-3.3013,-3.3119,-3.3537,-3.3614,-3.3511,-3.3093,-3.3329,-3.3485,-3.3093,-3.3013,-3.3013,-3.3013,0.0,-3.2398,-3.2398,-3.2398,-3.2398,-3.2398,-3.2398,-3.2398,-3.2398,-3.2398,-3.2398,-3.2398,-3.2398,-3.2398,-3.2398,-3.2398,-3.2231,-3.1866,-3.1292,-3.0822,-3.0463,-3.0463,-3.0282,-2.9929,-2.9806,-2.9758,-2.9758,-2.9634,-2.9602,-2.9602,-2.9602,-2.9651,-2.9761,-2.9777,-3.0267,-3.0999,-3.1649,-3.2266,-3.2891,-3.362,-3.3908,-3.3908,-3.5504,-3.5504,-3.5504,-3.5504,-3.5504,-3.5504,-3.5504,-3.5504,-3.5504,-3.5504,-3.5504,-3.5504,-3.5504,-3.5504,-3.5504,-3.5504,-3.5504,-3.5504,-3.5504,-3.5504,-3.5504,-3.5504,-3.5504,-3.5504,-3.5504,-3.5504,-3.5504,-3.5504,-3.5504,-3.5504,-3.5504,-3.5504,-3.5504,-3.5537,-3.5537,-3.5604,-3.572,-3.572,-3.5831,-3.6005,-3.6005,-3.6037,-3.6037,-3.6179,-3.6211,-3.6242,-3.6414,-3.6492,-3.6492,-3.6492,-3.6492,-3.6492,-3.6492,-3.6461,-3.6292,-3.566,-3.4951,-3.4212,-3.3506,-3.2875,-3.2425,-3.2453,-3.2465,-3.2465,-3.252,-3.252,-3.2492,-3.2465,-3.2492,-3.2492,-3.2465,-3.2465,-3.2465,-3.2465,0.0,0.0,-3.2398,-3.2398,-3.2398,-3.2398,-3.2398,-3.2398,-3.2398,-3.2398,-3.2398,-3.2398,-3.2398,-3.2398,-3.2398,-3.2398,-3.2398,-3.2342,-3.148,-3.097,-3.094,-3.094,-3.094,-3.0881,-3.0463,-3.0266,-3.0235,-2.982,-2.9602,-2.9602,-2.9602,-2.9602,-2.9634,-2.9761,-2.996,-3.0249,-3.097,-3.1407,-3.1751,-3.2853,-3.3277,-3.3355,-3.5504,-3.5504,-3.5504,-3.5504,-3.5504,-3.5504,-3.5504,-3.5504,-3.5504,-3.5504,-3.5504,-3.5504,-3.5504,-3.5504,-3.5504,-3.5504,-3.5504,-3.5504,-3.5504,-3.5504,-3.5504,-3.5504,-3.5504,-3.5504,-3.5504,-3.5504,-3.5504,-3.5504,-3.5504,-3.5504,-3.5504,-3.5504,-3.5504,-3.5504,-3.5504,-3.5522,-3.5572,-3.5572,-3.5653,-3.5831,-3.5831,-3.5894,-3.6005,-3.6148,-3.6196,-3.6242,-3.6414,-3.6492,-3.6492,-3.6492,-3.6492,-3.6492,-3.6492,-3.6492,-3.6445,-3.6184,-3.566,-3.5075,-3.4768,-3.3875,-3.2921,-3.249,-3.2398,-3.2398,-3.2398,-3.2398,-3.2398,-3.2398,-3.2398,-3.2398,-3.2398,-3.2398,-3.2398,-3.2398,0.0,-3.2398,-3.2398,-3.2398,-3.2398,-3.2398,-3.2398,-3.2398,-3.2398,-3.2398,-3.2398,-3.2398,-3.2398,-3.2398,-3.2398,-3.2398,-3.2398,-3.2398,-3.2048,-3.1724,-3.1437,-3.1437,-3.1292,-3.0999,-3.0822,-3.0732,-3.0732,-3.0553,-3.0312,-3.0021,-3.0021,-2.9867,-2.9602,-2.9651,-2.9775,-2.9976,-3.0778,-3.116,-3.1436,-3.2351,-3.2922,-3.3251,-3.5504,-3.5504,-3.5504,-3.5504,-3.5504,-3.5504,-3.5504,-3.5504,-3.5504,-3.5504,-3.5504,-3.5504,-3.5504,-3.5504,-3.5504,-3.5504,-3.5504,-3.5504,-3.5504,-3.5504,-3.5504,-3.5504,-3.5504,-3.5504,-3.5504,-3.5504,-3.5504,-3.5504,-3.5504,-3.5504,-3.5504,-3.5504,-3.5504,-3.5504,-3.5504,-3.5504,-3.5504,-3.5504,-3.5539,-3.5653,-3.5653,-3.5718,-3.5861,-3.599,-3.6038,-3.607,-3.6258,-3.6367,-3.6414,-3.6414,-3.646,-3.6492,-3.6492,-3.6492,-3.6492,-3.6492,-3.6153,-3.5783,-3.5568,-3.4783,-3.3891,-3.3213,-3.2875,-3.2705,-3.2705,-3.2705,-3.2705,-3.2705,-3.289,-3.3072,-3.3072,-3.3072,-3.3072,-3.3072,-3.2859,-3.2705,-3.2705,-3.2521,-3.2398,-3.2398,-3.2398,-3.2398,-3.2398,-3.2398,-3.2398,-3.2398,-3.2398,-3.2398,-3.2398,-3.2398,-3.2398,-3.2398,-3.2398,-3.2259,-3.1923,-3.1923,-3.1752,-3.1422,-3.1292,-3.1234,-3.1204,-3.1058,-3.0822,-3.0523,-3.0523,-3.0357,-3.0052,-3.0052,-3.0038,-3.0115,-3.0703,-3.094,-3.0999,-3.1823,-3.2367,-3.2718,-3.5504,-3.5504,-3.5504,-3.5504,-3.5504,-3.5504,-3.5504,-3.5504,-3.5504,-3.5504,-3.5504,-3.5504,-3.5504,-3.5504,-3.5504,-3.5504,-3.5504,-3.5504,-3.5504,-3.5504,-3.5504,-3.5504,-3.5504,-3.5504,-3.5504,-3.5504,-3.5504,-3.5504,-3.5504,-3.5504,-3.5504,-3.5504,-3.5504,-3.5504,-3.5504,-3.5504,-3.5504,-3.5504,-3.5504,-3.5504,-3.5504,-3.5504,-3.5504,-3.5638,-3.5688,-3.572,-3.5941,-3.6085,-3.6196,-3.6196,-3.6352,-3.6492,-3.6492,-3.6492,-3.6492,-3.6492,-3.6492,-3.6338,-3.5706,-3.5521,-3.5367,-3.4674,-3.3937,-3.3413,-3.3413,-3.3413,-3.3413,-3.3413,-3.3983,-3.4505,-3.4505,-3.4505,-3.4505,-3.4505,-3.3875,-3.3413,-3.3398,-3.2829,-3.2398,-3.2398,-3.2398,-3.2398,-3.2398,-3.2398,-3.2398,-3.2398,-3.2398,-3.2398,-3.2398,-3.2398,-3.2398,-3.2398,-3.2398,-3.2398,-3.2398,-3.2398,-3.2398,-3.2398,-3.1923,-3.171,-3.171,-3.1234,-3.0999,-3.0999,-3.0999,-3.0999,-3.0999,-3.0999,-3.0822,-3.0612,-3.0762,-3.0598,-3.0403,-3.1219,-3.1508,-3.1665,-3.5504,-3.5504,-3.5504,-3.5504,-3.5504,-3.5504,-3.5504,-3.5504,-3.5504,-3.5504,-3.5504,-3.5504,-3.5504,-3.5504,-3.5504,-3.5504,-3.5504,-3.5504,-3.5504,-3.5504,-3.5504,-3.5504,-3.5504,-3.5504,-3.5504,-3.5504,-3.5504,-3.5504,-3.5504,-3.5504,-3.5504,-3.5504,-3.5504,-3.5504,-3.5504,-3.5504,-3.5504,-3.5504,-3.5504,-3.5504,-3.5504,-3.5504,-3.5504,-3.5638,-3.5688,-3.572,-3.5941,-3.6037,-3.6053,-3.6179,-3.6242,-3.6305,-3.646,-3.6492,-3.6492,-3.6492,-3.6492,-3.6445,-3.6245,-3.6184,-3.5953,-3.4782,-3.4335,-3.4181,-3.4181,-3.4181,-3.4181,-3.4181,-3.4351,-3.4505,-3.4505,-3.4505,-3.4505,-3.4505,-3.4335,-3.3983,-3.3475,-3.3229,-3.2921,-3.2444,-3.2398,-3.2398,-3.2398,-3.2398,-3.2398,-3.2398,-3.2398,-3.2398,-3.2398,-3.2398,-3.2398,-3.2398,-3.2398,-3.2398,-3.2398,-3.2398,-3.2398,-3.2398,-3.2259,-3.2203,-3.2203,-3.2048,-3.1794,-3.1495,-3.1495,-3.1292,-3.0999,-3.0999,-3.094,-3.0881,-3.1073,-3.1073,-3.1058,-3.1595,-3.2061,-3.2489,-3.5504,-3.5504,-3.5504,-3.5504,-3.5504,-3.5504,-3.5504,-3.5504,-3.5504,-3.5504,-3.5504,-3.5504,-3.5504,-3.5504,-3.5504,-3.5504,-3.5504,-3.5504,-3.5504,-3.5504,-3.5504,-3.5504,-3.5504,-3.5504,-3.5504,-3.5504,-3.5504,-3.5504,-3.5504,-3.5504,-3.5504,-3.5504,-3.5504,-3.5504,-3.5504,-3.5504,-3.5504,-3.5504,-3.5504,-3.5504,-3.5504,-3.5504,-3.5504,-3.5604,-3.5621,-3.5653,-3.5765,-3.5861,-3.5894,-3.6053,-3.6211,-3.6352,-3.646,-3.6492,-3.6492,-3.6492,-3.6492,-3.6492,-3.6492,-3.6492,-3.6292,-3.5506,-3.5106,-3.4905,-3.4905,-3.4905,-3.4905,-3.4905,-3.5121,-3.5306,-3.5306,-3.5306,-3.5306,-3.5306,-3.5075,-3.4751,-3.4291,-3.3752,-3.3244,-3.2844,-3.2552,-3.2398,-3.2398,-3.2398,-3.2398,-3.2398,-3.2398,-3.2398,-3.2398,-3.2398,-3.2398,-3.2398,-3.2398,-3.2398,-3.2398,-3.2398,-3.2398,-3.2398,-3.2398,-3.2398,-3.2398,-3.2398,-3.2259,-3.1979,-3.1979,-3.1809,-3.1537,-3.1537,-3.1422,-3.1292,-3.1509,-3.1452,-3.1336,-3.1737,-3.2117,-3.2516,-3.5504,-3.5504,-3.5504,-3.5504,-3.5504,-3.5504,-3.5504,-3.5504,-3.5504,-3.5504,-3.5504,-3.5504,-3.5504,-3.5504,-3.5504,-3.5504,-3.5504,-3.5504,-3.5504,-3.5504,-3.5504,-3.5504,-3.5504,-3.5504,-3.5504,-3.5504,-3.5504,-3.5504,-3.5504,-3.5504,-3.5504,-3.5504,-3.5504,-3.5504,-3.5504,-3.5504,-3.5504,-3.5504,-3.5504,-3.5504,-3.5504,-3.5504,-3.5504,-3.5504,-3.5504,-3.5504,-3.5504,-3.5572,-3.572,-3.591,-3.6195,-3.646,-3.646,-3.646,-3.6492,-3.6492,-3.6492,-3.6492,-3.6492,-3.6492,-3.6492,-3.6492,-3.603,-3.5598,-3.5598,-3.5598,-3.5598,-3.5598,-3.6061,-3.6492,-3.6492,-3.6492,-3.6492,-3.6492,-3.5984,-3.5583,-3.5521,-3.4398,-3.3537,-3.3413,-3.2859,-3.2459,-3.2398,-3.2398,-3.2398,-3.2398,-3.2398,-3.2398,-3.2398,-3.2398,-3.2398,-3.2398,-3.2398,-3.2398,-3.2398,-3.2398,-3.2398,-3.2398,-3.2398,-3.2398,-3.2398,-3.2398,-3.2398,-3.2398,-3.2398,-3.2398,-3.2398,-3.2398,-3.2148,-3.1796,-3.1953,-3.1768,-3.1452,-3.1823,-3.1992,-3.2104,-3.5504,-3.5504,-3.5504,-3.5504,-3.5504,-3.5504,-3.5504,-3.5504,-3.5504,-3.5504,-3.5504,-3.5504,-3.5504,-3.5504,-3.5504,-3.5504,-3.5504,-3.5504,-3.5504,-3.5504,-3.5504,-3.5504,-3.5504,-3.5504,-3.5504,-3.5504,-3.5504,-3.5504,-3.5504,-3.5504,-3.5504,-3.5504,-3.5504,-3.5504,-3.5504,-3.5504,-3.5504,-3.5504,-3.5504,-3.5504,-3.5504,-3.5504,-3.5504,-3.5504,-3.5504,-3.5504,-3.5504,-3.5537,-3.5587,-3.5703,-3.5926,-3.6132,-3.6242,-3.6274,-3.6305,-3.646,-3.6492,-3.6492,-3.6492,-3.6492,-3.6492,-3.6492,-3.6384,-3.6276,-3.6276,-3.6276,-3.6276,-3.6276,-3.6384,-3.6492,-3.6492,-3.6492,-3.6492,-3.6492,-3.6368,-3.6091,-3.5553,-3.526,-3.4629,-3.3537,-3.3275,-3.2982,-3.2444,-3.2398,-3.2398,-3.2398,-3.2398,-3.2398,-3.2398,-3.2398,-3.2398,-3.2398,-3.2398,-3.2398,-3.2398,-3.2398,-3.2398,-3.2398,-3.2398,-3.2398,-3.2398,-3.2398,-3.2398,-3.2398,-3.2398,-3.2398,-3.2398,-3.2398,-3.2342,-3.2259,-3.2287,-3.2259,-3.2203,-3.2539,-3.2691,-3.2773,-3.5504,-3.5504,-3.5504,-3.5504,-3.5504,-3.5504,-3.5504,-3.5504,-3.5504,-3.5504,-3.5504,-3.5504,-3.5504,-3.5504,-3.5472,-3.5359,-3.5439,-3.5439,-3.5213,-3.5294,-3.5326,-3.5213,-3.5213,-3.5213,-3.5213,-3.5213,-3.5326,-3.5504,-3.5504,-3.5504,-3.5504,-3.5504,-3.5504,-3.5504,-3.5504,-3.5504,-3.5504,-3.5504,-3.5504,-3.5504,-3.5504,-3.5504,-3.5504,-3.5504,-3.5504,-3.5504,-3.5504,-3.5554,-3.5604,-3.5671,-3.5831,-3.6005,-3.6085,-3.6116,-3.6148,-3.632,-3.6352,-3.6383,-3.646,-3.6492,-3.6492,-3.6492,-3.6492,-3.6492,-3.6492,-3.6492,-3.6492,-3.6492,-3.6492,-3.6492,-3.6492,-3.6492,-3.6492,-3.6492,-3.6492,-3.6368,-3.6014,-3.5722,-3.5244,-3.4475,-3.4106,-3.3783,-3.3457,-3.3411,-3.3411,-3.3411,-3.3411,-3.3411,-3.3411,-3.3411,-3.3411,-3.3411,-3.3411,-3.3411,-3.3411,-3.3044,-3.2875,-3.2875,-3.2552,-3.2398,-3.2398,-3.2398,-3.2398,-3.2398,-3.2398,-3.2398,-3.2398,-3.2398,-3.2398,-3.2398,-3.2398,-3.2398,-3.2425,-3.2773,-3.3058,-3.3335,-3.5504,-3.5504,-3.5504,-3.5504,-3.5504,-3.5504,-3.5504,-3.5504,-3.5504,-3.5504,-3.5472,-3.5472,-3.5504,-3.5472,-3.5359,-3.518,-3.5294,-3.5261,-3.4935,-3.5082,-3.5082,-3.4902,-3.4902,-3.4902,-3.4902,-3.4902,-3.5023,-3.5228,-3.5228,-3.5183,-3.5081,-3.5096,-3.5128,-3.5143,-3.516,-3.522,-3.5325,-3.5325,-3.54,-3.5504,-3.5504,-3.5504,-3.5504,-3.5504,-3.5504,-3.5504,-3.5504,-3.5572,-3.5671,-3.5671,-3.5782,-3.591,-3.5941,-3.5941,-3.5973,-3.6116,-3.6179,-3.6211,-3.6383,-3.646,-3.646,-3.6492,-3.6492,-3.6492,-3.6492,-3.6569,-3.6662,-3.6662,-3.6662,-3.6631,-3.6523,-3.6492,-3.6492,-3.6492,-3.6492,-3.6492,-3.6492,-3.6014,-3.5645,-3.5521,-3.4921,-3.4505,-3.4505,-3.4505,-3.4505,-3.4505,-3.4505,-3.4505,-3.4505,-3.4505,-3.4505,-3.4505,-3.4505,-3.4505,-3.4505,-3.3875,-3.3583,-3.3583,-3.3013,-3.2628,-3.2398,-3.2398,-3.2398,-3.2398,-3.2398,-3.2398,-3.2398,-3.2398,-3.2398,-3.2398,-3.2398,-3.2398,-3.2425,-3.2718,-3.315,-3.3555,-3.5504,-3.5504,-3.5504,-3.5504,-3.5504,-3.5504,-3.5504,-3.5504,-3.5504,-3.5504,-3.5359,-3.5326,-3.5472,-3.5326,-3.5148,-3.4968,-3.4968,-3.4968,-3.4902,-3.4935,-3.4935,-3.4902,-3.4902,-3.4902,-3.4902,-3.4902,-3.4655,-3.4206,-3.4206,-3.391,-3.3319,-3.352,-3.3612,-3.3597,-3.3722,-3.4083,-3.4653,-3.4653,-3.4966,-3.5504,-3.5504,-3.5504,-3.5504,-3.5504,-3.5504,-3.5504,-3.5504,-3.5504,-3.5537,-3.5537,-3.5569,-3.5587,-3.5703,-3.5752,-3.5784,-3.5973,-3.6037,-3.6068,-3.6211,-3.6242,-3.6274,-3.646,-3.6492,-3.6492,-3.6492,-3.6892,-3.7268,-3.7268,-3.7268,-3.7134,-3.6616,-3.6492,-3.6492,-3.6492,-3.6492,-3.6492,-3.6492,-3.6415,-3.6138,-3.5553,-3.4921,-3.4505,-3.4505,-3.4505,-3.4505,-3.4505,-3.4505,-3.4505,-3.4505,-3.4505,-3.4505,-3.4505,-3.4505,-3.4505,-3.4505,-3.4412,-3.4351,-3.4351,-3.4274,-3.3596,-3.2398,-3.2398,-3.2398,-3.2398,-3.2398,-3.2398,-3.2398,-3.2398,-3.2398,-3.2398,-3.2398,-3.2398,-3.2425,-3.2453,-3.2703,-3.3005,-3.5504,-3.5504,-3.5504,-3.5504,-3.5504,-3.5504,-3.5504,-3.5392,-3.5326,-3.5326,-3.5148,-3.5082,-3.5148,-3.5082,-3.4983,-3.4817,-3.4868,-3.4835,-3.4635,-3.4716,-3.475,-3.4635,-3.4601,-3.4601,-3.4601,-3.4601,-3.4328,-3.3718,-3.4233,-3.4168,-3.3551,-3.3644,-3.3484,-3.3145,-3.3315,-3.3555,-3.387,-3.4322,-3.4683,-3.4966,-3.5355,-3.5504,-3.5504,-3.5504,-3.5504,-3.5504,-3.5504,-3.5504,-3.5504,-3.5504,-3.5504,-3.5504,-3.5572,-3.5604,-3.5636,-3.5767,-3.5831,-3.5863,-3.6053,-3.6085,-3.6116,-3.6289,-3.6352,-3.643,-3.6892,-3.7208,-3.7298,-3.6952,-3.6892,-3.6816,-3.6554,-3.6492,-3.6492,-3.6492,-3.6492,-3.6492,-3.6492,-3.6492,-3.6384,-3.6076,-3.5784,-3.5629,-3.5629,-3.5629,-3.5629,-3.5629,-3.5629,-3.5629,-3.5629,-3.5629,-3.5629,-3.5629,-3.5629,-3.5629,-3.5629,-3.526,-3.5075,-3.5059,-3.469,-3.3966,-3.2952,-3.2952,-3.2752,-3.2398,-3.2398,-3.2398,-3.2398,-3.2398,-3.2398,-3.2398,-3.2398,-3.2398,-3.2398,-3.2398,-3.2621,-3.2897]},{"header":{"parameterUnit":"m.s-1","parameterCategory":1,"la1":30.6,"la2":28.766,"lo1":-90.7593,"lo2":-88.6598,"dy":0.0162,"dx":0.0183,"nx":116,"ny":114,"refTime":"2024-04-15T12:00:00:Z","depth":0,"parameterNumber":3,"parameterNumberName":"V-component_of_WINDS"},"data":[0.0,0.0,0.0,0.0,0.0,0.0,0.0,0.0,0.0,0.0,0.0,0.0,0.0,0.0,0.0,0.0,0.0,0.0,0.0,0.0,0.0,0.0,0.0,0.0,0.0,0.0,0.0,0.0,0.0,0.0,0.0,0.0,0.0,0.0,0.0,0.0,0.0,0.0,0.0,0.0,0.0,0.0,0.0,0.0,0.0,0.0,0.0,0.0,0.0,0.0,0.0,0.0,0.0,0.0,0.0,0.0,0.0,0.0,0.0,0.0,0.0,0.0,0.0,0.0,0.0,0.0,0.0,0.0,0.0,0.0,0.0,0.0,0.0,0.0,0.0,0.0,0.0,0.0,0.0,0.0,0.0,0.0,0.0,0.0,0.0,0.0,0.0,0.0,0.0,0.0,0.0,0.0,0.0,0.0,0.0,0.0,0.0,0.0,0.0,0.0,0.0,0.0,0.0,0.0,0.0,0.0,0.0,0.0,0.0,0.0,0.0,0.0,0.0,0.0,0.0,0.0,0.0,0.0,0.0,0.0,0.0,0.0,0.0,0.0,0.0,0.0,0.0,0.0,0.0,0.0,0.0,0.0,0.0,0.0,0.0,0.0,0.0,0.0,0.0,0.0,0.0,0.0,0.0,0.0,0.0,0.0,0.0,0.0,0.0,0.0,0.0,0.0,0.0,0.0,0.0,0.0,0.0,0.0,0.0,0.0,0.0,0.0,0.0,0.0,0.0,0.0,0.0,0.0,0.0,0.0,0.0,0.0,0.0,0.0,0.0,0.0,0.0,0.0,0.0,0.0,0.0,0.0,0.0,0.0,0.0,0.0,0.0,0.0,0.0,0.0,0.0,0.0,0.0,0.0,0.0,0.0,0.0,0.0,0.0,0.0,0.0,0.0,0.0,0.0,0.0,0.0,0.0,0.0,0.0,0.0,0.0,0.0,0.0,0.0,0.0,0.0,0.0,0.0,0.0,0.0,0.0,0.0,0.0,0.0,0.0,0.0,0.0,0.0,0.0,0.0,0.0,0.0,0.0,0.0,0.0,0.0,0.0,0.0,0.0,0.0,0.0,0.0,0.0,0.0,0.0,0.0,0.0,0.0,0.0,0.0,0.0,0.0,0.0,0.0,0.0,0.0,0.0,0.0,0.0,0.0,0.0,0.0,0.0,0.0,0.0,0.0,0.0,0.0,0.0,0.0,0.0,0.0,0.0,0.0,0.0,0.0,0.0,0.0,0.0,0.0,0.0,0.0,0.0,0.0,0.0,0.0,0.0,0.0,0.0,0.0,0.0,0.0,0.0,0.0,0.0,0.0,0.0,0.0,0.0,0.0,0.0,0.0,0.0,0.0,0.0,0.0,0.0,0.0,0.0,0.0,0.0,0.0,0.0,0.0,0.0,0.0,0.0,0.0,0.0,0.0,0.0,0.0,0.0,0.0,0.0,0.0,0.0,0.0,0.0,0.0,0.0,0.0,0.0,0.0,0.0,0.0,0.0,0.0,0.0,0.0,0.0,0.0,0.0,0.0,0.0,0.0,0.0,0.0,0.0,0.0,0.0,0.0,0.0,0.0,0.0,0.0,0.0,0.0,0.0,0.0,0.0,0.0,0.0,0.0,0.0,0.0,0.0,0.0,0.0,0.0,0.0,0.0,0.0,0.0,0.0,0.0,0.0,0.0,0.0,0.0,0.0,0.0,0.0,0.0,0.0,0.0,0.0,0.0,0.0,0.0,0.0,0.0,0.0,0.0,0.0,0.0,0.0,0.0,0.0,0.0,0.0,0.0,0.0,0.0,0.0,0.0,0.0,0.0,0.0,0.0,0.0,0.0,0.0,0.0,0.0,0.0,0.0,0.0,0.0,0.0,0.0,0.0,0.0,0.0,0.0,0.0,0.0,0.0,0.0,0.0,0.0,0.0,0.0,0.0,0.0,0.0,0.0,0.0,0.0,0.0,0.0,0.0,0.0,0.0,0.0,0.0,0.0,0.0,0.0,0.0,0.0,0.0,0.0,0.0,0.0,0.0,0.0,0.0,0.0,0.0,0.0,0.0,0.0,0.0,0.0,0.0,0.0,0.0,0.0,0.0,0.0,0.0,0.0,0.0,0.0,0.0,0.0,0.0,0.0,0.0,0.0,0.0,0.0,0.0,0.0,0.0,0.0,0.0,0.0,0.0,0.0,0.0,0.0,0.0,0.0,0.0,0.0,0.0,0.0,0.0,0.0,0.0,0.0,0.0,0.0,0.0,0.0,0.0,0.0,0.0,0.0,0.0,0.0,0.0,0.0,0.0,0.0,0.0,0.0,0.0,0.0,0.0,0.0,0.0,0.0,0.0,0.0,0.0,0.0,0.0,0.0,0.0,0.0,0.0,0.0,0.0,0.0,0.0,0.0,0.0,0.0,0.0,0.0,0.0,0.0,0.0,0.0,0.0,0.0,0.0,0.0,0.0,0.0,0.0,0.0,0.0,0.0,0.0,0.0,0.0,0.0,0.0,0.0,0.0,0.0,0.0,0.0,0.0,0.0,0.0,0.0,0.0,0.0,0.0,0.0,0.0,0.0,0.0,0.0,0.0,0.0,0.0,0.0,0.0,0.0,0.0,0.0,0.0,0.0,0.0,0.0,0.0,0.0,0.0,0.0,0.0,0.0,0.0,0.0,0.0,0.0,0.0,0.0,0.0,0.0,0.0,0.0,0.0,0.0,0.0,0.0,0.0,0.0,0.0,0.0,0.0,0.0,0.0,0.0,0.0,0.0,0.0,0.0,0.0,0.0,0.0,0.0,0.0,0.0,0.0,0.0,0.0,0.0,0.0,0.0,0.0,0.0,0.0,0.0,0.0,0.0,0.0,0.0,0.0,0.0,0.0,0.0,0.0,0.0,0.0,0.0,0.0,0.0,0.0,0.0,0.0,0.0,0.0,0.0,0.0,0.0,0.0,0.0,0.0,0.0,0.0,0.0,0.0,0.0,0.0,0.0,0.0,0.0,0.0,0.0,0.0,0.0,0.0,0.0,0.0,0.0,0.0,0.0,0.0,0.0,0.0,0.0,0.0,0.0,0.0,0.0,0.0,0.0,0.0,0.0,0.0,0.0,0.0,0.0,0.0,0.0,0.0,0.0,0.0,0.0,0.0,0.0,0.0,0.0,0.0,0.0,0.0,0.0,0.0,0.0,0.0,0.0,0.0,0.0,0.0,0.0,0.0,0.0,0.0,0.0,0.0,0.0,0.0,0.0,0.0,0.0,0.0,0.0,0.0,0.0,0.0,0.0,0.0,0.0,0.0,0.0,0.0,0.0,0.0,0.0,0.0,0.0,0.0,0.0,0.0,0.0,0.0,0.0,0.0,0.0,0.0,0.0,0.0,0.0,0.0,0.0,0.0,0.0,0.0,0.0,0.0,0.0,0.0,0.0,0.0,0.0,0.0,0.0,0.0,0.0,0.0,0.0,0.0,0.0,0.0,0.0,0.0,0.0,0.0,0.0,0.0,0.0,0.0,0.0,0.0,0.0,0.0,0.0,0.0,0.0,0.0,0.0,0.0,0.0,0.0,0.0,0.0,0.0,0.0,0.0,0.0,0.0,0.0,0.0,0.0,0.0,0.0,0.0,0.0,0.0,0.0,0.0,0.0,0.0,0.0,0.0,0.0,0.0,0.0,0.0,0.0,0.0,0.0,0.0,0.0,0.0,0.0,0.0,0.0,0.0,0.0,0.0,0.0,0.0,0.0,0.0,0.0,0.0,0.0,0.0,0.0,0.0,0.0,0.0,0.0,0.0,0.0,0.0,0.0,0.0,0.0,0.0,0.0,0.0,0.0,0.0,0.0,0.0,0.0,0.0,0.0,0.0,0.0,0.0,0.0,0.0,0.0,0.0,0.0,0.0,0.0,0.0,0.0,0.0,0.0,0.0,0.0,0.0,0.0,0.0,0.0,0.0,0.0,0.0,0.0,0.0,0.0,0.0,0.0,0.0,0.0,0.0,0.0,0.0,0.0,0.0,0.0,0.0,0.0,0.0,0.0,0.0,0.0,0.0,0.0,0.0,0.0,0.0,0.0,0.0,0.0,0.0,0.0,0.0,0.0,0.0,0.0,0.0,0.0,0.0,0.0,0.0,0.0,0.0,0.0,0.0,0.0,0.0,0.0,0.0,0.0,0.0,0.0,0.0,0.0,0.0,0.0,0.0,0.0,0.0,0.0,0.0,0.0,0.0,0.0,0.0,0.0,0.0,0.0,0.0,0.0,0.0,0.0,0.0,0.0,0.0,0.0,0.0,0.0,0.0,0.0,0.0,0.0,0.0,0.0,0.0,0.0,0.0,0.0,0.0,0.0,0.0,0.0,0.0,0.0,0.0,0.0,0.0,0.0,0.0,0.0,0.0,0.0,0.0,0.0,0.0,0.0,0.0,0.0,0.0,0.0,0.0,0.0,0.0,0.0,0.0,0.0,0.0,0.0,0.0,0.0,0.0,0.0,0.0,0.0,0.0,0.0,0.0,0.0,0.0,0.0,0.0,0.0,0.0,0.0,0.0,0.0,0.0,0.0,0.0,0.0,0.0,0.0,0.0,0.0,0.0,0.0,0.0,0.0,0.0,0.0,0.0,0.0,0.0,0.0,0.0,0.0,0.0,0.0,0.0,0.0,0.0,0.0,0.0,0.0,0.0,0.0,0.0,0.0,0.0,0.0,0.0,0.0,0.0,0.0,0.0,0.0,0.0,0.0,0.0,0.0,0.0,0.0,0.0,0.0,0.0,0.0,0.0,0.0,0.0,0.0,0.0,0.0,0.0,0.0,0.0,0.0,0.0,0.0,0.0,0.0,0.0,0.0,0.0,0.0,0.0,0.0,0.0,0.0,0.0,0.0,0.0,0.0,0.0,0.0,0.0,0.0,0.0,0.0,0.0,0.0,0.0,0.0,0.0,0.0,0.0,0.0,0.0,0.0,0.0,0.0,0.0,0.0,0.0,0.0,0.0,0.0,0.0,0.0,0.0,0.0,0.0,0.0,0.0,0.0,0.0,0.0,0.0,0.0,0.0,0.0,0.0,0.0,0.0,0.0,0.0,0.0,0.0,0.0,0.0,0.0,0.0,0.0,0.0,0.0,0.0,0.0,0.0,0.0,0.0,0.0,0.0,0.0,0.0,0.0,0.0,0.0,0.0,0.0,0.0,0.0,0.0,0.0,0.0,0.0,0.0,0.0,0.0,0.0,0.0,0.0,0.0,0.0,0.0,0.0,0.0,0.0,0.0,0.0,0.0,0.0,0.0,0.0,0.0,0.0,0.0,0.0,0.0,0.0,0.0,0.0,0.0,0.0,0.0,0.0,0.0,0.0,0.0,0.0,0.0,0.0,0.0,0.0,0.0,0.0,0.0,0.0,0.0,0.0,0.0,0.0,0.0,0.0,0.0,0.0,0.0,0.0,0.0,0.0,0.0,0.0,0.0,0.0,0.0,0.0,0.0,0.0,0.0,0.0,0.0,0.0,0.0,0.0,0.0,0.0,0.0,0.0,0.0,0.0,0.0,0.0,0.0,0.0,0.0,0.0,0.0,0.0,0.0,0.0,0.0,0.0,0.0,0.0,0.0,0.0,0.0,0.0,0.0,0.0,0.0,0.0,0.0,0.0,0.0,0.0,0.0,0.0,0.0,0.0,0.0,0.0,0.0,0.0,0.0,0.0,0.0,0.0,0.0,0.0,0.0,0.0,0.0,0.0,0.0,0.0,0.0,0.0,0.0,0.0,0.0,0.0,0.0,0.0,0.0,0.0,0.0,0.0,0.0,0.0,0.0,0.0,0.0,0.0,0.0,0.0,0.0,0.0,0.0,0.0,0.0,0.0,0.0,0.0,0.0,0.0,0.0,0.0,0.0,0.0,0.0,0.0,0.0,0.0,0.0,0.0,0.0,0.0,0.0,0.0,0.0,0.0,0.0,0.0,0.0,0.0,0.0,0.0,0.0,0.0,0.0,0.0,0.0,0.0,0.0,0.0,0.0,0.0,0.0,0.0,0.0,0.0,0.0,0.0,0.0,0.0,0.0,0.0,0.0,0.0,0.0,0.0,0.0,0.0,0.0,0.0,0.0,0.0,0.0,0.0,0.0,0.0,0.0,0.0,0.0,0.0,0.0,0.0,0.0,0.0,0.0,0.0,0.0,0.0,0.0,0.0,0.0,0.0,0.0,0.0,0.0,0.0,0.0,0.0,0.0,0.0,0.0,0.0,0.0,0.0,0.0,0.6677,0.669,0.6748,0.6653,0.6612,0.6612,0.0,0.0,0.0,0.0,0.0,0.7088,0.7088,0.7088,0.7088,0.7088,0.7044,0.6959,0.7441,0.7969,0.8588,0.0,0.0,0.0,0.0,0.0,0.0,0.0,0.0,0.0,0.0,0.0,0.0,0.0,0.0,0.0,0.0,0.0,0.0,0.0,0.0,0.0,0.0,0.0,0.0,0.0,0.0,0.0,0.0,0.0,0.0,0.0,0.0,0.0,0.0,0.0,0.0,0.0,0.0,0.0,0.0,0.0,0.0,0.0,0.0,0.0,0.0,0.0,0.0,0.0,0.0,0.0,0.0,0.0,0.0,0.0,0.0,0.0,0.0,0.0,0.0,0.0,0.0,0.0,0.0,0.0,0.0,0.0,0.0,0.0,0.0,0.0,0.0,0.0,0.0,0.0,0.0,0.0,0.0,0.0,0.0,0.0,0.0,0.0,0.0,0.0,0.0,0.0,0.0,0.0,0.0,0.0,0.0,0.0,0.6567,0.6836,0.6836,0.6925,0.7095,0.6966,0.6836,0.6836,0.6836,0.6745,0.6517,0.6877,0.7272,0.7658,0.7834,0.7834,0.7658,0.7658,0.7573,0.7445,0.8149,0.8328,0.8157,0.9248,0.0,0.0,0.0,0.0,0.0,0.0,0.0,0.0,0.0,0.0,0.0,0.0,0.0,0.0,0.0,0.0,0.0,0.0,0.0,0.0,0.0,0.0,0.0,0.0,0.0,0.0,0.0,0.0,0.0,0.0,0.0,0.0,0.0,0.0,0.0,0.0,0.0,0.0,0.0,0.0,0.0,0.0,0.0,0.0,0.0,0.0,0.0,0.0,0.0,0.0,0.0,0.0,0.0,0.0,0.0,0.0,0.0,0.0,0.0,0.0,0.0,0.0,0.0,0.0556,0.0455,0.0455,0.0202,0.0051,0.0051,0.0,0.0,0.0,0.0,0.0,0.0,0.0,0.0,0.0,0.0,0.0,0.0,0.0,0.0,0.0,0.0,0.0,0.0,0.0,0.0,0.0,0.0,0.0,0.6836,0.7054,0.7051,0.7051,0.7095,0.7098,0.7051,0.7051,0.7051,0.7051,0.7007,0.7841,0.7929,0.7228,0.7973,0.8017,0.7183,0.7183,0.7183,0.7183,0.7672,0.7896,0.7893,0.8504,0.9205,0.9903,0.0,0.0,0.0,0.0,0.0,0.0,0.0,0.0,0.0,0.0,0.0,0.0,0.0,0.0,0.0,0.0,0.0,0.0,0.0,0.0,0.0,0.0,0.0,0.0,0.0,0.0,0.0,0.0,0.0,0.0,0.0,0.0,0.0,0.0,0.0,0.0,0.0,0.0,0.0,0.0,0.0,0.7988,0.7988,0.0,0.0,0.0,0.0,0.0,0.0,0.0,0.0,0.0,0.0,0.0,0.0,0.0,0.3723,0.3572,0.1715,0.0808,0.0808,0.0758,0.0758,0.0758,0.0455,0.0354,0.0354,0.0101,0.0,0.0,0.0,0.0,0.0,0.0,0.0,0.0,0.0,0.0,0.0,0.0,0.0,0.0,0.0,0.0,0.0,0.0,0.0,0.0,0.0,0.0,0.0,0.0,0.7095,0.7143,0.7323,0.7323,0.7411,0.7544,0.8017,0.8061,0.7588,0.8412,0.8711,0.8277,0.8667,0.8711,0.8273,0.7628,0.7411,0.754,0.7764,0.8113,0.8584,0.8846,0.9288,0.9946,1.0463,0.0,0.0,0.0,0.0,0.0,0.0,0.0,0.0,0.0,0.0,0.0,0.0,0.0,0.0,0.0,0.0,0.0,0.0,0.0,0.0,0.0,0.0,0.0,0.0,0.0,0.0,0.0,0.0,0.0,0.0,0.0,0.0,0.0,0.0,0.0,0.0,0.0,0.0,0.0,0.7988,0.7988,0.7988,0.7988,0.7988,0.0,0.0,0.0,0.0,0.0,0.0,0.0,0.0,0.0,0.6937,0.5412,0.4314,0.3739,0.2807,0.1977,0.1302,0.1145,0.1093,0.1093,0.0781,0.0573,0.0417,0.0258,0.0154,0.0,0.0,0.0,0.0,0.0,0.0,0.0,0.0,-0.0152,-0.0202,0.0,0.0,0.0,0.0,0.0,0.0,0.0,0.0,0.0,0.0,0.0,0.0,0.6653,0.701,0.7279,0.7462,0.7547,0.768,0.79,0.85,0.8588,0.794,0.8715,0.9104,0.889,0.8846,0.8846,0.8846,0.8025,0.7724,0.79,0.8113,0.8588,0.9231,0.971,1.0106,1.0463,1.1192,1.1628,1.1843,0.0,0.0,0.0,0.0,0.0,0.0,0.0,0.0,0.0,0.0,0.0,0.0,0.0,0.0,0.0,0.0,0.0,0.0,0.0,0.0,0.0,0.0,0.0,0.0,0.0,0.0,0.0,0.0,0.0,0.0,0.0,0.0,0.0,0.0,0.0,0.0,0.0,0.8038,0.7988,0.7988,0.7988,0.7988,0.0,0.0,0.0,0.0,0.0,0.0,0.815,0.7389,0.7026,0.7167,0.6137,0.5198,0.4441,0.4174,0.3427,0.2196,0.2036,0.171,0.1385,0.1119,0.0853,0.0639,0.0579,0.0366,0.0104,0.0051,0.0,0.0,0.0,0.0,0.0,0.0,0.0,0.0,0.0,0.0,0.0,0.0,0.0,0.0,0.0,0.0,0.0,0.0,0.0,0.5719,0.5764,0.6792,0.7507,0.7507,0.7724,0.79,0.79,0.7944,0.7944,0.79,0.8715,0.8803,0.7984,0.7984,0.7984,0.7984,0.79,0.79,0.7896,0.8759,0.9144,0.9274,1.1058,1.188,1.1886,1.1929,1.2485,1.3307,1.3307,0.0,0.0,0.0,0.0,0.0,0.0,0.0,0.0,0.0,0.0,0.0,0.0,0.0,0.0,0.0,0.0,0.0,0.0,0.0,0.0,0.0,0.0,0.0,0.0,0.0,0.0,0.0,0.0,0.0,0.0,0.0,0.0,0.0,0.0,0.0,0.0,0.0,0.0,0.7988,0.7988,0.0,0.0,0.0,0.0,0.8248,0.831,0.8319,0.8452,0.8406,0.841,0.8416,0.736,0.6839,0.691,0.5926,0.4787,0.3594,0.3594,0.2918,0.1651,0.1385,0.1278,0.1225,0.0959,0.0692,0.0372,0.0103,0.0,0.0,0.0,0.0,0.0,0.0,0.0,0.0,0.0,0.0,0.0,0.0,0.0,0.0448,0.0986,0.1299,0.1881,0.309,0.4158,0.5092,0.5894,0.6877,0.7635,0.794,0.8028,0.816,0.8344,0.8859,0.8947,0.8388,0.9205,0.9248,0.8388,0.816,0.816,0.8344,0.816,0.816,0.8388,0.9248,0.998,1.0626,1.188,1.279,1.3307,1.3052,1.3094,1.3398,1.3398,1.3398,0.0,0.0,0.0,0.0,0.0,0.0,0.0,0.0,0.0,0.0,0.0,0.0,0.0,0.0,0.0,0.0,0.0,0.0,0.0,0.0,0.0,0.0,0.0,0.0,0.0,0.0,0.0,0.0,0.0,0.0,0.0,0.0,0.0,0.0,0.0,0.0,0.0,0.8477,0.8437,0.0,0.8313,0.8323,0.8347,0.8404,0.8496,0.8574,0.8625,0.8723,0.8818,0.8965,0.8579,0.8091,0.7428,0.7028,0.5832,0.3779,0.3779,0.3085,0.1821,0.1688,0.1512,0.1342,0.1204,0.0976,0.0703,0.0634,0.0364,0.0,0.0,0.0,0.0,0.0,0.0,0.0,0.0,0.0,0.0,0.0,0.0,0.0448,0.0673,0.0942,0.139,0.2285,0.3312,0.4336,0.5492,0.6605,0.7496,0.8157,0.8288,0.8428,0.8568,0.9126,0.9213,0.8612,0.917,0.917,0.8612,0.8428,0.8456,0.8653,0.8512,0.8544,0.8792,0.9669,1.0553,1.144,1.2394,1.3267,1.4088,1.3779,1.3652,1.3652,1.3652,1.3652,1.3652,0.0,0.0,0.0,0.0,0.0,0.0,0.0,0.0,0.0,0.0,0.0,0.0,0.0,0.0,0.0,0.0,0.0,0.0,0.0,0.0,0.0,0.0,0.0,0.0,0.0,0.0,0.0,0.0,0.0,0.0,0.0,0.0,0.0,0.0,0.8923,0.8901,0.8864,0.8921,0.8922,0.8762,0.8764,0.8762,0.876,0.8801,0.8882,0.8933,0.9032,0.9133,0.9282,0.9286,0.8954,0.8275,0.8275,0.7212,0.5147,0.5147,0.4251,0.253,0.2489,0.2126,0.155,0.1507,0.1324,0.1046,0.1029,0.0695,0.0158,0.0154,0.0102,0.0,0.0,0.0,0.0,0.0,0.0,0.0,0.0,0.0,0.0493,0.0673,0.0942,0.1166,0.139,0.2465,0.3537,0.4469,0.5891,0.7177,0.8065,0.8428,0.8612,0.8612,0.8612,0.8612,0.8612,0.8612,0.8612,0.8612,0.8616,0.8658,0.882,0.8828,0.8922,0.9143,1.0065,1.0863,1.1632,1.2557,1.3386,1.4059,1.4088,1.413,1.413,1.4088,1.4088,1.4088,0.0,0.0,0.0,0.0,0.0,0.0,0.0,0.0,0.0,0.0,0.0,0.0,0.0,0.0,0.0,0.0,0.0,0.0,0.0,0.0,0.0,0.0,0.0,0.0,0.0,0.0,0.0,0.0,0.0,0.0,0.0,0.0,0.0,0.9438,0.9183,0.9133,0.9152,0.9433,0.9524,0.9266,0.9355,0.9342,0.9204,0.9221,0.9289,0.9381,0.9391,0.9395,0.9395,0.9395,0.9466,0.9615,0.9615,0.901,0.7801,0.7801,0.6375,0.3824,0.3821,0.3047,0.1782,0.181,0.1628,0.1288,0.1322,0.0985,0.0436,0.0421,0.0257,0.0,0.0,0.0,0.0,0.0,0.0,0.0,-0.1211,-0.009,0.0628,0.0673,0.1031,0.1345,0.1391,0.2465,0.336,0.3846,0.5622,0.6959,0.736,0.812,0.8612,0.8612,0.8612,0.8612,0.8612,0.8612,0.8612,0.8612,0.8686,0.8775,0.882,0.8954,0.9047,0.9143,1.0065,1.0624,1.0878,1.2327,1.3092,1.3361,1.4028,1.4321,1.4321,1.4166,1.4088,1.4088,0.0,0.0,0.0,0.0,0.0,0.0,0.0,0.0,0.0,0.0,0.0,0.0,0.0,0.0,0.0,0.0,0.0,0.0,0.0,0.0,0.0,0.0,0.0,0.0,0.0,0.0,0.0,0.0,0.0,0.0,0.0,1.3811,1.2787,1.0113,0.9704,0.9777,0.9946,1.0074,1.0059,1.0021,1.003,0.996,0.9716,0.9771,0.9738,0.9544,0.9646,0.97,0.97,0.97,0.972,0.9764,0.9764,0.909,0.7867,0.7867,0.6454,0.3887,0.389,0.3132,0.1871,0.1841,0.1758,0.1682,0.1674,0.1438,0.1035,0.0579,0.0259,0.0,0.0,0.0,0.0,0.0,0.0,0.0,-0.1614,-0.0224,0.0718,0.0718,0.1076,0.1391,0.1391,0.2108,0.2868,0.3534,0.5179,0.647,0.7051,0.8032,0.8612,0.8612,0.8696,0.874,0.874,0.8899,0.9025,0.9025,0.9162,0.9292,0.9364,0.9477,0.9574,0.965,1.0217,1.0641,1.0978,1.1946,1.2778,1.3553,1.3931,1.437,1.4703,1.446,1.4286,1.4243,1.4328,1.4286,1.4243,1.4328,1.437,1.4328,1.4243,0.0,0.0,0.0,0.0,0.0,0.0,0.0,0.0,0.0,0.0,0.0,0.0,0.0,0.0,0.0,0.0,0.0,0.0,0.0,0.0,0.0,0.0,0.0,0.0,1.4327,1.3657,1.1954,1.1254,1.1019,1.1134,1.0943,1.0772,1.0623,1.0645,1.0565,1.0096,1.0123,1.0056,0.9696,0.9778,0.9822,0.9822,0.9822,0.9822,0.9822,0.9822,0.9451,0.8714,0.8714,0.7612,0.5588,0.5569,0.4771,0.3408,0.2892,0.2618,0.2521,0.2019,0.1617,0.0,0.0,0.0,0.0,0.0,0.0,0.0,0.0,0.0,0.0,-0.1793,-0.0403,0.0583,0.0673,0.1076,0.1391,0.1391,0.1615,0.2241,0.3312,0.4514,0.5672,0.6827,0.7852,0.848,0.8612,0.8784,0.8876,0.8941,0.9317,0.9592,0.9614,0.9813,0.9998,1.011,1.0136,1.0237,1.0413,1.0413,1.0754,1.1397,1.1467,1.2368,1.3882,1.3698,1.4174,1.5045,1.4768,1.4559,1.444,1.465,1.4608,1.4482,1.465,1.4692,1.465,1.4482,0.0,0.0,0.0,0.0,0.0,0.0,0.0,0.0,0.0,0.0,0.0,0.0,0.0,0.0,0.0,0.0,0.0,0.0,0.0,0.0,0.0,0.0,0.0,0.0,1.4414,1.4131,1.441,1.3454,1.2686,1.2521,1.1884,1.139,1.1114,1.1247,1.1091,1.0425,1.0365,1.0183,0.9822,0.0,0.0,0.0,0.0,0.9822,0.9822,0.9822,0.9822,0.9822,0.9822,0.9143,0.7914,0.7815,0.6986,0.5584,0.4459,0.3932,0.3758,0.2523,0.1739,0.1344,0.1266,0.0857,0.0363,0.0102,0.0,0.0,0.0,0.0,0.0,-0.2822,-0.1387,-0.0179,0.0583,0.1076,0.1391,0.1391,0.1615,0.1973,0.2422,0.3492,0.465,0.5852,0.683,0.772,0.8568,0.8656,0.8806,0.9123,0.9251,0.9431,0.9822,0.9965,1.0074,1.011,1.0272,1.0373,1.0413,1.0413,1.0489,1.064,1.125,1.1711,1.2078,1.2803,1.3558,1.4228,1.4399,1.4532,1.465,1.4692,1.4692,1.465,1.4692,1.4692,1.4692,1.465,1.465,1.4692,1.465,1.465,0.0,0.0,0.0,0.0,0.0,0.0,0.0,0.0,0.0,0.0,0.0,0.0,0.0,0.0,0.0,0.0,0.0,0.0,0.0,1.6281,1.66,1.6491,1.5535,1.4922,1.426,1.3337,1.2184,1.1557,1.1647,1.1692,1.1405,1.0728,1.0728,1.0425,0.9819,0.9822,0.9822,0.9822,0.9822,0.9822,0.9822,0.9822,0.9822,0.9822,0.0,0.0,0.7917,0.7895,0.7158,0.5798,0.5412,0.5209,0.5125,0.3768,0.2632,0.1624,0.0881,0.0482,0.0363,0.0103,0.0,0.0,0.0,0.0,0.0,-0.3715,-0.2013,-0.0537,-0.009,0.0807,0.1391,0.1391,0.1525,0.1749,0.2154,0.3135,0.4293,0.5586,0.701,0.8076,0.8564,0.8696,0.8903,0.9173,0.954,0.9872,1.0171,1.0503,1.0646,1.0646,1.0751,1.0801,1.0801,1.0801,1.0801,1.0801,1.1182,1.1616,1.2119,1.2499,1.3146,1.391,1.4265,1.4459,1.4597,1.4923,1.4999,1.4915,1.4999,1.5041,1.5041,1.4915,1.4957,1.5041,1.4915,1.4957,1.5041,0.0,0.0,0.0,0.0,0.0,0.0,0.0,0.0,0.0,0.0,0.0,0.0,0.0,0.0,1.6092,1.6246,0.0,1.6857,1.7094,1.7522,1.7479,1.6484,1.5614,1.4634,1.3465,1.234,1.1675,1.1768,1.1776,1.1587,1.1091,1.091,1.0607,1.0061,0.9879,0.9822,0.9822,0.9822,0.9822,0.9822,0.9822,0.9822,0.9822,0.9822,0.9454,0.8839,0.8839,0.8464,0.7682,0.6911,0.6568,0.6346,0.439,0.3246,0.2574,0.1334,0.0764,0.0638,0.0314,0.0103,0.0,0.0,0.0,0.0,-0.4389,-0.2504,-0.0984,-0.0716,0.0448,0.1345,0.1391,0.1391,0.157,0.2064,0.2822,0.3979,0.5542,0.7496,0.8612,0.8612,0.874,0.8964,0.9224,0.9841,1.0271,1.0564,1.0967,1.1194,1.1194,1.1194,1.1194,1.1194,1.1194,1.1194,1.1194,1.1194,1.1629,1.2382,1.2199,1.2656,1.3548,1.381,1.4018,1.4182,1.4684,1.4999,1.5173,1.5347,1.5389,1.5389,1.5215,1.5257,1.5389,1.5215,1.5257,1.5389,1.5215,1.5173,0.0,0.0,0.0,0.0,0.0,0.0,0.0,0.0,1.64,1.6143,1.5953,1.6106,1.6362,1.6469,1.6722,1.701,1.7245,1.7592,1.7418,1.6418,1.5657,1.4643,1.3125,1.2277,1.1776,1.1776,1.1776,1.1651,1.1333,1.1031,1.0728,1.0304,1.0122,0.9943,0.9883,0.9883,0.9883,0.9883,0.9819,0.9822,0.9822,0.9822,0.9822,0.9822,0.9822,0.9758,0.9579,0.8454,0.7714,0.7169,0.5114,0.4137,0.3802,0.2575,0.1778,0.1257,0.0634,0.026,0.0052,0.0,0.0,0.0,0.0,0.0,-0.1921,-0.085,0.0358,0.1211,0.1391,0.1391,0.1525,0.1794,0.2154,0.327,0.5497,0.7496,0.8612,0.8612,0.8612,0.8893,0.9423,0.9782,1.0198,1.076,1.1037,1.1194,1.1194,1.1194,1.1194,1.1194,1.1194,1.1194,1.1194,1.1194,1.1243,1.1385,1.1365,1.1766,1.2449,1.2281,1.258,1.3142,1.304,1.4006,1.5389,1.5389,1.5389,1.5389,1.5389,1.5389,1.5389,1.5389,1.5389,1.5389,1.5389,1.5389,1.5447,1.5739,1.625,1.6679,1.6531,1.6714,1.6842,0.0,1.64,1.6205,1.6221,1.6253,1.6482,1.7005,1.6417,1.5969,1.6229,1.6751,1.6298,1.3922,1.4746,1.4643,1.2221,1.1885,1.1776,1.1776,1.1776,1.1651,1.1333,1.1273,1.097,1.0304,1.0547,1.0547,1.0243,1.0243,1.0243,1.0243,0.994,0.9822,0.9822,0.9822,0.9822,0.9822,0.9822,0.9812,0.9781,0.9382,0.8416,0.7115,0.6821,0.6089,0.5194,0.5027,0.4075,0.2667,0.1022,0.0369,0.0311,0.0,0.0,0.0,0.0,0.0,-0.2323,-0.1832,-0.0134,0.1121,0.1211,0.1345,0.148,0.1749,0.2644,0.3805,0.5406,0.6384,0.7408,0.8524,0.8032,0.8135,0.9063,0.9452,0.9823,1.0233,1.0693,1.0949,1.0949,1.1096,1.1194,1.1194,1.1194,1.1194,1.1194,1.1194,1.1194,1.1189,1.1071,1.1207,1.1517,1.1654,1.1892,1.2214,1.2562,1.319,1.3837,1.3837,1.4181,0.0,1.4006,1.4181,1.4657,1.4657,1.4657,1.4741,1.5257,1.5389,1.554,1.6045,1.6551,1.6901,1.6953,1.6965,1.6932,1.6683,1.6545,1.647,1.635,1.6037,1.5872,1.6105,1.6078,1.5909,1.545,1.6928,1.7059,1.3927,1.4736,1.4624,1.2074,1.1776,1.1776,1.1776,1.1776,1.1712,1.1587,1.1398,1.1152,1.091,1.0849,1.0728,1.0607,1.0607,1.0486,1.0304,1.0183,1.0001,0.9822,0.9822,0.9822,0.9822,0.9822,0.9727,0.9557,0.9435,0.8923,0.81,0.7376,0.6816,0.6313,0.5639,0.4582,0.3235,0.2126,0.1177,0.0368,0.0,0.0,0.0,0.0,0.0,-0.2904,-0.2546,-0.0805,0.0628,0.1031,0.1211,0.1436,0.1749,0.3001,0.4115,0.4914,0.5406,0.6299,0.772,0.7095,0.7115,0.7989,0.8433,0.8715,0.893,0.9738,1.0193,1.0246,1.0741,1.1016,1.1113,1.117,1.1165,1.1113,1.1113,1.108,1.1014,1.0868,1.0806,1.082,1.1121,1.1232,1.1295,1.1792,1.1955,1.204,1.2504,1.3148,1.362,1.293,1.3317,1.4055,1.3795,1.388,1.4181,1.4566,1.4775,1.4962,1.548,1.5892,1.6195,1.631,1.6543,1.6619,1.6273,1.6518,1.6672,1.614,1.5713,1.5325,1.5083,1.524,1.5144,1.4488,1.6086,1.6483,1.3591,1.4262,1.4267,1.2074,1.1776,1.1776,1.1776,1.1776,1.1776,1.1776,1.1587,1.1398,1.1273,1.1156,1.1035,1.097,1.097,1.0789,1.0425,1.0365,1.0122,0.9822,0.9822,0.9822,0.9819,0.9781,0.9625,0.9381,0.9337,0.9174,0.8826,0.7934,0.7598,0.7487,0.67,0.5641,0.4467,0.3915,0.2332,0.0479,0.0,0.0,0.0,0.0,0.0,-0.3848,-0.2681,-0.1654,-0.0537,0.0896,0.1121,0.13,0.1749,0.2865,0.3714,0.3937,0.5008,0.5719,0.5764,0.5764,0.586,0.6068,0.6347,0.6547,0.6685,0.7915,0.8664,0.8847,0.9987,1.0667,1.091,1.1104,1.109,1.0905,1.0905,1.0787,1.0635,1.063,1.063,1.0611,1.0403,1.0362,1.0338,1.0163,1.0081,1.0294,1.2083,1.2717,1.276,1.2717,1.3317,1.3928,1.3021,1.3366,1.3922,1.3063,1.3136,1.3556,1.3574,1.4003,1.4304,1.4064,1.5,1.58,1.525,1.6176,1.678,1.5649,1.5399,1.5117,1.4292,1.3573,1.3084,1.3036,1.3503,1.3366,1.2074,1.296,1.3255,1.1953,1.1776,1.1776,0.0,1.1776,1.1776,1.1776,1.1776,1.1647,1.1333,1.1587,1.1647,1.1273,1.1273,1.1091,1.0789,1.0486,1.0122,0.9822,0.9822,0.9822,0.9815,0.968,0.953,0.9371,0.9282,0.9076,0.8885,0.8881,0.883,0.883,0.8826,0.8045,0.693,0.6417,0.3938,0.0851,0.0,0.0,0.0,0.0,0.0,0.0,-0.3848,-0.2236,-0.0671,0.0493,0.0897,0.0,0.0,0.0,0.0,0.0,0.3401,0.3981,0.5406,0.4872,0.4888,0.5776,0.6031,0.6136,0.6181,0.6867,0.7433,0.7854,0.8378,0.8879,0.931,0.9368,0.9364,0.931,0.978,0.9932,0.9908,1.0246,1.0417,1.0403,1.0189,1.0104,1.0099,1.0023,0.9994,1.0081,0.0,1.1273,1.166,1.1106,1.1488,1.2174,1.1875,1.2003,1.2303,1.2595,1.3061,1.3483,1.3483,1.377,1.4022,1.392,1.4224,1.4469,1.4272,1.4865,1.5263,1.4659,1.4128,1.3564,1.3048,1.2971,1.2711,1.1941,1.3447,1.4099,1.2057,1.29,1.3255,1.1953,1.1776,0.0,0.0,0.0,0.0,1.1776,1.1776,1.1776,1.1647,1.1712,1.1776,1.1647,1.1647,1.1462,1.1152,1.0789,1.0486,1.0122,0.9883,0.9822,0.9815,0.9676,0.9527,0.9371,0.9275,0.9069,0.8885,0.8885,0.8885,0.8885,0.8885,0.8156,0.7096,0.6871,0.5253,0.2977,0.0,0.0,0.0,0.0,0.0,0.0,0.0,0.0,0.0,0.0,0.0,0.0,0.0,0.0,0.0,0.0,0.0,0.278,0.4158,0.3669,0.3671,0.4518,0.4664,0.4788,0.4879,0.5491,0.5988,0.6403,0.7141,0.7677,0.8101,0.8393,0.8482,0.8428,0.8844,0.8992,0.8918,0.9261,0.9571,0.9785,0.9652,0.9772,0.9994,0.9994,0.9951,0.0,0.9951,1.0294,1.0636,1.0168,1.0598,1.1241,1.0939,1.0852,1.0954,1.1635,1.2121,1.246,1.2549,1.2767,1.2942,1.2932,1.3232,1.3512,1.3412,1.398,1.43,1.3581,1.3012,1.2475,1.1774,1.1995,1.2001,1.1228,1.2712,1.34,1.1898,1.244,1.2724,1.1897,1.1776,1.1776,0.0,0.0,0.0,1.1776,1.1776,1.1776,1.1776,1.1776,1.1776,1.1776,1.1776,1.1647,1.1273,1.097,1.0547,1.0126,0.9883,0.9822,0.9815,0.9615,0.9473,0.9371,0.9164,0.9025,0.8885,0.8885,0.8885,0.8885,0.8885,0.8436,0.7709,0.7654,0.6476,0.4765,0.0,0.0,0.0,0.0,0.0,0.0,0.0,0.0,0.0,0.0,0.0,0.0,0.0,0.0,0.0,0.0,0.0,0.0,0.2199,0.2199,0.2289,0.2469,0.2513,0.2604,0.2873,0.3765,0.4342,0.4559,0.6139,0.7018,0.7255,0.7951,0.8175,0.7985,0.803,0.7893,0.7698,0.7698,0.8141,0.8846,0.8846,0.9288,0.9951,0.9951,0.982,0.9602,0.9864,0.982,0.9646,0.9907,1.0554,1.1111,1.025,1.0004,1.0051,1.026,1.0469,1.0636,1.0853,1.1057,1.1166,1.113,1.2079,1.2936,1.2679,1.3413,1.3775,1.2513,1.2173,1.1739,1.0576,1.0708,1.0944,1.0956,1.1252,1.1488,1.1496,1.1658,1.1776,1.1776,1.1776,0.0,0.0,0.0,0.0,1.1776,0.0,1.1776,1.1776,1.1776,1.1776,1.1776,1.1776,1.1651,1.1333,1.097,1.0486,0.9822,0.9822,0.9819,0.9798,0.9513,0.9378,0.9354,0.9066,0.8885,0.8885,0.8885,0.8885,0.8885,0.8885,0.8885,0.8881,0.8598,0.7615,0.6234,0.0,0.0,0.0,0.0,0.0,0.0,0.0,0.0,0.0,0.0,0.0,0.0,0.0,0.0,0.0,0.0,0.0,0.0,0.1885,0.1885,0.2019,0.2244,0.2424,0.2513,0.2604,0.3053,0.3454,0.3853,0.4275,0.469,0.5093,0.53,0.5343,0.5315,0.5849,0.6055,0.6065,0.6549,0.7254,0.8097,0.8097,0.8632,0.9476,0.9476,0.9432,0.9388,0.9432,0.9432,0.9432,0.9864,1.0164,1.0294,1.0081,1.0108,1.0246,1.0303,1.0532,1.0858,1.1061,1.1126,1.118,1.128,1.1569,1.1813,1.1761,1.1959,1.1978,1.1464,1.1184,1.0854,1.0334,1.0416,1.0611,1.0741,1.1062,0.0,1.148,1.1658,0.0,1.1776,1.1776,1.1776,1.1776,1.1776,0.0,0.0,1.1776,1.1776,1.1776,1.1776,1.1776,1.1776,1.1776,1.1776,1.1651,1.1095,1.0486,0.9822,0.9822,0.9768,0.9656,0.9466,0.932,0.9258,0.9018,0.8885,0.8885,0.8885,0.8885,0.8885,0.8885,0.8885,0.8881,0.8826,0.833,0.7578,0.0,0.0,0.0,0.0,0.0,0.0,0.0,0.0,0.0,0.0,0.0,0.0,0.0,0.0,0.0,0.0,0.0,0.0,0.0,0.1615,0.1749,0.2019,0.2154,0.2289,0.2513,0.2649,0.2918,0.3275,0.3497,0.3721,0.3987,0.421,0.43,0.43,0.4741,0.4919,0.4961,0.5314,0.5977,0.0,0.0,0.7526,0.8636,0.8636,0.8859,0.913,0.9262,0.9305,0.9349,0.9607,0.9694,0.9694,0.9694,0.9792,0.9976,1.0063,1.0408,1.077,1.091,1.1025,1.1162,1.1358,1.1403,1.1432,1.1452,1.1327,1.1146,1.0806,1.0604,1.0407,1.0252,1.0297,1.0424,0.0,0.0,0.0,1.1342,1.1537,1.1687,0.0,1.1776,0.0,1.1776,1.1776,1.1776,0.0,1.1776,1.1776,1.1776,1.1776,1.1776,1.1776,1.1776,1.1712,1.1587,1.1035,1.0547,1.0004,0.9883,0.9747,0.9605,0.9452,0.9354,0.9204,0.9001,0.8885,0.8885,0.8885,0.8885,0.8885,0.8885,0.8885,0.8885,0.8885,0.8573,0.8152,0.0,0.0,0.0,0.0,0.0,0.0,0.0,0.0,0.0,0.0,0.0538,0.0807,0.0,0.0,0.0,0.0,0.0,0.0,0.0,0.0,0.0,0.1749,0.1794,0.2019,0.2469,0.2469,0.2604,0.2829,0.3275,0.3452,0.3408,0.3853,0.4032,0.4032,0.4032,0.4032,0.4032,0.4032,0.4474,0.5181,0.5181,0.6065,0.7434,0.0,0.0,0.8688,0.9082,0.9218,0.9218,0.9218,0.9262,0.9305,0.9305,0.9411,0.9581,0.9743,1.015,1.0581,1.07,1.0921,1.1183,1.1351,1.1374,1.1353,1.141,1.1194,1.0824,1.0448,1.0254,1.0222,1.0222,1.0215,1.0341,1.0686,0.0,1.0873,1.1171,1.1382,1.1569,1.1756,1.1776,1.1776,1.1776,1.1776,1.1776,1.1776,1.1776,1.1776,1.1776,1.1776,1.1776,1.1776,1.1776,1.1647,1.1273,1.097,1.0607,1.0304,0.9943,0.9737,0.9574,0.9442,0.9289,0.9173,0.8991,0.8885,0.8885,0.8885,0.8885,0.8885,0.8885,0.8885,0.8885,0.8885,0.8668,0.829,0.0,0.0,0.0,0.0,0.0,0.0,0.0,0.0,0.0,0.0,0.0449,0.0718,0.0,0.0,0.0,0.0,0.0,0.0,0.0,0.0,0.0,0.0,0.166,0.193,0.2243,0.2424,0.2513,0.2558,0.2648,0.2603,0.2423,0.2512,0.2557,0.2557,0.2557,0.2557,0.2557,0.2557,0.3092,0.389,0.389,0.4554,0.5573,0.0,0.0,0.0,0.834,0.8744,0.8744,0.8744,0.8999,0.9305,0.9305,0.9499,0.9747,0.9778,1.0202,1.0709,1.0883,1.1115,1.1248,1.1336,1.1164,1.1043,1.0853,1.0484,1.016,1.0077,0.99,0.9726,0.9726,1.0029,1.0314,1.0285,1.0696,1.1091,1.1171,1.1382,1.1569,0.0,1.1776,1.1776,1.1776,1.1776,0.0,0.0,1.1776,1.1776,1.1776,1.1776,1.1776,1.1776,1.1776,1.1647,1.1273,1.097,1.0607,1.0304,0.9943,0.968,0.9418,0.9395,0.9232,0.8974,0.8895,0.0,0.8885,0.8885,0.8885,0.8885,0.8885,0.8885,0.8885,0.8885,0.8706,0.8414,0.0,0.0,0.0,0.0,0.0,0.0,0.0,-0.0987,-0.0494,-0.0045,0.0314,0.0583,0.0673,0.1121,0.1391,0.0,0.0,0.0,0.0,0.0,0.0,0.0,0.0,0.0,0.0,0.2064,0.2199,0.2334,0.0,0.2289,0.2199,0.2199,0.2199,0.2199,0.2199,0.2199,0.2199,0.2199,0.2466,0.2867,0.2867,0.3444,0.0,0.0,0.0,0.0,0.0,0.8296,0.8384,0.8384,0.8648,0.8932,0.9021,0.9241,0.9439,0.9579,0.9964,1.0347,1.0429,1.06,1.0781,1.0781,1.0712,1.0642,1.0547,1.038,1.0167,1.0019,0.9924,0.9826,0.9826,0.9896,1.002,1.0203,1.0456,1.07,1.0895,1.1183,1.1423,1.161,1.1715,1.1776,1.1776,1.1776,1.1776,1.1776,1.1776,1.1776,1.1776,1.1776,1.1776,1.1776,1.1776,1.1712,1.1587,1.1216,1.091,1.0547,1.0166,0.9773,0.9378,0.9357,0.9144,0.8885,0.8885,0.8885,0.8885,0.8885,0.8885,0.8885,0.8885,0.8885,0.8885,0.8885,0.8747,0.8482,0.0,0.0,0.0,0.0,0.0,0.0,-0.1301,-0.0494,0.0,0.0,0.0224,0.0493,0.0673,0.1076,0.1345,0.0,0.0,0.0,0.0,0.0,0.0,0.0,0.0,0.0,0.0,0.0,0.0,0.2109,0.2109,0.0,0.0,0.0,0.0,0.0,0.2019,0.2019,0.2019,0.2019,0.2019,0.0,0.0,0.2465,0.0,0.0,0.0,0.0,0.0,0.7669,0.7841,0.8109,0.8336,0.8557,0.8767,0.8978,0.9133,0.9351,0.9657,0.9958,0.9898,1.0073,1.0255,1.0213,1.0205,1.0205,1.0209,1.0216,1.0167,0.9969,0.992,0.992,0.992,0.9772,0.9788,1.0171,1.0219,1.0346,1.0635,1.0932,1.1204,1.1468,1.1626,0.0,1.1772,1.1776,0.0,1.1776,1.1776,1.1776,1.1776,1.1776,1.1776,1.1776,1.1776,1.1776,1.1776,1.1462,1.1152,1.0785,1.0334,0.988,0.9374,0.9279,0.9076,0.8885,0.8885,0.8885,0.8885,0.8885,0.8885,0.8885,0.8885,0.8885,0.8885,0.8885,0.8747,0.8482,0.0,0.0,0.0,0.0,0.0,0.0,-0.0404,-0.0045,0.0,0.0,0.0224,0.0493,0.0673,0.0942,0.1211,0.0,0.0,0.0,0.0,0.0,0.0,0.0,0.0,0.0,0.0,0.0,0.0,0.1839,0.1839,0.0,0.0,0.0,0.0,0.0,0.0,0.148,0.148,0.148,0.0,0.0,0.0,0.0,0.0,0.0,0.0,0.0,0.0,0.6549,0.6725,0.7841,0.8201,0.8347,0.8916,0.9084,0.9133,0.9351,0.9645,0.9914,0.988,1.0061,1.0151,0.998,0.9939,0.9894,0.9718,0.9677,0.9677,0.9628,0.9628,0.9628,0.9628,0.9826,0.9979,0.9961,1.0162,1.0366,1.0673,1.072,1.0932,1.1439,0.0,0.0,1.176,1.1776,1.1776,1.1776,1.1776,1.1776,1.1776,1.1776,1.1776,1.1776,1.1776,1.1776,1.1776,1.1462,1.1152,1.0785,1.0334,0.988,0.9374,0.9279,0.9076,0.8885,0.8885,0.8885,0.0,0.8885,0.8885,0.8885,0.8885,0.8885,0.8885,0.8885,0.8747,0.8482,0.0,0.0,0.0,0.0,0.0,0.0,-0.0326,0.0,0.0,0.0,0.0091,0.0314,0.0673,0.0807,0.0987,0.139,0.0,0.0,0.0,0.0,0.0,0.0,0.0,0.0,0.0,0.0,0.157,0.157,0.157,0.0,0.0,0.0,0.0,0.0,0.0,0.1391,0.1391,0.1391,0.0,0.0,0.0,0.0,0.0,0.0,0.0,0.0,0.0,0.0,0.7255,0.7661,0.7896,0.813,0.8698,0.8855,0.8957,0.9385,0.962,0.973,0.973,0.9782,0.9823,0.9746,0.973,0.9709,0.9644,0.9579,0.9579,0.9579,0.9579,0.9579,0.9579,0.9677,0.9747,0.9717,0.0,0.0,1.038,1.0558,1.085,1.1281,1.1431,0.0,0.0,0.0,1.1776,1.1776,1.1776,1.1776,1.1776,1.1776,1.1776,1.1776,1.1776,1.1776,1.1776,1.1651,1.129,1.0707,1.0366,0.991,0.9296,0.9093,0.8991,0.8885,0.8885,0.8885,0.0,0.8885,0.8885,0.8885,0.8885,0.8885,0.8871,0.8835,0.8665,0.8469,0.0,0.0,0.0,0.0,0.0,-0.233,-0.0286,0.0,0.0,0.0,0.0046,0.0274,0.0685,0.0822,0.1005,0.1416,0.1401,0.0,0.0,0.0,0.0,0.0,0.0,0.0,0.0,0.0,0.1408,0.1416,0.1416,0.1416,0.0,0.0,0.1412,0.1448,0.0,0.0,0.0,0.0,0.0,0.0,0.0,0.0,0.0,0.0,0.0,0.0,0.0,0.0,0.0,0.0,0.0,0.786,0.8455,0.8668,0.8824,0.9421,0.9579,0.9579,0.9579,0.9579,0.9579,0.9579,0.9579,0.9579,0.9579,0.9579,0.9579,0.9579,0.9579,0.9579,0.9579,0.9579,0.9579,0.0,0.0,0.9872,1.0054,1.0396,1.0668,1.1021,0.0,1.1492,1.1675,1.1744,1.1776,1.1776,1.1776,1.1776,1.1776,1.1776,1.1776,1.1776,1.1776,1.1953,1.2367,1.2367,1.2149,1.1661,1.1475,1.1004,1.0213,0.9661,0.9427,0.9427,0.9047,0.8885,0.0,0.8885,0.8885,0.8885,0.8885,0.8885,0.8865,0.8767,0.8615,0.8462,0.0,0.0,0.0,0.0,0.0,-0.233,-0.0286,0.0,0.0,0.0,0.0238,0.0476,0.0762,0.1048,0.1287,0.1477,0.1424,0.0,0.0,0.0,0.0,0.0,0.0,0.0,0.0,0.0,0.1495,0.1477,0.1477,0.1477,0.1477,0.1477,0.1509,0.148,0.0,0.0,0.0,0.0,0.0,0.0,0.0,0.0,0.0,0.0,0.0,0.0,0.0,0.0,0.0,0.0,0.0,0.0,0.0,0.8578,0.8824,0.9421,0.9579,0.9579,0.9579,0.9579,0.9579,0.9579,0.9579,0.9579,0.9579,0.9579,0.9579,0.9579,0.9579,0.9579,0.9579,0.9579,0.9579,0.9579,0.9579,0.0,0.9864,1.0102,1.0351,0.0,0.0,1.1297,1.1484,1.1667,1.1776,1.1776,1.1776,0.0,1.1776,1.1776,1.1776,1.1776,1.1776,1.2427,1.3665,1.3665,1.3852,1.4159,1.4048,1.3488,1.2502,1.1249,1.0672,1.0617,0.9427,0.8885,0.0,0.8885,0.8885,0.8885,0.8885,0.8885,0.8865,0.8767,0.8615,0.8462,0.0,0.0,0.0,0.0,0.0,0.0,-0.0198,0.0,0.0,0.0,0.024,0.0524,0.0763,0.1049,0.1287,0.1478,0.1461,0.0,0.0,0.0,0.0,0.0,0.0,0.0,0.0,0.1512,0.1516,0.1478,0.1478,0.1478,0.1478,0.1478,0.1521,0.1512,0.1512,0.1506,0.0,0.0,0.0,0.0,0.0,0.0,0.0,0.0,0.0,0.0,0.0,0.0,0.0,0.0,0.0,0.0,0.0,0.0,0.0,0.9288,0.9531,0.9579,0.9579,0.9579,0.9579,0.9579,0.9579,0.9579,0.9579,0.9579,0.9579,0.9579,0.9579,0.9579,0.9579,0.9579,0.9579,0.9579,0.9579,0.0,0.0,0.0,0.0,1.0651,1.1118,1.1484,0.0,0.0,1.1776,1.1776,1.1776,1.1776,1.1776,1.1776,1.1776,1.1776,1.1776,1.2307,1.3339,1.3334,1.3621,1.4045,1.4029,1.3709,1.3049,1.2649,1.1914,1.0945,1.0566,0.9809,0.8885,0.8885,0.8885,0.8885,0.8885,0.8821,0.8764,0.8611,0.8462,0.8316,0.0,0.0,0.0,0.0,0.0,0.0,-0.0151,0.0,0.005,0.0149,0.0295,0.0487,0.078,0.1024,0.1268,0.1365,0.1463,0.0,0.0,0.0,0.0,0.0,0.0,0.0,0.1543,0.1543,0.1549,0.156,0.156,0.156,0.156,0.156,0.1554,0.1543,0.1543,0.1537,0.0,0.0,0.0,0.0,0.0,0.0,0.2281,0.0,0.0,0.0,0.0,0.0,0.0,0.0,0.0,0.0,0.0,0.0,0.0,0.0,0.9384,0.9539,0.9608,0.9579,0.9579,0.9579,0.9579,0.9579,0.9579,0.9579,0.9579,0.9579,0.9579,0.9579,0.9579,0.9579,0.9579,0.9579,0.9579,0.0,0.0,0.0,0.0,1.0745,0.0,0.0,0.0,1.1736,1.1776,1.1776,1.1776,1.1776,1.1776,1.1711,1.1671,1.1671,1.2085,1.2849,1.3936,1.4315,1.4767,1.5384,1.5384,1.5083,1.4561,1.4132,1.3161,1.1697,1.1269,1.0241,0.0,0.8885,0.8885,0.8878,0.8821,0.8794,0.8686,0.8479,0.8347,0.8248,0.0,0.0,0.0,0.0,0.0,0.0,0.0,0.0,0.0101,0.0354,0.0404,0.0505,0.0758,0.1061,0.1212,0.1212,0.1465,0.0,0.0,0.0,0.0,0.0,0.0,0.0,0.1623,0.1624,0.1589,0.1617,0.1617,0.1617,0.1617,0.1617,0.1602,0.1624,0.1624,0.1559,0.0,0.0,0.0,0.0,0.1605,0.222,0.0,0.0,0.0,0.0,0.0,0.0,0.0,0.0,0.0,0.0,0.0,0.0,0.0,0.0,0.0,0.0,0.0,0.9616,0.9579,0.9579,0.9579,0.9579,0.9579,0.9628,0.0,0.9628,0.9628,0.9677,0.9677,0.9677,0.9677,0.9677,0.9677,0.0,0.0,0.9937,0.0,0.0,1.1118,0.0,1.148,1.1667,1.1776,1.1776,1.1776,1.1768,1.1756,1.1593,1.1492,1.148,1.2565,1.3718,1.4934,1.5965,1.6784,1.7462,1.7564,1.7313,1.673,1.5654,1.4352,0.0,1.1751,1.0402,0.9047,0.8937,0.8875,0.8854,0.8767,0.8699,0.8645,0.837,0.8313,0.8235,0.0,0.0,0.0,0.0,0.0,0.0,0.0,0.0,0.0,0.0,0.0253,0.0505,0.0758,0.1061,0.1263,0.0,0.0,0.0,0.0,0.0,0.0,0.0,0.0,0.0,0.1606,0.1606,0.1609,0.1617,0.1617,0.1617,0.1617,0.1617,0.1613,0.1606,0.1606,0.1602,0.0,0.0,0.0,0.0,0.1614,0.222,0.0,0.0,0.0,0.0,0.7338,0.7674,0.0,0.0,0.0,0.0,0.0,0.0,0.0,0.0,0.9015,0.9198,0.942,0.0,0.9579,0.9579,0.9579,0.9579,0.0,0.9776,0.992,0.992,1.0068,1.0216,1.0216,1.0216,1.0216,1.0216,1.0216,1.0117,0.992,1.009,0.0,1.1239,1.1232,1.1351,1.1774,1.1786,1.1776,1.1776,1.1776,1.1715,1.1573,1.1524,1.1435,1.1293,1.2288,1.2937,1.3275,1.4333,1.5399,1.6339,1.7198,1.7543,1.7371,1.71,1.6074,1.4406,1.327,1.181,1.0186,0.9261,0.8814,0.876,0.8723,0.8574,0.8367,0.8347,0.8197,0.8039,0.0,0.0,0.0,0.0,0.0,0.0,0.0,0.0,0.0,0.0,0.0303,0.0505,0.0758,0.1061,0.1263,0.0,0.0,0.0,0.0,0.0,0.0,0.0,0.0,0.1617,0.1617,0.1617,0.1617,0.1617,0.1617,0.1617,0.1617,0.1617,0.1617,0.1617,0.1617,0.1617,0.0,0.0,0.0,0.1617,0.1617,0.0,0.0,0.0,0.0,0.0,0.771,0.7838,0.0,0.7683,0.7805,0.802,0.0,0.0,0.0,0.0,0.8889,0.9011,0.919,0.9429,0.9579,0.9579,0.9579,0.9628,0.9776,0.9875,1.0019,1.0167,1.0314,1.0413,1.0413,1.0413,1.0413,1.0413,1.0413,0.0,0.0,0.0,1.075,1.1228,1.1279,1.1314,0.0,1.1532,1.1524,1.1524,1.1524,1.148,1.1378,1.1297,1.1212,1.111,1.1539,1.2307,1.3452,1.4554,1.5624,1.667,1.7312,1.7582,1.7582,1.7582,1.667,1.4953,1.3809,1.2295,1.0609,0.9348,0.8784,0.8696,0.856,0.8411,0.8313,0.8191,0.8109,0.7988,0.0,0.0,0.0,0.0,0.0,0.0,0.0,0.0,0.0,0.0,0.0,0.0,0.0,0.0,0.0,0.0,0.0,0.0,0.0,0.0,0.0,0.0,0.1617,0.1617,0.1617,0.1617,0.1617,0.1617,0.1617,0.1617,0.1617,0.1617,0.1617,0.1617,0.1617,0.1617,0.1617,0.1617,0.1617,0.1617,0.1617,0.0,0.0,0.0,0.0,0.0,0.0,0.0,0.0,0.7692,0.7807,0.794,0.8157,0.0,0.0,0.0,0.0,0.0,0.9011,0.9295,0.96,0.9629,0.9657,0.9772,1.0019,1.0068,1.0167,1.0413,1.0511,1.0511,1.0511,1.0511,1.0511,1.0511,0.0,0.0,1.0987,1.104,1.1028,1.1139,1.13,0.0,1.1081,1.1122,1.1224,1.1224,1.1224,1.1212,1.1183,1.1045,1.1012,1.0984,1.0773,1.1799,1.4059,1.5104,1.6127,1.7094,1.7417,1.7582,1.7582,1.7582,1.6723,1.5173,0.0,0.0,1.0837,0.9295,0.8682,0.8618,0.8367,0.8255,0.8218,0.8089,0.7988,0.7988,0.0,0.0,0.0,0.0,0.0,0.0,0.0,0.0,0.0,0.0,0.0,0.0,0.0,0.0,0.0,0.0,0.0,0.0,0.0,0.0,0.0,0.1617,0.1617,0.1617,0.1617,0.1617,0.1617,0.1617,0.1617,0.1617,0.1617,0.1617,0.1617,0.1617,0.1617,0.1617,0.1617,0.1617,0.1617,0.1617,0.1617,0.0,0.0,0.0,0.0,0.0,0.0,0.0,0.0,0.7692,0.7807,0.794,0.8157,0.0,0.0,0.0,0.0,0.0,0.8852,0.9154,0.9493,0.9692,1.0046,1.0314,1.0314,1.0507,1.0708,1.0708,1.09,1.1096,1.1096,1.1096,1.1096,1.1096,0.0,1.0893,0.0,0.0,1.1133,1.1465,0.0,1.1358,1.1358,1.1237,1.1224,1.1224,1.1224,1.1159,1.1017,1.0984,1.0895,1.0741,1.0708,1.1354,1.2683,1.383,1.446,1.4674,1.6664,1.7582,1.7582,1.7582,1.7153,1.6299,0.0,1.2788,1.1824,0.9624,0.8564,0.8333,0.834,0.8191,0.8022,0.7998,0.7988,0.7988,0.0,0.0,0.0,0.0,0.0,0.0,0.0,0.0,0.0,0.0,0.0,0.0,0.0,0.0,0.0,0.0,0.0,0.0,0.0,0.0,0.1617,0.1617,0.1617,0.1617,0.1617,0.1617,0.1617,0.1617,0.1617,0.1617,0.1617,0.1617,0.1617,0.1617,0.1617,0.1617,0.1617,0.1617,0.1919,0.2471,0.0,0.0,0.0,0.0,0.0,0.0,0.0,0.0,0.0,0.0,0.7871,0.7944,0.8296,0.0,0.0,0.0,0.0,0.0,0.8816,0.9169,0.9585,0.9916,1.0114,1.029,1.0538,1.0703,1.085,1.0998,1.1096,1.1194,1.1194,1.1194,1.1194,1.1194,0.0,1.1141,1.1555,1.1507,1.1554,0.0,0.0,1.1649,1.1538,1.1278,1.116,1.116,1.0992,1.0903,1.0826,1.0822,1.0781,1.0692,1.0692,1.0962,1.15,1.3221,1.4406,1.5102,1.677,1.7582,1.7582,1.7582,1.7285,1.6566,0.0,1.2803,1.203,0.9489,0.8394,0.8313,0.8177,0.8102,0.7988,0.7988,0.7988,0.7988,0.0,0.0,0.0,0.0,0.0,0.0,0.0,0.0,0.0,0.0,0.0,0.0,0.0,0.0,0.0,0.0,0.0,0.0,0.0,0.1617,0.1617,0.1617,0.1617,0.1617,0.1617,0.1617,0.1617,0.1617,0.1617,0.1617,0.1617,0.1617,0.1617,0.1617,0.1617,0.1617,0.1617,0.1869,0.2471,0.3224,0.0,0.0,0.0,0.0,0.0,0.0,0.0,0.0,0.0,0.0,0.0,0.0,0.0,0.0,0.0,0.8612,0.8656,0.8696,0.8867,0.923,0.9696,1.0035,1.0233,1.0372,1.0805,1.0904,1.0949,1.1145,1.1194,1.1194,1.1194,1.1194,0.0,1.1194,1.1194,1.134,1.1756,1.1817,1.1868,1.1955,1.2005,1.1896,1.1623,1.135,1.124,1.124,1.0966,1.0802,1.0802,1.0747,1.0672,1.0631,1.0631,1.0611,1.057,1.2593,1.4237,1.5482,1.6935,1.7549,1.7534,1.7534,1.7166,1.6484,1.4003,1.2625,1.1965,0.9383,0.8401,0.8606,0.8432,0.8382,0.8333,0.8088,0.7988,0.7985,0.0,0.0,0.0,0.0,0.0,0.0,0.0,0.0,0.0,0.0,0.0,0.0,0.0,0.0,0.0,0.0,0.0,0.0,0.0,0.1617,0.1617,0.1617,0.1617,0.1617,0.1617,0.1617,0.1617,0.1617,0.1617,0.1617,0.1617,0.1617,0.1617,0.1617,0.1617,0.1617,0.1667,0.2672,0.3123,0.3274,0.4273,0.0,0.0,0.0,0.0,0.0,0.0,0.0,0.0,0.0,0.0,0.0,0.0,0.0,0.8612,0.8612,0.874,0.8867,0.8911,0.9222,0.9675,0.9885,1.0413,1.09,1.1098,1.1145,1.1198,1.1194,1.1194,1.1194,0.0,1.1194,1.1194,1.1194,1.1194,1.134,1.1756,0.0,1.1868,1.1955,1.2005,1.1896,1.1623,1.1568,1.1568,1.1568,1.124,1.1072,1.1072,1.0857,1.0619,1.0407,1.0399,1.0371,1.0253,1.1435,1.2765,1.4245,1.6505,1.7494,1.7233,1.7233,1.6925,1.6194,1.3704,1.2394,1.1802,0.9333,0.8787,0.9529,0.9513,0.946,0.9361,0.8382,0.7988,0.7968,0.0,0.0,0.0,0.0,0.0,0.0,0.0,0.0,0.0,0.0,0.0,0.0,0.0,0.0,0.0,0.0,0.0,0.0,0.0,0.1617,0.1617,0.1617,0.1617,0.1617,0.1617,0.1617,0.1617,0.1617,0.1617,0.1617,0.1617,0.1617,0.1617,0.1617,0.2321,0.2572,0.2672,0.3725,0.4576,0.5231,0.5632,0.6431,0.0,0.0,0.0,0.0,0.0,0.0,0.0,0.0,0.8157,0.8245,0.852,0.8612,0.8612,0.8612,0.874,0.8955,0.9087,0.9388,0.9696,1.0041,1.035,1.0598,1.0934,1.1104,1.1194,1.1194,1.1194,1.1194,0.0,0.0,1.1194,1.1194,1.1194,1.1298,1.159,1.1737,1.1874,1.2058,1.2144,1.2172,1.1944,1.1769,1.1612,1.1482,1.1155,1.0939,1.0784,1.0678,1.0543,1.0266,1.0266,1.0233,1.0212,1.1342,1.2496,1.3706,1.5327,1.6362,1.6874,1.6874,1.6663,1.6193,1.4269,1.2828,1.1776,0.9909,0.9325,0.9608,0.9608,0.9217,0.8566,0.8077,0.7896,0.7875,0.0,0.0,0.0,0.0,0.0,0.0,0.0,0.0,0.0,0.0,0.0,0.0,0.0,0.0,0.0,0.0,0.0,0.0,0.1617,0.1617,0.1617,0.1617,0.1617,0.1617,0.1617,0.1617,0.1617,0.1617,0.1617,0.1617,0.1617,0.1617,0.1768,0.212,0.2873,0.3374,0.3775,0.4826,0.5729,0.6437,0.6786,0.7338,0.0,0.0,0.0,0.0,0.0,0.0,0.0,0.0,0.8245,0.8336,0.852,0.8612,0.8612,0.8612,0.8784,0.9087,0.9262,0.9519,0.9814,1.0135,1.027,1.0348,1.0636,1.091,1.1099,1.1099,1.1099,1.1118,1.1184,0.0,0.0,0.0,1.1194,1.1269,1.1487,1.1633,1.1803,1.1958,1.2109,1.2133,1.1996,1.1829,1.1663,1.1516,1.1248,1.0936,1.0729,1.0629,1.0443,1.0131,1.0432,1.0407,0.9994,1.1452,1.2511,1.3172,1.438,1.5482,1.6567,1.6567,1.6406,1.6036,1.4454,1.3269,1.229,1.073,1.0288,1.0534,1.0243,0.962,0.8879,0.8091,0.7784,0.7723,0.0,0.0,0.0,0.0,0.0,0.0,0.0,0.0,0.0505,0.0758,0.1061,0.0,0.0,0.0,0.0,0.0,0.0,0.0,0.1617,0.1617,0.1617,0.1617,0.1617,0.1617,0.1617,0.1617,0.1617,0.1617,0.1617,0.1617,0.1617,0.1617,0.217,0.3224,0.3224,0.3823,0.4874,0.5982,0.6437,0.6487,0.7587,0.7988,0.7988,0.0,0.0,0.0,0.0,0.0,0.0,0.0,0.838,0.8612,0.8612,0.8612,0.8612,0.8612,0.8955,0.9305,0.9305,0.965,0.9994,0.9994,1.0156,1.0317,1.0317,1.0594,1.0891,1.0896,1.0896,1.0957,1.1156,1.1194,0.0,1.1194,1.1194,1.1269,1.1487,1.1515,1.159,1.1789,1.1817,1.1817,1.1813,1.1813,1.1813,1.1813,1.1554,1.1295,1.1036,1.0724,1.0381,0.9939,1.0887,1.0843,0.9628,1.1663,1.2732,1.2727,1.3806,1.5017,1.6321,1.6321,1.6106,1.573,1.4184,1.3511,1.3366,1.1853,1.1804,1.2581,1.1604,1.1086,1.0711,0.8568,0.7719,0.7577,0.0,0.0,0.0,0.0,0.0,0.0,0.0,0.0,0.0758,0.1061,0.1314,0.0,0.0,0.0,0.0,0.0,0.0,0.0,0.1617,0.1617,0.1617,0.1617,0.1617,0.1617,0.1617,0.1617,0.1617,0.1617,0.1617,0.1969,0.2723,0.2723,0.3274,0.4375,0.5129,0.5632,0.5982,0.7086,0.7537,0.7587,0.8084,0.8283,0.8283,0.0,0.0,0.0,0.0,0.0,0.0,0.0,0.0,0.0,0.8612,0.9043,0.9388,0.8784,0.9257,0.9907,0.9432,0.9994,1.0598,1.0125,1.0517,1.087,1.0418,1.048,1.0712,1.0863,1.1009,1.1127,1.1184,1.1194,0.0,1.1194,1.1194,1.1217,1.1283,1.142,1.1539,1.16,1.1732,1.1761,1.1619,1.1609,1.1543,1.1392,1.1278,1.1129,1.0884,1.0634,1.0657,1.109,1.1225,1.1433,1.176,1.2393,1.3071,1.3806,1.4148,1.4869,1.5965,1.5965,1.5912,1.5784,1.5153,1.4382,1.3414,1.2587,1.2004,1.1627,1.1187,1.0446,0.9414,0.8048,0.7475,0.7417,0.0,0.0,0.0,0.0,0.0,0.0,0.0,0.0,0.1665,0.1816,0.242,0.2873,0.0,0.0,0.0,0.0,0.0,0.0,0.1617,0.1617,0.1617,0.1617,0.1617,0.1617,0.1617,0.1617,0.1818,0.222,0.222,0.2572,0.3224,0.3624,0.4425,0.5479,0.6134,0.6637,0.7086,0.7836,0.8137,0.8184,0.8432,0.8577,0.8581,0.0,0.0,0.0,0.0,0.0,0.0,0.0,0.0,0.0,0.8999,0.9471,0.9816,0.9257,0.999,1.0809,1.0033,1.0722,1.1574,1.1187,1.1488,1.1742,1.1329,1.09,0.0,0.0,1.0995,1.1099,1.1179,1.1194,0.0,1.1194,1.1194,1.1194,1.1194,1.1307,1.1387,1.1387,1.1496,1.1524,1.1401,1.1387,1.1335,1.1203,1.1194,1.1096,1.0806,1.1042,1.1282,1.1585,1.2247,1.2624,1.2678,1.3505,1.404,1.4298,1.4682,1.5207,1.5784,1.5784,1.5784,1.5784,1.5452,1.4816,1.3898,1.3416,1.2842,1.2201,1.1584,1.0612,0.9413,0.8762,0.823,0.7755,0.0,0.0,0.0051,0.0151,0.0,0.0,0.0,0.0,0.297,0.297,0.4022,0.4824,0.0,0.0,0.0,0.0,0.0,0.1869,0.1768,0.1768,0.1718,0.1617,0.1718,0.1768,0.1768,0.1818,0.2371,0.3324,0.3224,0.3324,0.3525,0.4475,0.5527,0.6537,0.6537,0.7086,0.8038,0.8287,0.8432,0.8482,0.8726,0.8825,0.8825,0.8874,0.0,0.0,0.0,0.0,0.0,0.0,0.0,0.0,0.9646,1.0033,1.012,1.0096,1.1041,1.1886,1.1003,1.1757,1.276,1.2717,1.2717,1.2717,1.2717,1.171,1.083,1.0938,0.0,1.1039,1.1109,1.1249,1.1258,1.1142,1.1283,1.1385,1.1307,1.1312,1.1317,1.1336,1.1321,1.1312,1.1312,1.1341,1.1376,1.1376,1.1376,1.1278,1.1035,1.1846,1.2185,1.1866,1.3699,1.4088,1.2989,1.4848,1.535,1.4442,1.535,1.5764,1.5744,1.5771,1.5764,1.5744,1.5276,1.4933,1.4619,1.4102,1.3903,1.3755,1.2416,1.1267,1.0354,1.0216,0.9478,0.8364,0.0,0.0,0.0252,0.111,0.0,0.0,0.0,0.0,0.0,0.0,0.0,0.0,0.0,0.0,0.0,0.0,0.4225,0.3775,0.2923,0.2873,0.2471,0.1617,0.2422,0.2873,0.2873,0.3674,0.4225,0.4474,0.3624,0.4076,0.5732,0.5934,0.6634,0.7637,0.7637,0.7889,0.8333,0.8382,0.8531,0.8726,0.8981,0.9133,0.9133,0.9327,0.9212,0.0,0.0,0.0,0.0,0.0,0.0,0.0,0.9859,1.0895,1.2012,1.1548,1.2071,1.268,1.2156,1.2714,1.336,1.2845,1.2717,1.2717,1.2717,1.2586,1.2299,1.1587,1.1754,1.1738,1.0867,1.1445,1.1789,1.0871,1.1899,1.2702,1.2199,1.2083,1.2146,1.2372,1.2188,1.2083,1.2083,1.2565,1.2859,1.2859,1.2859,1.2813,1.2767,1.2762,1.309,1.3842,1.4183,1.4534,1.5059,1.557,1.5689,1.5493,1.5683,1.5712,1.5498,1.5678,1.5705,1.5491,1.5159,1.4996,1.4876,1.4196,1.3846,1.368,1.2288,1.1474,1.1006,1.0256,0.9358,0.85,0.0,0.0,0.0,0.0,0.0,0.0,0.0,0.0,0.0,0.0,0.0,0.0,0.0,0.0,0.0,0.0,0.5077,0.4574,0.4024,0.3974,0.3725,0.3173,0.3674,0.3974,0.3974,0.4524,0.5074,0.5579,0.5029,0.5281,0.6387,0.6936,0.7487,0.7988,0.7988,0.8137,0.8432,0.8531,0.873,0.9031,0.9282,0.9381,0.9381,0.9529,0.9409,0.9096,0.9096,0.0,0.0,0.0,0.0,0.0,0.0,0.0,1.2667,1.2493,1.3028,1.3593,1.3181,1.3711,1.4307,1.4048,1.4006,1.4006,1.4006,1.4083,1.3896,1.2978,1.2771,1.2583,1.1997,1.24,1.2577,1.1997,1.27,1.3201,1.2882,1.2807,1.2852,1.2982,1.288,1.2761,1.2761,1.3094,1.3284,1.3284,1.3284,1.3284,1.3284,1.3595,1.4013,1.4488,1.4857,1.5216,1.5516,1.5528,1.551,1.5418,1.5418,1.5337,1.5197,1.5344,1.5331,1.519,1.4904,1.4792,1.4705,1.3996,1.3693,1.3521,1.2557,1.1826,1.1284,1.1268,1.0664,0.9806,0.0,0.0,0.0,0.0,0.0,0.0,0.0,0.0,0.0,0.0,0.0,0.0,0.0,0.0,0.6686,0.0,0.0,0.0,0.5074,0.4924,0.4824,0.4824,0.4974,0.5074,0.5074,0.5275,0.5779,0.6686,0.6686,0.6686,0.6686,0.7587,0.7988,0.7988,0.7988,0.8187,0.8482,0.8726,0.8977,0.9286,0.9529,0.9579,0.9579,0.9579,0.9425,0.9184,0.9291,0.9158,0.8998,0.9873,0.0,0.0,0.0,0.0,1.2973,1.328,1.386,1.4333,1.4056,1.4538,1.5131,1.5347,1.5389,1.5389,1.5389,1.5389,1.5215,1.4482,1.386,1.3432,1.3249,1.3369,1.3432,1.3249,1.3467,1.3619,1.3528,1.3495,1.3507,1.3549,1.3519,1.3495,1.3495,1.3587,1.3645,1.3645,1.3645,1.3645,1.3645,1.4453,1.4821,1.4657,1.5471,1.5727,1.5335,1.5294,1.5239,1.5053,1.4955,1.4928,1.4928,1.4881,1.4881,1.489,1.4698,1.4533,1.4399,1.3778,1.3472,1.3349,1.2918,1.2277,1.1623,1.24,1.21,1.1149,0.0,0.0,0.0,0.0,0.0,0.0,0.0,0.0,0.0,0.0,0.7889,0.7988,0.0,0.7889,0.7789,0.7789,0.7637,0.7185,0.6234,0.0,0.0,0.4824,0.5679,0.6184,0.6184,0.7086,0.7637,0.7789,0.7789,0.7789,0.7789,0.7939,0.7988,0.7988,0.7988,0.8283,0.8726,0.8775,0.9076,0.9529,0.9579,0.9579,0.9579,0.9579,0.9498,0.9442,1.0077,1.0186,1.0089,1.0871,1.1671,0.0,0.0,0.0,1.3972,1.4213,1.4338,1.4467,1.4702,1.4907,1.5131,1.5347,1.5389,1.5389,0.0,0.0,1.5389,0.0,1.4721,1.3954,1.2954,1.3591,1.3947,1.2948,1.4077,1.4958,1.4422,1.4294,1.4342,1.4564,1.4394,1.425,1.425,1.4764,1.512,1.512,1.512,1.512,1.512,1.5253,1.5295,1.5303,1.5476,1.5526,1.5489,1.5369,1.5277,1.5232,1.4791,1.4583,1.4569,1.4322,1.4342,1.4576,1.4532,1.4372,1.4148,1.3796,1.3557,1.3398,1.3137,1.2833,1.2534,1.2662,1.21,1.1149,0.0,0.0,0.0,0.0,0.0,0.0,0.0,0.0,0.0,0.0,0.0,0.7988,0.0,0.7988,0.7988,0.7988,0.7988,0.7789,0.7338,0.6833,0.6581,0.6581,0.7033,0.7288,0.7288,0.7739,0.7988,0.7988,0.7988,0.7988,0.7988,0.7988,0.7988,0.7988,0.7988,0.8287,0.8825,0.8825,0.9126,0.9579,0.9579,0.9579,0.9579,0.9579,0.9514,0.9536,1.0396,1.0481,1.0409,1.1817,1.2475,1.279,1.3307,0.0,0.0,0.0,1.4352,1.4271,1.4533,1.4853,1.5131,1.5215,1.5305,1.5389,1.5389,1.5389,1.5389,1.5389,1.5155,1.4824,1.4292,1.4634,1.4817,1.4286,1.4866,1.5307,1.505,1.4993,1.5,1.5119,1.5028,1.4951,1.4951,1.521,1.5389,1.5389,1.5389,1.5389,1.5389,1.5389,1.5389,1.5389,1.5436,1.5382,1.529,1.5084,1.4852,1.4606,1.4385,1.4282,1.4275,1.4142,1.4155,1.4282,1.4282,1.4208,1.4088,1.3822,1.3568,1.3398,1.3179,1.2924,1.2705,1.2705,1.2443,1.1886,0.0,0.0,0.0,0.0,0.0,0.0,0.0,0.0,0.0,0.0,0.0,0.0,0.0,0.0,0.0,0.0,0.7988,0.7988,0.7988,0.7988,0.7988,0.7988,0.7988,0.7988,0.7988,0.7988,0.7988,0.7988,0.7988,0.7988,0.7988,0.7988,0.7988,0.7988,0.7988,0.8287,0.8825,0.8825,0.9126,0.9628,0.992,0.9817,0.9673,1.0212,1.017,0.9987,1.1215,1.1409,1.1327,1.2913,1.3318,1.3267,1.3897,1.4088,0.0,0.0,0.0,1.4017,1.4247,1.4483,1.4737,1.4946,1.5092,1.5245,0.0,0.0,1.5389,0.0,1.5389,1.5389,1.5389,1.5389,1.5389,1.5389,1.5389,1.5389,1.5389,1.5389,1.5389,1.5389,1.5389,1.5389,1.5389,1.5389,1.5389,1.5389,1.5389,1.5389,1.5389,1.5389,1.5389,1.5389,1.5389,1.534,1.5173,1.4866,1.4531,1.4166,1.4124,1.4088,1.4088,1.4088,1.4088,1.4088,1.4088,1.4088,1.4088,1.3864,1.3652,1.3392,1.3228,1.2966,1.2705,1.2705,1.2705,1.2485,0.0,0.0,0.0,0.0,0.0,0.0,0.0,0.0,0.0,0.0,0.0,0.0,0.7988,0.7988,0.7988,0.7988,0.7988,0.7988,0.7988,0.7988,0.7988,0.7988,0.7988,0.0,0.7988,0.7988,0.7988,0.7988,0.7988,0.7988,0.7988,0.7988,0.7988,0.7988,0.7988,0.8287,0.8825,0.8825,0.9126,0.9673,1.069,1.0498,0.9821,1.1809,1.1945,1.1322,1.3061,1.3613,1.3703,1.4248,1.4422,1.4362,1.4168,1.4088,1.4088,0.0,0.0,0.0,1.394,1.3802,1.3738,1.4439,1.4639,1.4758,0.0,0.0,1.5389,1.5389,1.5389,1.5389,1.5389,1.5389,1.5389,1.5389,1.5389,1.5389,1.5389,1.5389,1.5389,1.5389,1.5389,1.5389,1.5389,1.5389,1.5389,1.5389,1.5389,1.5389,1.5389,1.5389,1.5389,1.5389,1.5389,1.5389,1.5389,1.495,1.4608,1.4398,1.4208,1.4088,1.4088,1.4088,1.4088,1.4088,1.4088,1.4088,1.4088,1.4088,1.3828,1.3398,1.3392,1.3094,1.2705,1.2705,1.2705,1.2577,0.0,0.0,0.0,0.0,0.0,0.0,0.0,0.0,0.0,0.0,0.0,0.0,0.0,0.7988,0.7988,0.7988,0.7988,0.7988,0.7988,0.7988,0.7988,0.7988,0.7988,0.7988,0.7988,0.7988,0.7988,0.7988,0.7988,0.7988,0.7988,0.7988,0.7988,0.7988,0.7988,0.8287,0.8825,0.8825,0.9513,1.0641,1.1028,1.137,1.1663,1.2436,1.2484,1.2328,1.3647,1.3973,1.3908,1.4565,1.4676,1.4469,1.4175,1.4088,1.4088,1.4088,1.4015,1.3888,1.3769,1.3797,1.3849,1.3886,1.4111,1.4435,1.4799,1.4993,1.5133,1.5345,1.5389,1.5389,1.5389,1.5389,1.5389,1.5389,1.5389,1.5389,1.5389,1.5389,1.5389,1.5389,1.5389,1.5389,1.5389,1.5389,1.5389,1.5389,1.5389,1.5389,1.5389,1.5389,1.5389,1.5389,1.5389,1.5347,1.5215,1.5041,1.4783,1.4398,1.4321,1.4201,1.4088,1.4088,1.4088,1.4088,1.4088,1.4088,1.4088,1.4088,1.3828,1.3392,1.33,1.3039,1.2705,1.2705,1.2705,1.2577,0.0,0.0,0.0,0.0,0.0,0.7988,0.7988,0.7988,0.7988,0.7988,0.0,0.0,0.0,0.0,0.7988,0.7988,0.7941,0.7934,0.7985,0.7941,0.7934,0.7988,0.7988,0.7988,0.7988,0.7938,0.7938,0.7988,0.7938,0.7938,0.7988,0.7988,0.7988,0.8041,0.8382,0.8825,0.9316,0.9316,1.0243,1.1707,1.2101,1.2441,1.278,1.3457,1.3505,1.3366,1.4436,1.4646,1.4534,1.4969,1.4917,1.4616,1.4329,1.4168,1.4088,1.4088,1.4015,1.3874,1.354,1.3534,1.3558,1.34,1.3592,1.3949,1.4381,1.458,1.4765,1.5024,1.5109,1.5109,1.5109,1.5155,1.5265,1.5374,1.5389,1.5389,1.5389,1.5389,1.5389,1.5389,1.5389,1.5506,1.5824,1.5824,1.5948,1.6229,1.627,0.0,1.627,1.627,1.627,1.627,1.627,1.6113,1.5756,1.5624,1.5291,1.4748,1.4531,1.4321,1.4201,1.4124,1.4088,1.4088,1.4088,1.4088,1.4088,1.4088,1.3828,1.344,1.33,1.3039,1.2705,1.2705,1.2705,1.2619,0.0,0.0,0.7988,0.7988,0.7988,0.7988,0.7988,0.7988,0.7988,0.7988,0.0,0.0,0.0,0.0,0.0,0.7982,0.7896,0.7872,0.7968,0.7892,0.7879,0.7975,0.7988,0.7988,0.7988,0.7892,0.7889,0.7988,0.7889,0.7896,0.8038,0.8038,0.8088,0.8137,0.9167,0.9948,1.0489,1.0435,1.1317,1.2829,1.3902,1.3709,1.3017,1.5051,1.5207,1.449,1.5445,1.5784,1.5738,1.5491,1.5204,1.4955,1.4603,1.4315,1.4088,1.4088,1.3881,1.3553,0.0,0.0,0.0,1.3058,1.3082,1.3279,1.402,1.4177,1.4255,1.4465,1.4511,1.4511,1.4511,1.4721,1.5028,1.5343,1.5416,1.5472,1.5465,1.5465,1.5465,1.5465,1.5465,1.5824,1.6657,1.6739,1.7107,1.7957,1.7997,1.7997,1.7997,1.7997,1.7997,1.7997,1.7997,1.7691,1.7123,1.6648,1.6079,1.5403,1.479,1.4475,1.4433,1.4243,1.4166,1.413,1.413,1.413,1.4088,1.4088,1.3919,1.3587,1.344,1.3094,1.2705,1.2705,1.2705,1.2705,0.0,0.7939,0.7988,0.7988,0.7988,0.7988,0.7988,0.7988,0.7988,0.0,0.0,0.0,0.7988,0.7988,0.7944,0.7882,0.7834,0.7787,0.7726,0.7777,0.7831,0.7872,0.7931,0.7988,0.7988,0.7948,0.7948,0.7988,0.7948,0.834,0.9167,0.9167,0.9558,1.0342,1.0632,1.1463,1.2581,1.1853,1.2441,1.3902,1.4196,1.458,1.5003,1.5588,1.5635,1.5397,1.5683,1.5784,1.5738,1.5491,1.5204,1.4921,1.4369,1.4155,1.4088,1.4088,1.4028,1.3901,1.3567,0.0,0.0,0.0,0.0,0.0,1.3501,1.3725,1.3949,1.4421,1.4511,1.4511,1.4511,1.4993,1.5459,1.5513,1.5978,1.6542,1.7196,1.7277,1.7277,1.7277,1.7277,1.7399,1.7634,1.7634,1.7755,0.0,1.7997,1.7997,1.7997,1.7997,1.7997,1.7997,1.7997,1.7721,1.713,1.7398,1.6806,1.5424,1.6154,1.6103,1.5446,1.579,1.5636,1.5026,1.5264,1.4853,1.4088,1.4088,1.4053,1.3897,1.3434,1.313,1.2966,1.279,1.2705,1.2705,0.7988,0.7988,0.8137,0.8577,0.8676,0.8825,0.9262,0.9316,0.9316,0.0,0.0,0.0,0.9316,0.9316,0.9098,0.8542,0.842,0.8157,0.7651,0.7617,0.7655,0.7719,0.7865,0.7894,0.7894,0.8332,0.8607,0.8676,0.9045,0.958,1.0293,1.0293,1.0587,1.1219,1.1755,1.2538,1.3511,1.3457,1.404,1.4921,1.4921,1.5302,1.5784,1.5784,1.5784,1.5784,1.5784,1.5784,1.5758,1.5631,1.5304,1.4908,1.4275,1.4088,1.4088,1.4088,1.4088,1.4021,1.3686,1.348,1.3287,1.2891,0.0,0.0,1.3121,1.3285,1.3492,1.3981,1.4062,1.4062,1.4062,1.4539,1.5148,1.5813,1.6401,1.6936,1.7369,1.7632,1.7766,1.7766,1.7903,1.8158,1.8527,1.8527,1.8687,1.9076,1.9076,1.9076,1.9076,1.9076,1.9076,1.9076,1.9076,1.8926,1.8567,1.843,1.8115,1.7575,1.7829,1.7529,1.6733,1.6789,1.6486,1.5925,1.5846,1.5151,1.4092,1.4104,1.4102,1.403,1.3483,1.3215,1.3052,1.279,1.2705,1.2705,0.0,0.8187,0.8531,0.9608,0.9756,1.0096,1.1023,1.1219,1.1219,0.0,1.1219,1.1219,1.1219,1.1224,1.075,0.9683,0.9476,0.8952,0.7948,0.7827,0.7813,0.7894,0.7995,0.8072,0.8072,0.9024,0.9577,0.9694,1.0532,1.1063,1.1298,1.1322,1.138,1.1526,1.277,1.3414,1.3757,1.4962,1.5635,1.5784,1.5784,1.5784,1.5784,1.5784,1.5784,1.5784,1.5784,1.5784,1.5771,1.5752,1.5391,1.4908,1.4275,1.4088,1.4088,1.4088,1.4088,1.4028,1.3726,1.3626,1.3473,1.3018,1.2837,0.0,1.2938,1.2921,1.3046,1.3521,1.363,1.3637,1.3739,1.4059,1.4797,1.6214,1.6755,1.7006,1.698,1.7367,1.7614,1.7614,1.7909,1.8435,1.9203,1.9282,1.9634,2.0381,2.0507,2.0537,2.0537,2.0576,2.0605,2.0605,2.0605,2.0615,2.0593,1.9615,1.961,2.0585,1.9577,1.8767,1.8221,1.757,1.7131,1.6813,1.6392,1.5406,1.4109,1.4105,1.4082,1.403,1.3574,1.3313,1.3094,1.279,1.2705,1.2705,0.9118,0.9266,0.9608,1.0681,1.0881,1.0974,1.117,1.1219,1.1268,1.1517,1.1512,1.1512,1.1512,1.1317,1.1036,1.063,1.0579,1.0328,0.979,0.9921,0.9889,0.9682,0.9817,0.9877,0.9877,1.011,1.0221,1.0262,1.0454,1.0915,1.1755,1.1984,1.2547,1.3414,1.4058,1.4544,1.4838,1.5309,1.5635,1.5784,1.5784,1.5784,1.5784,1.5784,1.5784,1.5784,1.5784,1.5784,1.5711,1.5291,1.5102,1.4908,1.4275,1.4088,1.4088,1.4088,1.4088,1.4075,1.4015,1.3828,1.3573,1.3453,1.3106,0.0,1.3165,1.3031,1.3185,1.4178,1.4394,1.4573,1.5144,1.5841,1.6457,1.6737,1.7344,1.803,1.8697,1.8869,1.8926,1.8926,1.8992,1.9114,1.9272,1.9309,1.9383,1.9541,1.9853,2.0039,2.0039,2.0371,2.0605,2.0605,2.0605,2.0586,2.0586,2.0372,2.0391,2.0596,2.0361,2.0087,1.9745,1.9301,1.859,1.7785,1.8368,1.6894,1.4103,1.4088,1.4079,1.4046,1.3568,1.3398,1.3307,1.2875,1.2705,1.2705,1.0632,1.073,1.1072,1.2145,1.2344,1.2538,1.3076,1.3173,1.3173,1.3323,1.3366,1.3366,1.3366,1.3125,1.2683,1.1963,1.1758,1.134,1.056,1.0491,1.0398,1.0253,1.0303,1.0313,1.0313,1.0876,1.116,1.116,1.1666,1.2221,1.2683,1.2854,1.331,1.4105,1.4515,1.4937,1.5309,1.5547,1.573,1.5784,1.5784,1.5784,1.5784,1.5784,1.5784,1.5784,1.5784,1.5684,1.5524,1.4937,1.4743,1.4663,1.4229,1.4088,1.4088,1.4088,1.4088,1.4088,1.4088,1.3981,1.3828,1.364,1.3307,0.0,0.0,1.308,1.3222,1.4358,1.4601,1.4816,1.5561,1.6026,1.6446,1.6828,1.7226,1.7722,1.8549,1.8828,1.8965,1.8965,1.916,1.9287,1.9287,1.9287,1.9287,1.9287,1.9482,1.96,1.96,2.001,2.0244,2.0244,2.0488,2.0605,2.0605,2.0605,2.0605,2.0605,2.0596,2.0479,2.0206,1.9902,1.9411,1.8829,1.9146,1.8059,1.6024,1.5913,1.5662,1.5269,1.3935,1.3724,1.4097,1.3082,1.279,1.2875,1.2221,1.2193,1.2533,1.3613,1.3806,1.41,1.4981,1.5083,1.5131,1.5172,1.5172,1.5172,1.5172,1.4933,1.4398,1.3414,1.3119,1.2549,1.1554,1.1232,1.101,1.092,1.0825,1.0716,1.0672,1.1571,1.2033,1.2033,1.2901,1.3363,1.3363,1.3456,1.3731,1.4176,1.4547,1.5005,1.5414,1.571,1.5784,1.5784,1.5784,1.5784,1.5784,1.5784,1.5784,1.5771,1.5718,1.5591,1.5304,1.4716,1.4522,1.4469,1.4175,1.4088,1.4088,1.4088,1.4088,1.4088,1.4088,1.4088,1.4028,1.3746,1.3467,1.3292,0.0,0.0,0.0,1.4545,0.0,0.0,0.0,0.0,0.0,1.701,0.0,0.0,0.0,1.8266,0.0,1.8481,1.8792,1.8997,1.9043,1.9043,1.9043,1.9043,1.9256,1.9305,1.916,1.9671,1.9934,1.9795,2.0215,2.0478,2.0478,2.0556,2.0605,2.0605,2.0605,2.0489,2.0284,2.0059,1.9863,1.9685,1.9399,1.8803,1.7989,1.771,1.7335,1.6731,1.4552,1.4258,1.4831,1.333,1.2924,1.3052,1.3425,1.3318,1.3661,1.4736,1.4939,1.4939,1.5083,1.5083,1.5178,1.5404,1.5445,1.5445,1.5445,1.522,1.5016,1.4841,1.4841,1.4669,1.4282,1.4013,1.365,1.3165,1.2889,1.2651,1.2404,1.2562,1.2623,1.2623,1.2709,1.2795,1.2801,1.3299,1.3516,1.3616,1.4559,1.4988,1.508,1.5577,1.5784,1.5784,1.5784,1.5784,1.5784,1.5784,1.5784,1.5751,1.5538,1.5424,1.5304,1.4716,1.4522,1.4469,1.4175,1.4088,1.4088,1.4088,1.4088,1.4088,1.4088,1.4088,1.4082,1.4048,1.3814,1.3554,1.3483,0.0,1.4511,1.5246,0.0,0.0,0.0,0.0,0.0,0.0,0.0,0.0,1.7974,1.8047,1.8076,1.8076,1.7968,1.7963,1.812,1.8154,1.8154,1.8154,1.9077,1.9368,1.8711,1.9666,1.999,1.9392,1.9766,1.999,1.999,2.041,2.0605,2.0605,2.0605,2.0566,2.0566,2.0342,2.0216,2.0089,1.9529,1.882,1.7969,1.7705,1.769,1.7634,1.5621,1.488,1.4838,1.3555,1.3052,1.3052,1.4646,1.4581,1.4772,1.5425,1.5506,1.5506,1.5506,1.5506,1.5553,1.5642,1.5683,1.5683,1.5683,1.5452,1.5309,1.5309,1.5178,1.5032,0.0,1.4693,1.445,1.421,1.3918,1.3661,1.333,1.3324,1.325,1.3094,1.3094,1.3094,1.3094,1.3341,1.3609,1.3918,1.4495,1.5263,1.6074,1.5886,1.6157,1.6669,1.6669,1.6669,1.6629,1.6015,1.5678,1.5538,1.5251,1.5383,1.5555,1.5162,1.5014,1.5078,1.5472,1.4901,1.4208,1.4699,1.4496,1.4088,1.4088,1.4088,1.4208,1.4741,1.4585,1.4356,1.4281,1.4676,1.5149,1.5298,0.0,0.0,0.0,0.0,0.0,0.0,1.8008,0.0,0.0,0.0,1.7769,1.7974,0.0,0.0,1.7974,1.8008,1.8008,1.8008,1.8438,1.8743,1.8825,1.9526,1.9807,1.9535,1.9923,2.0055,1.9912,2.0098,2.0312,2.0605,2.0605,2.0605,2.0605,2.0381,2.0264,2.0216,1.9696,1.9283,1.8908,1.87,1.8669,1.8607,1.7253,1.6723,1.6519,1.4706,1.4041,1.3922,1.5097,1.5224,1.5364,1.5658,1.5712,1.5738,1.5771,1.5784,1.5784,1.5784,1.5784,1.5784,1.5784,1.5683,1.5588,1.5588,1.5404,1.5267,0.0,1.5061,1.4907,1.483,1.4539,1.4257,1.3932,1.3926,1.3786,1.3506,1.3756,1.3838,1.376,1.4097,1.447,1.4993,1.529,1.6126,1.7251,1.6807,1.7037,1.7692,1.7692,1.7692,1.7645,1.6897,1.6432,1.6123,1.5852,1.5929,1.6109,1.5831,1.576,1.5884,1.6494,1.5842,1.4943,1.556,1.5311,1.4741,1.4538,1.4461,1.4622,1.5228,1.5218,1.5054,1.5039,1.5505,1.5851,1.5509,1.6219,0.0,0.0,0.0,0.0,0.0,0.0,1.7862,0.0,1.7588,0.0,0.0,0.0,0.0,0.0,1.8,1.8073,1.8008,1.8529,1.8888,1.9011,1.9691,2.0016,1.9813,2.0219,2.0333,2.0129,2.037,2.0699,2.1022,2.1181,2.1126,2.0934,2.0789,2.0605,2.0342,1.9872,1.9676,1.9676,1.9429,1.9301,1.9222,1.8607,1.8367,1.8078,1.5647,1.474,1.4538,1.4489,1.4776,1.5115,1.5357,1.5411,1.5504,1.5738,1.5784,1.5784,1.5784,1.5784,1.5784,1.5784,1.5778,1.5778,1.5778,0.0,1.5784,1.5784,0.0,1.5355,1.5081,1.4823,1.4544,1.4315,1.4257,1.4123,1.3792,1.4636,1.4907,1.4664,1.5779,1.6508,1.695,1.738,1.785,1.8279,1.8591,1.8742,1.8742,1.8742,1.8742,1.8742,1.8703,1.8444,1.8053,1.7719,1.7372,1.7033,1.6727,1.6657,0.0,0.0,1.6657,1.6617,1.6657,1.6657,1.6412,1.5594,1.5352,1.5352,1.5394,1.5387,1.5416,1.5638,1.6383,1.6839,1.613,1.6881,1.7672,1.7706,0.0,0.0,0.0,0.0,0.0,0.0,0.0,0.0,0.0,0.0,0.0,0.0,1.7993,1.8296,0.0,1.9868,2.0409,1.9077,2.0302,2.0764,2.0118,2.0477,2.0693,2.0681,2.1637,2.2139,2.2161,2.2655,2.251,2.1766,2.1756,2.1318,2.0566,2.0098,1.9902,1.9863,1.946,1.9301,1.9301,1.9262,1.9262,1.8926,1.6067,1.4873,1.4538,1.6353,1.6419,1.6219,1.5286,1.5156,1.5425,1.6395,1.6114,1.6062,1.6723,1.6204,0.0,0.0,1.5784,1.5784,0.0,0.0,1.6534,1.5825,1.6339,0.0,1.6567,1.5819,1.5624,1.599,1.6035,1.5737,1.5138,1.6104,1.6354,1.6034,1.6404,1.668,1.6822,1.745,1.8167,1.8881,1.8814,1.9201,1.9795,1.9795,2.0167,2.0557,1.8995,1.8195,1.7838,1.7431,1.7453,0.0,1.7587,1.7553,1.7674,1.8238,1.7634,1.6821,1.7391,1.7139,1.6657,0.0,0.0,1.6412,1.6984,1.6927,1.6674,1.6584,1.6994,1.7071,1.6078,1.6673,1.7373,1.7373,0.0,0.0,0.0,0.0,0.0,0.0,0.0,1.6806,1.6525,1.706,0.0,0.0,0.0,0.0,0.0,1.9276,0.0,2.0365,2.0837,2.0996,2.0773,2.0899,2.0874,2.0694,2.1054,2.1533,2.2201,2.2364,2.2505,2.2585,2.2585,2.2003,2.09,2.0496,1.9848,1.9071,1.8665,1.8522,1.8522,1.8522,1.8522,1.8386,1.7369,1.6846,1.6511,1.7302,1.7302,1.703,1.6132,1.6197,1.6639,1.7371,1.7184,1.7171,0.0,1.7271,0.0,1.685,0.0,1.6709,0.0,1.7225,1.7271,1.5872,1.6716,0.0,1.7279,1.6676,1.671,0.0,1.7584,1.7274,1.6679,1.7555,1.7736,0.0,0.0,1.771,1.7861,1.8431,1.9127,1.9851,1.9858,2.0212,0.0,0.0,2.1177,0.0,0.0,1.9025,1.8673,0.0,1.8384,1.8447,1.8447,1.8447,1.8567,1.9134,1.8527,1.7715,1.8278,1.8078,1.7553,1.7269,1.7147,0.0,1.7876,1.7817,1.7548,1.7439,1.7567,1.7451,1.651,1.6777,1.7235,1.7373,0.0,0.0,0.0,0.0,0.0,0.0,1.6523,1.6188,1.5845,1.6584,1.6872,0.0,0.0,0.0,0.0,0.0,0.0,0.0,2.1264,2.1494,2.1494,2.1494,2.1423,2.1247,2.1428,2.1834,2.2478,2.2693,2.279,2.2842,2.2842,2.2233,2.1186,2.0736,1.9989,1.9029,1.8581,1.8267,1.8091,1.8091,1.8091,1.8052,1.7852,1.7436,1.6846,1.7455,1.7472,1.7597,1.7913,1.8473,1.881,1.8588,0.0,1.9047,0.0,1.888,1.8834,1.8834,1.8834,1.8473,1.7512,1.8334,1.8048,1.6103,1.6904,0.0,0.0,1.7419,1.7831,1.8834,0.0,0.0,0.0,0.0,0.0,0.0,0.0,0.0,0.0,2.0278,0.0,2.108,2.1476,2.1668,2.1696,2.1696,2.1696,2.165,2.1291,2.0897,2.0549,2.0503,1.998,1.9301,1.9301,1.9301,1.9301,1.9301,1.9301,1.9301,1.9301,1.9301,1.9134,1.8287,1.8078,1.8078,1.8078,1.8069,0.0,0.0,0.0,1.7944,1.7362,1.722,1.7304,1.7604,1.7588,0.0,0.0,0.0,0.0,0.0,0.0,1.567,1.5689,1.605,1.6155,1.5861,1.7437,0.0,0.0,0.0,0.0,0.0,2.1547,2.2197,2.2197,2.2197,2.2197,2.2197,2.2722,2.2955,2.3023,2.3529,2.3358,2.265,2.265,2.2207,2.139,2.085,2.0252,1.9629,1.909,1.8561,1.8064,1.8064,1.8073,1.8025,1.7621,1.6781,1.5805,1.9756,1.997,2.0233,2.0295,1.9328,1.8772,1.9428,0.0,0.0,0.0,1.9778,1.9314,1.9314,1.9314,1.9231,1.8956,1.9679,0.0,0.0,0.0,0.0,1.9521,1.8788,1.888,1.9886,1.9931,1.9709,1.9339,0.0,0.0,1.9538,0.0,0.0,0.0,0.0,2.0095,2.0232,2.0979,2.1447,2.1696,2.1696,2.1696,2.1678,0.0,2.1406,2.1144,2.0333,1.9742,1.9301,1.9301,1.9301,1.9301,1.9301,1.9301,1.9301,1.9301,1.9301,1.9262,1.9015,1.8975,1.8975,1.8975,1.8867,1.8749,0.0,0.0,0.0,0.0,0.0,0.0,0.0,0.0,0.0,0.0,0.0,0.0,0.0,1.5432,1.5359,1.5652,1.5841,1.6034,1.6287,1.7456,0.0,0.0,0.0,0.0,2.1098,0.0,2.2197,2.2197,2.2197,2.2197,2.2197,2.233,2.2594,2.3011,2.3144,2.3323,2.3494,2.3494,2.2858,2.1732,2.1184,2.0368,1.9375,1.8807,1.8276,1.7799,1.7799,1.7741,1.7706,1.8174,1.7986,1.7471,2.1182,2.1348,2.1523,2.1523,2.0787,2.0357,2.0845,2.0932,0.0,2.1552,2.1105,0.0,2.0782,2.0782,2.0593,2.0178,2.0917,0.0,1.936,0.0,0.0,2.061,2.0059,2.024,2.1204,2.1204,0.0,2.0881,0.0,0.0,2.0462,0.0,0.0,0.0,0.0,2.0211,2.0266,2.0948,2.1385,2.1616,2.18,2.1919,0.0,2.1998,2.1836,2.1517,2.0745,2.017,1.9709,1.9604,1.9508,1.9429,1.9548,1.9508,1.9469,1.9548,1.9508,1.9469,1.9539,1.9539,1.9539,1.9539,1.9489,1.9342,1.9173,1.8892,1.8567,0.0,1.7967,1.7713,0.0,0.0,0.0,0.0,0.0,0.0,1.5649,1.5207,1.5127,1.5692,1.6109,1.6658,1.7434,1.7842,1.8182,0.0,0.0,0.0,0.0,0.0,2.1957,2.2185,2.2197,2.2197,2.2197,2.2197,2.2342,2.263,2.263,2.283,2.3119,2.3119,2.2703,2.199,2.1386,2.0599,1.9683,1.91,1.8408,1.7672,1.7442,1.7316,1.7339,1.8155,1.8292,1.8103,2.1926,2.2016,2.2056,2.2056,2.2357,2.2555,0.0,2.2606,0.0,2.252,0.0,2.2485,2.2485,2.2485,2.2157,2.1364,2.2015,2.1748,2.0042,2.0728,2.1186,2.1186,2.1186,2.1561,2.2397,2.2397,2.2397,0.0,0.0,0.0,0.0,0.0,0.0,0.0,0.0,0.0,0.0,2.1175,2.1453,2.1661,2.1991,2.222,2.2397,2.2397,2.2214,2.1888,2.1404,2.0844,2.0276,2.0014,1.9794,1.9676,1.9824,1.9794,1.9676,1.9863,1.9794,1.9676,1.9863,1.9902,1.9902,1.9902,1.9942,1.9856,1.9496,1.9412,1.924,1.8697,1.8375,1.8149,1.8061,0.0,0.0,0.0,0.0,1.5749,1.5662,1.5309,1.5295,1.6012,1.6778,0.0,1.8651,1.8397,1.8233,1.8313,1.9302,0.0,0.0,0.0,2.1716,2.2173,2.2197,2.2197,2.2197,2.2197,2.2197,2.2197,2.2197,2.2197,2.2197,2.2197,2.2197,2.2166,2.1486,2.0924,2.043,1.9694,1.8777,1.774,1.7201,1.7005,1.7073,1.7807,1.8149,1.8181,2.2122,2.2585,2.2918,0.0,2.3064,2.3254,2.2984,2.3008,2.3047,2.296,2.296,2.296,2.296,2.296,2.2916,2.2731,2.274,0.0,0.0,0.0,0.0,2.2157,2.2157,2.2255,2.2397,2.2397,2.2397,0.0,0.0,0.0,0.0,0.0,0.0,0.0,0.0,0.0,2.1087,2.1188,0.0,2.2249,2.2325,2.2353,2.2397,2.2397,2.2482,2.2495,2.1729,2.1059,2.0469,2.0044,1.9863,1.9863,1.9902,1.9863,1.9863,1.9902,1.9863,1.9863,1.9902,1.9902,1.9902,1.9902,2.0069,2.0206,2.0129,1.9956,1.976,1.9652,1.9022,1.8482,1.8354,0.0,0.0,0.0,0.0,1.6864,1.6955,1.6898,1.7052,1.7634,1.7817,1.8091,1.8511,1.8931,1.9256,1.9471,2.0097,2.0514,2.0598,0.0,2.2101,0.0,2.2197,2.2197,0.0,0.0,2.2197,2.2197,2.2197,2.2197,2.2197,2.2197,2.2197,2.2166,2.1486,2.1316,2.1388,2.0377,1.932,1.8307,1.7774,1.7476,1.7449,1.7944,1.83,1.8577,2.2996,0.0,0.0,0.0,0.0,0.0,0.0,2.3091,2.3091,2.3091,2.3091,2.3091,2.3091,2.3091,2.3091,2.3091,2.3013,2.2969,2.2969,2.2838,2.274,2.274,2.274,2.274,2.274,2.274,2.274,2.274,0.0,0.0,0.0,0.0,0.0,2.0255,0.0,2.0561,0.0,0.0,0.0,2.2322,2.2532,2.2662,2.274,2.274,2.2703,2.2562,2.1942,2.1347,2.0841,2.0399,2.0177,2.0137,2.0216,2.0177,2.0137,2.0216,2.0177,2.0137,2.0216,2.0255,2.0255,2.0255,2.0372,2.0459,2.0459,2.0372,2.0185,1.9961,1.9553,1.9097,1.8501,1.8014,0.0,0.0,0.0,1.7275,1.7713,1.7573,1.7698,1.8471,1.8973,1.9283,1.9379,2.0035,2.0263,1.9817,2.0033,2.043,2.0995,0.0,2.1909,0.0,0.0,0.0,2.2197,0.0,2.2197,2.2197,2.2197,2.2197,2.2197,2.2197,2.2197,2.2154,2.1663,2.1557,2.162,2.0442,1.9551,1.8854,1.8247,1.7983,1.7954,1.8304,1.8512,1.8693,2.3894,2.3927,0.0,0.0,2.3634,2.3547,2.3266,2.3232,2.3144,2.3101,2.3091,2.3091,2.3091,2.3091,2.3091,2.3091,2.3091,2.3091,2.3091,2.3091,2.3091,2.3091,2.3091,2.3091,2.3091,2.3091,2.3091,0.0,0.0,0.0,0.0,0.0,0.0,0.0,0.0,0.0,0.0,0.0,2.197,2.2428,2.2756,2.2969,2.3091,2.3091,2.2838,2.2461,2.2031,2.1611,2.1132,2.0752,2.0489,2.0381,2.0566,2.0489,2.0381,2.0566,2.0489,2.042,2.0566,2.0605,2.0605,2.0605,2.0605,2.0605,2.0605,2.0605,2.0507,2.0117,1.998,1.9584,1.8605,1.816,0.0,0.0,0.0,0.0,0.0,1.8417,1.8568,1.9422,2.0106,2.0465,2.031,2.0866,2.0923,2.0205,2.0129,2.0502,2.1356,2.1512,2.1825,2.2328,0.0,2.2402,2.2512,0.0,2.2451,2.234,2.234,2.229,2.2197,2.2197,2.2197,2.2185,2.1851,2.169,2.1562,2.0619,1.9985,1.9578,1.9034,1.8728,1.8605,1.8798,1.8876,1.885,2.4163,0.0,0.0,0.0,0.0,2.4024,2.3797,2.358,2.3363,2.3135,2.3091,2.3091,2.3091,2.3091,2.3091,2.3091,2.3091,2.3091,2.3091,2.3091,2.3091,2.3091,2.3091,2.3091,2.3091,2.3091,2.3091,0.0,0.0,2.2295,0.0,0.0,0.0,0.0,0.0,0.0,0.0,2.2233,2.2652,2.3042,2.3081,2.3091,2.3091,2.3091,2.2838,2.2461,2.2031,2.1611,2.1132,2.0752,2.0605,2.0566,2.0605,2.0605,2.0566,2.0605,2.0605,2.0566,2.0605,2.0605,2.0605,2.0605,2.0605,2.0605,2.0605,2.0605,2.0595,2.0546,2.0195,1.9611,1.8728,1.8533,1.8412,0.0,0.0,0.0,0.0,2.0405,2.0856,2.1128,2.1248,2.1099,2.0613,2.0634,2.0844,2.1223,2.1247,2.1296,2.1392,2.1861,2.2353,2.2818,2.2818,2.3047,2.3458,2.3458,2.3275,2.2818,2.2818,2.2616,2.2197,2.2197,2.2197,2.2185,2.1851,2.1582,2.1441,2.1628,2.1273,2.0635,2.0571,2.0137,1.9476,1.9515,1.9419,1.9246,0.0,0.0,2.4454,0.0,0.0,0.0,0.0,2.3711,2.3624,2.3527,2.3266,2.3091,2.3091,2.3091,2.3091,2.3091,2.3091,2.3091,2.3091,2.3091,2.3091,2.3091,2.3091,2.3091,2.3091,2.3091,2.3091,0.0,0.0,0.0,0.0,0.0,0.0,0.0,0.0,2.1865,2.2275,2.2441,2.2711,2.3091,2.3091,2.3091,2.3091,2.3091,2.2682,2.2119,2.1953,2.1435,2.081,2.0664,2.0605,2.0605,2.0605,2.0605,2.0605,2.0605,2.0605,2.0605,2.0605,2.0605,2.0605,2.0605,2.0605,2.0605,2.0605,2.0605,2.0605,2.0605,2.0215,1.9805,1.9426,1.8948,1.8679,1.8986,0.0,0.0,0.0,0.0,2.1287,2.1805,2.1873,2.1668,2.1139,2.1368,2.1512,2.1416,2.1404,2.1548,2.1861,2.2354,2.2708,2.2878,0.0,2.3412,2.3607,2.3607,2.3518,2.3322,2.3322,2.3422,2.3578,2.325,2.3121,2.3135,2.3038,2.2655,2.2184,2.2308,2.1946,2.1252,2.1174,2.0975,2.068,2.0604,2.0236,1.9854,2.4497,0.0,2.4454,0.0,2.4292,2.4239,2.4013,2.398,2.3927,2.3927,2.358,2.3309,2.3309,2.3232,2.3232,2.3232,2.3144,2.3091,2.3091,2.3091,2.3091,2.3091,2.3091,0.0,2.3091,2.3091,2.3091,2.3091,2.2799,0.0,0.0,0.0,0.0,0.0,2.2292,2.2635,2.2924,2.3297,2.3614,2.3897,2.3897,2.3897,2.3897,2.3897,2.3352,2.2594,2.2359,2.186,2.128,2.1011,2.0934,2.0905,2.0673,2.0605,2.0605,2.0605,2.0605,2.0605,2.0605,2.0605,2.0605,2.0605,2.0605,2.0605,2.0605,2.0605,2.0605,2.0605,2.0322,2.0068,1.9941,1.9597,1.9414,1.9675,0.0,0.0,0.0,2.1293,0.0,2.2123,2.2197,2.2041,2.1668,2.1969,2.2041,2.1668,2.1632,2.1801,2.2173,2.2647,2.2969,0.0,0.0,0.0,2.4018,2.4018,2.4021,2.4059,2.4059,2.4309,2.4736,2.4205,2.3983,2.4025,2.3872,2.351,2.3063,2.2937,2.2613,2.2182,2.1957,2.1755,2.1575,2.1511,2.1049,2.0469,2.4497,2.4497,2.4497,2.4497,2.4497,2.4497,2.4497,2.4335,2.4206,2.4206,2.398,2.3797,2.3797,2.3624,2.3503,2.3503,2.3232,2.3091,2.3091,2.3091,2.3091,0.0,0.0,2.3091,2.3091,2.3091,2.3091,2.3091,0.0,0.0,2.25,0.0,2.1885,2.1946,2.3205,2.3805,2.3878,2.5196,2.5777,2.5777,2.5777,2.5777,2.5777,2.5777,2.5199,2.4252,2.3465,2.309,2.2846,2.2059,2.1804,2.1652,2.0867,2.0605,2.0605,2.0605,2.0605,2.0605,2.0605,2.0605,2.0605,2.0605,2.0605,2.0605,2.0605,2.0605,2.0605,2.0605,2.0595,2.0458,1.999,2.0555,2.0762,1.9848,0.0,0.0,0.0,2.1726,0.0,2.2197,2.2197,2.2197,2.2185,2.2197,2.2197,0.0,0.0,0.0,0.0,0.0,0.0,2.3577,2.406,0.0,2.4977,2.4977,2.506,2.5167,2.5167,2.524,2.5376,2.4834,2.4589,2.4556,2.4025,2.3881,2.3932,2.3571,2.3468,2.3545,2.3139,2.2617,2.2101,2.2101,2.1711,2.1088,2.6287,2.6287,2.6091,2.5505,2.5379,2.5179,2.4583,2.4464,2.4615,2.521,2.469,2.4519,2.5084,2.4294,2.3667,0.0,2.3416,2.3363,0.0,2.3188,2.3188,2.3363,2.3188,2.3091,2.3091,2.3091,2.3091,2.3091,0.0,0.0,0.0,2.276,2.3077,2.3705,2.4092,2.4609,2.5196,2.5628,2.5777,2.5777,2.5777,2.5777,2.5777,2.5777,2.5437,2.4847,2.4252,2.379,2.3372,2.2794,2.2622,2.2574,2.2322,2.1869,2.1538,2.2059,2.1842,2.1423,2.1423,2.1011,2.0605,2.0605,2.0605,2.0605,2.0605,2.0605,2.0605,2.0605,2.0605,2.0556,2.0381,2.0335,2.041,2.0814,2.0979,0.0,2.1765,0.0,2.2197,2.2197,2.2197,2.2197,2.2197,2.2197,2.2197,0.0,0.0,0.0,0.0,0.0,0.0,0.0,2.4379,0.0,2.5005,2.5412,2.5639,2.5681,2.6099,2.6334,2.6431,2.6648,2.6567,2.6235,2.6068,2.5648,2.507,2.4661,2.4136,2.3567,2.315,2.2889,2.2703,2.2703,2.2317,2.1787,2.711,2.711,2.6946,2.6359,2.6276,2.6121,2.5558,2.5485,2.5684,2.6205,2.5547,2.5179,2.5746,2.4754,0.0,2.3764,2.3677,2.3624,2.3624,2.3406,2.3493,2.396,2.3777,2.3777,2.4102,2.3767,0.0,2.4102,2.4102,2.394,2.3647,2.3983,2.4445,2.4988,2.5379,2.583,2.6329,2.667,2.6823,2.6823,2.6823,2.6823,2.6823,2.6823,2.6529,2.6052,2.543,2.4936,2.451,2.3906,2.3583,2.3463,2.3756,2.3316,2.2723,2.2909,2.2435,2.1794,2.1794,2.1203,2.0605,2.0605,2.0605,2.0605,2.0605,2.0605,2.0605,2.0605,2.0605,2.0605,2.0605,2.06,2.069,2.0966,2.123,2.1486,2.1757,2.203,2.2197,2.2197,2.2197,2.2197,2.2197,2.2197,2.2197,0.0,0.0,0.0,0.0,0.0,2.3872,2.3872,2.4593,2.5113,2.5344,2.5697,2.6117,2.6579,2.7203,2.749,2.7552,2.7716,2.761,2.7276,2.7108,2.6688,2.6092,2.5323,2.4659,2.4057,2.3287,2.3001,2.3001,2.3001,2.2777,2.2402,2.7273,2.7273,2.7273,2.7232,2.7191,2.7191,2.711,2.711,2.711,2.7191,2.6442,2.5902,2.5986,2.5232,2.4625,2.4411,0.0,0.0,2.3917,2.3711,2.3993,2.4914,2.4744,2.4988,2.5819,2.5031,2.4988,2.5777,2.5777,2.5368,2.4627,2.5411,2.5819,2.5955,2.6794,2.7226,2.7348,2.8179,2.851,2.851,2.851,2.851,2.851,2.851,2.821,2.7648,2.6874,2.6435,2.608,2.5319,2.4701,2.4358,2.5099,2.4814,2.4047,2.3353,2.2585,2.1945,2.1945,2.1308,2.0673,2.0673,2.0644,2.0605,2.0605,2.0605,2.0605,2.0605,2.0605,2.0605,2.0605,2.1203,2.1439,2.0586,2.1607,2.2205,2.1351,2.1781,2.2197,2.2197,2.2197,0.0,2.2197,2.2197,2.2197,0.0,0.0,0.0,0.0,0.0,2.4398,2.4345,2.4832,2.5344,2.5955,2.5995,2.6606,2.7773,2.8329,2.8587,2.8587,2.8085,2.7855,2.7822,2.7343,2.7108,2.6973,2.5674,2.5075,2.4862,2.3607,2.3075,2.3001,2.3001,2.3001,2.2927,0.0,0.0,2.8961,2.8303,2.8171,2.7931,2.7232,2.711,2.7354,2.8091,2.7354,2.7069,2.7758,2.7028,2.6453,2.6412,2.502,2.4391,2.5031,2.4851,2.5179,2.6276,2.6152,2.6016,2.6036,2.5828,2.5766,2.5777,2.5777,2.5694,2.5495,2.5704,2.6163,2.6887,2.7092,2.7551,2.8219,2.8431,2.851,2.851,2.851,2.851,2.851,2.851,2.8426,2.823,2.7627,2.7394,2.7234,2.6637,2.6063,2.5647,2.5829,2.5481,2.4969,2.4791,2.4204,2.3562,2.3562,2.2574,2.1499,2.1499,2.1049,2.0605,2.0605,2.0605,2.0605,2.0605,2.0605,2.0605,2.0605,2.076,2.106,2.1667,2.1732,2.1879,2.2474,2.2344,2.2197,0.0,2.2197,2.2197,2.2197,2.2197,2.2197,0.0,0.0,2.3374,2.3499,2.4851,2.5397,2.4995,2.5437,2.5982,2.6562,2.7054,2.7651,2.8383,2.8519,2.8587,2.8587,2.8457,2.8425,2.8392,2.8281,2.7987,2.7577,2.6921,2.6032,2.4933,2.4312,2.3632,2.3001,2.3001,2.3001,2.2964,2.9792,2.9792,2.9663,2.917,2.9079,2.8922,2.8422,2.8343,2.8514,2.904,2.8303,2.7919,2.8462,2.7637,2.711,2.711,2.6121,2.5715,2.6193,2.6016,2.6348,2.7354,2.718,2.7209,2.7452,2.7075,2.6637,2.611,2.6935,2.7098,2.673,2.7017,2.7447,2.7914,2.7846,2.8059,2.851,2.851,2.851,2.851,2.851,2.851,2.851,2.851,2.851,2.8474,2.8186,2.7933,2.7681,2.7354,2.6898,2.6478,2.6478,2.6105,2.5673,2.5673,2.4931,2.4108,2.4108,2.3231,2.2247,2.1869,2.1461,2.1049,2.0673,2.0605,2.0712,2.1088,2.0867,2.0722,2.1088,2.1165,2.128,2.1623,2.2054,2.2456,2.2817,2.2881,2.2939,2.2939,2.2939,2.2939,2.2939,2.2939,2.2939,2.2939,2.3429,0.0,2.4069,2.4855,2.5373,2.5542,2.6069,2.6606,2.7199,2.7813,2.8275,2.8587,2.8587,2.8587,2.8587,2.8587,2.8587,2.8587,2.8587,2.8379,2.796,2.7338,2.633,2.5158,2.4516,2.3742,2.3001,2.3001,2.3001,2.3001,2.9792,2.9792,2.9792,2.9792,2.9792,2.9792,2.9792,2.9792,2.9792,2.9792,2.917,2.8712,2.8712,2.7971,2.7516,2.7516,2.7516,2.7435,2.7313,2.7151,2.7435,2.8303,2.8183,2.8422,2.9131,2.8383,2.7637,2.6894,2.8383,2.8712,2.8011,2.8593,2.8843,2.8843,2.8657,2.859,2.855,2.855,2.855,2.851,2.851,2.851,2.851,2.851,2.851,2.851,2.851,2.8222,2.7798,2.7798,2.745,2.7018,2.7018,2.6633,2.6202,2.6117,2.5287,2.4393,2.4288,2.3756,2.2995,2.2172,2.1983,2.1794,2.1126,2.0982,2.1165,2.1832,2.1423,2.1165,2.1869,2.1983,2.1895,2.1597,2.2604,2.3317,2.3016,0.0,2.3806,2.3806,2.3806,2.3806,2.3806,2.3806,2.3806,2.3806,2.3878,2.408,2.4497,2.4669,2.5144,2.6009,2.6525,2.7151,2.7841,2.8343,2.8587,2.8587,2.8587,2.8587,2.8587,2.8587,2.8587,2.8587,2.8587,2.8509,2.8287,2.7438,2.6569,2.5625,2.4684,2.3841,2.3139,2.3038,2.3001,2.3001,2.9792,2.9792,2.9792,2.9792,2.9792,2.9792,2.9792,2.9792,2.9792,2.9792,2.9663,2.9585,2.9585,2.9456,2.9378,2.9378,2.9378,2.9091,2.8331,2.8251,2.8633,2.9507,2.9507,2.9456,2.9353,2.9028,2.8843,2.8712,2.8961,2.9013,2.8882,2.9013,2.9052,2.9052,2.9013,2.8934,2.8764,2.8764,2.8657,2.851,2.851,2.851,2.851,2.851,2.851,2.851,2.851,2.8462,2.839,2.839,2.8041,2.7596,2.7596,2.7198,2.6681,2.6238,2.5961,2.5684,2.5242,2.4528,2.3745,2.2984,2.2798,2.2771,2.266,2.2622,2.2649,2.2809,2.2697,2.266,2.2809,2.2798,2.2999,2.3534,2.3507,2.3572,2.4124,0.0,2.3806,2.3806,2.3806,2.3806,2.3806,2.3806,2.3806,2.3806,2.4157,2.4432,2.45,2.5416,2.6005,2.6176,2.6616,2.7397,2.8451,2.8546,2.8587,2.8587,2.8587,2.8587,2.8587,2.8587,2.8587,2.8587,2.8587,2.8587,2.8522,2.8189,2.7537,2.6569,2.566,2.4719,2.3829,2.325,2.3001,2.3001,2.9792,2.9792,2.9792,2.9792,2.9792,2.9792,2.9792,2.9792,2.9792,2.9792,2.9792,2.9792,2.9792,2.9792,2.9792,2.9792,2.9792,2.9624,2.9209,2.9209,2.9378,2.9792,2.9792,2.974,2.9611,2.9534,2.9468,2.9468,2.9468,2.9468,2.9456,2.9326,2.9275,2.9275,2.917,2.9052,2.8961,2.8961,2.8855,2.8657,2.8657,2.8618,2.851,2.851,2.851,2.851,2.851,2.851,2.851,2.851,2.8342,2.815,2.815,2.775,2.727,2.7043,2.6358,2.5624,2.5372,2.5052,2.4564,2.3793,2.361,2.35,2.3095,2.2995,2.3095,2.35,2.3279,2.3132,2.3537,2.361,2.372,2.4036,2.4294,2.4554,2.4869,2.4747,2.4602,2.4602,2.4602,2.4602,2.4602,2.4602,2.4602,2.4602,2.4807,2.4939,2.4939,2.5425,2.5873,2.6198,2.6683,2.7348,2.8151,2.8151,2.8314,2.8587,2.8587,2.8587,2.8587,2.8587,2.8587,2.8587,2.8587,2.8554,2.843,2.832,2.7716,2.6697,2.5847,2.4921,2.4011,2.3276,2.3001,2.3001,2.9792,2.9792,2.9792,2.9792,2.9792,2.9792,2.9792,2.9792,2.9792,2.9792,2.9792,2.9792,2.9792,2.9792,2.9792,2.9792,2.9792,2.9792,2.9792,2.9792,2.9792,2.9792,2.9792,2.9792,2.9792,2.9792,2.9792,2.9792,2.9792,2.9792,2.9792,2.9611,2.9509,2.947,2.9326,2.9209,2.917,2.917,2.904,2.8882,2.8882,2.8776,2.863,2.859,2.8578,2.8538,2.851,2.851,2.851,2.851,2.851,2.851,2.851,2.8234,2.7846,2.7726,2.6755,2.5661,2.5528,2.5396,2.5158,2.4528,2.4373,2.4228,2.3647,2.3537,2.3683,2.4264,2.3938,2.372,2.4264,2.4373,2.4373,2.4373,0.0,2.5312,2.5312,2.5312,2.5312,2.5312,2.5312,2.5312,2.5312,2.5312,2.5312,2.5312,2.5312,2.5312,2.5312,2.5312,2.5523,2.5978,2.6667,2.7209,2.761,2.761,2.7809,2.8216,2.8346,2.8425,2.8425,2.8554,2.8587,2.8587,2.8587,2.8509,2.8365,2.832,2.7796,2.6947,2.6089,2.5322,2.4505,2.3596,2.325,2.325,2.9792,2.9792,2.9792,2.9792,2.9792,2.9792,2.9792,2.9792,2.9792,2.9792,2.9792,2.9792,2.9792,2.9792,2.9792,2.9792,2.9792,2.9792,2.9792,2.9792,2.9792,2.9792,2.9792,2.9792,2.9792,2.9792,2.9792,2.9792,2.9792,2.9792,2.9792,2.9792,2.9792,2.9753,2.9753,2.9611,2.938,2.938,2.9275,2.9091,2.9091,2.9052,2.9052,2.8843,2.8803,2.8764,2.8578,2.851,2.851,2.851,2.851,2.851,2.851,2.8486,2.8354,2.7861,2.7246,2.6669,2.6178,2.5685,2.5276,2.5241,2.5194,2.5194,2.5123,2.5123,2.5158,2.5194,2.5158,2.5158,2.5194,2.5194,2.5194,2.5194,0.0,0.0,2.5312,2.5312,2.5312,2.5312,2.5312,2.5312,2.5312,2.5312,2.5312,2.5312,2.5312,2.5312,2.5312,2.5312,2.5312,2.5382,2.6414,2.704,2.7074,2.7074,2.7074,2.7142,2.761,2.7855,2.7888,2.836,2.8587,2.8587,2.8587,2.8587,2.8554,2.8365,2.8183,2.7901,2.6981,2.6471,2.6057,2.4588,2.4011,2.3902,2.9792,2.9792,2.9792,2.9792,2.9792,2.9792,2.9792,2.9792,2.9792,2.9792,2.9792,2.9792,2.9792,2.9792,2.9792,2.9792,2.9792,2.9792,2.9792,2.9792,2.9792,2.9792,2.9792,2.9792,2.9792,2.9792,2.9792,2.9792,2.9792,2.9792,2.9792,2.9792,2.9792,2.9792,2.9792,2.974,2.965,2.965,2.9521,2.9275,2.9275,2.9197,2.9091,2.8882,2.8791,2.8764,2.8578,2.851,2.851,2.851,2.851,2.851,2.851,2.851,2.8474,2.827,2.7798,2.7342,2.7164,2.6466,2.5721,2.5384,2.5312,2.5312,2.5312,2.5312,2.5312,2.5312,2.5312,2.5312,2.5312,2.5312,2.5312,2.5312,0.0,2.5312,2.5312,2.5312,2.5312,2.5312,2.5312,2.5312,2.5312,2.5312,2.5312,2.5312,2.5312,2.5312,2.5312,2.5312,2.5312,2.5312,2.5721,2.6151,2.6496,2.6496,2.6667,2.7007,2.7209,2.731,2.731,2.751,2.7776,2.8118,2.8118,2.8281,2.8587,2.8509,2.8379,2.8137,2.717,2.6731,2.6436,2.5276,2.4528,2.4047,2.9792,2.9792,2.9792,2.9792,2.9792,2.9792,2.9792,2.9792,2.9792,2.9792,2.9792,2.9792,2.9792,2.9792,2.9792,2.9792,2.9792,2.9792,2.9792,2.9792,2.9792,2.9792,2.9792,2.9792,2.9792,2.9792,2.9792,2.9792,2.9792,2.9792,2.9792,2.9792,2.9792,2.9792,2.9792,2.9792,2.9792,2.9792,2.9689,2.9521,2.9521,2.9443,2.93,2.9079,2.8988,2.8949,2.8776,2.8669,2.8578,2.8578,2.855,2.851,2.851,2.851,2.851,2.851,2.8246,2.7894,2.7726,2.7176,2.6478,2.5949,2.5685,2.5552,2.5552,2.5552,2.5552,2.5552,2.5697,2.5781,2.5781,2.5781,2.5781,2.5781,2.5673,2.5552,2.5552,2.5408,2.5312,2.5312,2.5312,2.5312,2.5312,2.5312,2.5312,2.5312,2.5312,2.5312,2.5312,2.5312,2.5312,2.5312,2.5312,2.5488,2.5908,2.5908,2.6117,2.6483,2.6667,2.6735,2.6769,2.6939,2.7209,2.7543,2.7543,2.7756,2.8085,2.8085,2.8072,2.796,2.7284,2.7015,2.6947,2.6,2.5288,2.4767,2.9792,2.9792,2.9792,2.9792,2.9792,2.9792,2.9792,2.9792,2.9792,2.9792,2.9792,2.9792,2.9792,2.9792,2.9792,2.9792,2.9792,2.9792,2.9792,2.9792,2.9792,2.9792,2.9792,2.9792,2.9792,2.9792,2.9792,2.9792,2.9792,2.9792,2.9792,2.9792,2.9792,2.9792,2.9792,2.9792,2.9792,2.9792,2.9792,2.9792,2.9792,2.9792,2.9792,2.9509,2.9419,2.938,2.917,2.8961,2.8791,2.8791,2.8657,2.851,2.851,2.851,2.851,2.851,2.851,2.839,2.7834,2.769,2.757,2.703,2.6514,2.6105,2.6105,2.6105,2.6105,2.6105,2.655,2.6898,2.6898,2.6898,2.6898,2.6898,2.6466,2.6105,2.6093,2.5648,2.5312,2.5312,2.5312,2.5312,2.5312,2.5312,2.5312,2.5312,2.5312,2.5312,2.5312,2.5312,2.5312,2.5312,2.5312,2.5312,2.5312,2.5312,2.5312,2.5312,2.5908,2.6198,2.6198,2.6735,2.7007,2.7007,2.7007,2.7007,2.7007,2.7007,2.7209,2.7503,2.7335,2.749,2.7676,2.6722,2.638,2.6161,2.9792,2.9792,2.9792,2.9792,2.9792,2.9792,2.9792,2.9792,2.9792,2.9792,2.9792,2.9792,2.9792,2.9792,2.9792,2.9792,2.9792,2.9792,2.9792,2.9792,2.9792,2.9792,2.9792,2.9792,2.9792,2.9792,2.9792,2.9792,2.9792,2.9792,2.9792,2.9792,2.9792,2.9792,2.9792,2.9792,2.9792,2.9792,2.9792,2.9792,2.9792,2.9792,2.9792,2.9509,2.9419,2.938,2.917,2.9052,2.9,2.8843,2.8764,2.8685,2.855,2.851,2.851,2.851,2.851,2.8474,2.8318,2.827,2.8026,2.7114,2.6765,2.6645,2.6645,2.6645,2.6645,2.6645,2.6777,2.6898,2.6898,2.6898,2.6898,2.6898,2.6765,2.655,2.6154,2.5961,2.5721,2.5348,2.5312,2.5312,2.5312,2.5312,2.5312,2.5312,2.5312,2.5312,2.5312,2.5312,2.5312,2.5312,2.5312,2.5312,2.5312,2.5312,2.5312,2.5312,2.5488,2.5558,2.5558,2.5721,2.6035,2.6427,2.6427,2.6667,2.7007,2.7007,2.7074,2.7142,2.6952,2.6952,2.6939,2.6277,2.5674,2.5099,2.9792,2.9792,2.9792,2.9792,2.9792,2.9792,2.9792,2.9792,2.9792,2.9792,2.9792,2.9792,2.9792,2.9792,2.9792,2.9792,2.9792,2.9792,2.9792,2.9792,2.9792,2.9792,2.9792,2.9792,2.9792,2.9792,2.9792,2.9792,2.9792,2.9792,2.9792,2.9792,2.9792,2.9792,2.9792,2.9792,2.9792,2.9792,2.9792,2.9792,2.9792,2.9792,2.9792,2.9611,2.956,2.9521,2.9417,2.93,2.9197,2.9,2.8803,2.8657,2.855,2.851,2.851,2.851,2.851,2.851,2.851,2.851,2.8354,2.7678,2.7366,2.721,2.721,2.721,2.721,2.721,2.7378,2.7522,2.7522,2.7522,2.7522,2.7522,2.7342,2.709,2.6791,2.637,2.5973,2.5661,2.5432,2.5312,2.5312,2.5312,2.5312,2.5312,2.5312,2.5312,2.5312,2.5312,2.5312,2.5312,2.5312,2.5312,2.5312,2.5312,2.5312,2.5312,2.5312,2.5312,2.5312,2.5312,2.5488,2.5838,2.5838,2.6047,2.6346,2.6346,2.6483,2.6667,2.644,2.6508,2.6645,2.6104,2.5604,2.5063,2.9792,2.9792,2.9792,2.9792,2.9792,2.9792,2.9792,2.9792,2.9792,2.9792,2.9792,2.9792,2.9792,2.9792,2.9792,2.9792,2.9792,2.9792,2.9792,2.9792,2.9792,2.9792,2.9792,2.9792,2.9792,2.9792,2.9792,2.9792,2.9792,2.9792,2.9792,2.9792,2.9792,2.9792,2.9792,2.9792,2.9792,2.9792,2.9792,2.9792,2.9792,2.9792,2.9792,2.9792,2.9792,2.9792,2.9792,2.965,2.938,2.9209,2.8855,2.855,2.855,2.855,2.851,2.851,2.851,2.851,2.851,2.851,2.851,2.851,2.815,2.775,2.775,2.775,2.775,2.775,2.8174,2.851,2.851,2.851,2.851,2.851,2.8114,2.7738,2.769,2.6875,2.6202,2.6105,2.5673,2.536,2.5312,2.5312,2.5312,2.5312,2.5312,2.5312,2.5312,2.5312,2.5312,2.5312,2.5312,2.5312,2.5312,2.5312,2.5312,2.5312,2.5312,2.5312,2.5312,2.5312,2.5312,2.5312,2.5312,2.5312,2.5312,2.5312,2.5629,2.6094,2.5933,2.6129,2.6508,2.6,2.5791,2.5652,2.9792,2.9792,2.9792,2.9792,2.9792,2.9792,2.9792,2.9792,2.9792,2.9792,2.9792,2.9792,2.9792,2.9792,2.9792,2.9792,2.9792,2.9792,2.9792,2.9792,2.9792,2.9792,2.9792,2.9792,2.9792,2.9792,2.9792,2.9792,2.9792,2.9792,2.9792,2.9792,2.9792,2.9792,2.9792,2.9792,2.9792,2.9792,2.9792,2.9792,2.9792,2.9792,2.9792,2.9792,2.9792,2.9792,2.9792,2.9753,2.9663,2.9431,2.9157,2.8934,2.8764,2.8724,2.8685,2.855,2.851,2.851,2.851,2.851,2.851,2.851,2.8426,2.8342,2.8342,2.8342,2.8342,2.8342,2.8426,2.851,2.851,2.851,2.851,2.851,2.8414,2.8198,2.7777,2.7486,2.7055,2.6202,2.5997,2.5769,2.5348,2.5312,2.5312,2.5312,2.5312,2.5312,2.5312,2.5312,2.5312,2.5312,2.5312,2.5312,2.5312,2.5312,2.5312,2.5312,2.5312,2.5312,2.5312,2.5312,2.5312,2.5312,2.5312,2.5312,2.5312,2.5312,2.5382,2.5488,2.5453,2.5488,2.5558,2.5194,2.5028,2.4921,2.9792,2.9792,2.9792,2.9792,2.9792,2.9792,2.9792,2.9792,2.9792,2.9792,2.9792,2.9792,2.9792,2.9792,2.983,2.9934,2.9869,2.9869,3.0075,3.0011,2.9972,3.0075,3.0075,3.0075,3.0075,3.0075,2.9972,2.9792,2.9792,2.9792,2.9792,2.9792,2.9792,2.9792,2.9792,2.9792,2.9792,2.9792,2.9792,2.9792,2.9792,2.9792,2.9792,2.9792,2.9792,2.9792,2.9792,2.9702,2.9611,2.947,2.9275,2.9091,2.8961,2.8922,2.8882,2.8697,2.8657,2.8618,2.855,2.851,2.851,2.851,2.851,2.851,2.851,2.851,2.851,2.851,2.851,2.851,2.851,2.851,2.851,2.851,2.851,2.8414,2.8138,2.7846,2.7474,2.6935,2.6647,2.6394,2.6081,2.6045,2.6045,2.6045,2.6045,2.6045,2.6045,2.6045,2.6045,2.6045,2.6045,2.6045,2.6045,2.5817,2.5685,2.5685,2.5432,2.5312,2.5312,2.5312,2.5312,2.5312,2.5312,2.5312,2.5312,2.5312,2.5312,2.5312,2.5312,2.5312,2.5276,2.4921,2.4574,2.4164,2.9792,2.9792,2.9792,2.9792,2.9792,2.9792,2.9792,2.9792,2.9792,2.9792,2.983,2.983,2.9792,2.983,2.9934,3.0113,3.0011,3.0049,3.0368,3.0228,3.0228,3.0406,3.0406,3.0406,3.0406,3.0406,3.0177,2.9756,2.9756,2.9719,2.9567,2.958,2.9541,2.9554,2.9503,2.9553,2.9641,2.9641,2.9704,2.9792,2.9792,2.9792,2.9792,2.9792,2.9792,2.9792,2.9792,2.965,2.947,2.947,2.9365,2.9209,2.917,2.917,2.9131,2.8922,2.8843,2.8803,2.8618,2.855,2.855,2.851,2.851,2.851,2.851,2.8379,2.8259,2.8259,2.8259,2.8299,2.8471,2.851,2.851,2.851,2.851,2.851,2.851,2.8138,2.7786,2.769,2.7222,2.6898,2.6898,2.6898,2.6898,2.6898,2.6898,2.6898,2.6898,2.6898,2.6898,2.6898,2.6898,2.6898,2.6898,2.6466,2.6238,2.6238,2.5793,2.5492,2.5312,2.5312,2.5312,2.5312,2.5312,2.5312,2.5312,2.5312,2.5312,2.5312,2.5312,2.5312,2.5276,2.4992,2.4418,2.3824,2.9792,2.9792,2.9792,2.9792,2.9792,2.9792,2.9792,2.9792,2.9792,2.9792,2.9934,2.9972,2.983,2.9972,3.0152,3.033,3.033,3.033,3.0406,3.0368,3.0368,3.0406,3.0406,3.0406,3.0406,3.0406,3.0125,2.9539,2.9539,2.9284,2.8773,2.8629,2.8581,2.8568,2.8422,2.8599,2.9013,2.9013,2.934,2.9792,2.9792,2.9792,2.9792,2.9792,2.9792,2.9792,2.9792,2.9792,2.9753,2.9753,2.9714,2.9663,2.9431,2.9341,2.9302,2.9131,2.9052,2.9013,2.8803,2.8764,2.8724,2.855,2.851,2.851,2.851,2.7926,2.7389,2.7389,2.7389,2.7603,2.8351,2.851,2.851,2.851,2.851,2.851,2.851,2.845,2.8234,2.7777,2.7222,2.6898,2.6898,2.6898,2.6898,2.6898,2.6898,2.6898,2.6898,2.6898,2.6898,2.6898,2.6898,2.6898,2.6898,2.6825,2.6777,2.6777,2.6717,2.6189,2.5312,2.5312,2.5312,2.5312,2.5312,2.5312,2.5312,2.5312,2.5312,2.5312,2.5312,2.5312,2.5276,2.5241,2.4981,2.4646,2.9792,2.9792,2.9792,2.9792,2.9792,2.9792,2.9792,2.9895,2.9972,2.9972,3.0152,3.0228,3.0152,3.0228,3.0343,3.0533,3.0444,3.0482,3.071,3.0647,3.0609,3.071,3.0748,3.0748,3.0748,3.0748,3.0438,2.9831,2.9955,2.9702,2.9102,2.9054,2.8851,2.8497,2.8328,2.8407,2.861,2.88,2.9038,2.934,2.9666,2.9792,2.9792,2.9792,2.9792,2.9792,2.9792,2.9792,2.9792,2.9792,2.9792,2.9792,2.965,2.9611,2.9573,2.9353,2.9275,2.9236,2.9,2.8961,2.8922,2.8736,2.8657,2.8526,2.7926,2.747,2.7348,2.7846,2.7926,2.8059,2.8431,2.851,2.851,2.851,2.851,2.851,2.851,2.851,2.8426,2.8186,2.7957,2.7774,2.7774,2.7774,2.7774,2.7774,2.7774,2.7774,2.7774,2.7774,2.7774,2.7774,2.7774,2.7774,2.7774,2.7486,2.7342,2.733,2.7042,2.6477,2.5745,2.5745,2.5588,2.5312,2.5312,2.5312,2.5312,2.5312,2.5312,2.5312,2.5312,2.5312,2.5312,2.5312,2.5087,2.479]}]]